GFSCGP_250_spd_000.txt.gz
Wind_Speed
44 41 49 50 42 39 37 35 30 34 35 20 29 25 33 39 45 44 48 52 50 45 43 39 43 44 44 44 45 47 48 48 50 51 52 52 53 50 51 52 52 56 60 62
47 41 55 48 48 43 41 38 39 37 38 30 31 28 31 38 39 46 44 48 51 46 41 40 39 42 43 45 48 49 50 50 53 55 54 51 51 52 52 54 57 60 62 66
52 46 55 56 52 52 46 46 44 42 46 38 34 28 34 35 38 42 50 50 48 40 37 42 42 41 41 43 46 49 50 52 54 55 53 52 53 54 57 60 63 66 69 70
48 54 58 55 51 62 48 53 48 44 39 37 34 23 30 35 33 37 44 52 47 45 45 46 48 48 48 49 51 52 52 53 56 59 58 57 56 56 59 63 66 68 70 73
51 57 57 58 61 64 53 53 51 48 43 36 36 40 27 26 38 40 48 52 57 54 56 54 54 53 52 53 52 52 54 58 61 63 63 62 60 61 65 68 70 75 78 82
58 59 54 55 61 66 63 60 58 53 47 33 41 49 32 39 39 42 45 51 54 54 59 59 59 59 60 59 57 57 57 58 63 68 72 72 69 68 68 71 75 80 84 87
68 67 66 67 67 65 65 63 61 59 51 40 49 50 44 48 50 50 50 51 56 56 59 66 68 69 69 68 67 65 65 66 70 73 76 81 83 78 76 76 77 82 87 89
78 72 77 73 77 79 70 70 68 74 63 54 55 46 41 50 52 55 57 59 60 64 66 67 73 74 74 74 73 71 71 73 76 77 74 79 85 86 77 79 83 86 89 90
87 76 82 82 80 82 78 76 80 83 72 71 54 52 47 54 58 58 57 60 65 69 71 72 75 76 77 79 79 80 83 84 83 80 78 81 82 86 88 86 86 89 89 91
89 95 90 80 82 81 87 85 84 83 83 81 63 65 54 54 54 60 66 71 72 71 73 76 76 78 81 82 86 87 86 88 87 88 90 89 87 90 92 92 87 87 90 90
94 101 102 112 99 90 99 88 88 88 90 91 85 56 55 64 69 74 78 79 81 81 79 79 79 82 83 87 89 85 86 86 91 85 87 86 88 94 92 92 95 95 94 95
111 115 112 112 115 110 106 100 99 108 105 103 104 77 72 80 73 81 83 84 94 96 92 93 89 99 85 85 79 85 81 81 84 83 86 91 94 93 96 95 95 95 97 98
117 118 120 121 120 120 112 107 109 112 112 114 109 99 83 91 99 89 96 94 99 92 102 108 103 100 105 97 95 91 91 87 91 92 95 99 95 98 100 99 97 97 99 100
139 136 137 136 132 127 130 123 122 119 127 121 120 122 114 97 93 95 97 104 102 101 103 108 106 107 111 109 103 101 99 99 98 101 104 101 97 101 103 100 99 102 102 103
141 144 148 148 147 141 143 139 128 126 129 130 129 128 114 107 105 112 100 100 114 110 112 114 108 109 108 109 107 108 106 103 103 104 106 105 102 101 102 105 107 106 107 109
145 145 138 139 134 132 132 126 125 124 126 136 130 127 113 113 111 108 106 107 116 116 115 116 117 113 109 108 109 105 104 104 108 108 108 104 107 106 107 112 113 115 112 112
133 138 133 136 130 125 135 126 124 133 135 131 131 126 120 116 115 109 116 119 118 117 114 115 120 117 113 108 104 105 108 115 111 111 110 112 113 112 115 118 122 122 116 108
128 133 134 138 135 142 132 126 131 131 131 127 129 129 130 126 121 121 122 122 117 118 117 118 122 121 115 109 113 114 116 119 122 119 118 117 119 119 122 119 114 111 105 102
122 125 131 143 143 138 139 132 131 130 133 129 134 129 127 128 133 133 126 125 127 122 121 123 121 120 118 118 117 119 122 122 126 125 118 123 126 125 116 112 108 104 106 107
114 116 120 124 128 132 127 126 132 129 132 132 129 129 134 136 142 129 127 126 121 123 128 126 125 126 120 121 123 125 125 131 135 131 130 125 123 119 109 106 106 102 102 101
117 118 124 126 131 129 122 119 121 126 118 121 129 130 132 135 138 129 131 127 124 127 127 129 132 130 130 134 136 136 138 133 136 130 126 128 115 108 105 105 101 99 100 100
118 116 113 119 126 123 121 116 121 120 123 122 122 123 119 121 126 129 125 125 125 128 130 139 136 137 140 143 143 141 141 138 132 130 124 117 113 109 107 105 105 104 102 102
122 119 119 117 119 123 119 113 115 122 122 119 121 116 118 119 120 118 118 114 119 123 128 130 134 140 142 130 124 121 117 112 114 116 115 112 113 112 110 109 107 105 102 101
124 121 123 120 117 122 119 119 124 128 117 120 122 117 115 115 117 117 111 110 108 107 110 114 116 119 118 117 114 112 108 108 113 114 114 114 112 113 110 108 105 102 100 101
116 116 118 117 117 119 121 119 121 127 124 125 120 123 119 118 114 109 109 110 112 110 111 112 114 116 115 115 114 113 111 112 115 115 111 110 108 106 103 101 101 98 95 98
111 111 112 113 114 116 111 115 118 120 122 124 119 115 117 120 121 116 111 108 109 107 107 105 106 108 109 108 106 108 107 108 110 110 108 104 100 100 97 94 94 95 90 93

GFSCGP_250_spd_003.txt.gz
Wind_Speed
45 42 46 55 46 43 39 35 35 38 43 30 28 27 32 39 38 36 37 39 35 33 39 41 42 45 42 43 47 49 49 51 53 52 51 52 52 54 54 55 54 53 52 54
45 35 51 52 53 51 45 40 37 37 45 41 35 32 30 39 37 41 38 39 38 33 34 37 40 41 43 42 43 45 47 49 50 52 54 55 55 58 58 55 54 55 56 57
49 44 50 54 52 55 49 49 48 41 47 42 39 32 28 36 40 39 45 43 42 41 36 34 36 36 37 39 43 45 47 48 49 51 53 56 59 61 58 59 60 60 62 62
49 54 55 56 56 63 46 56 51 48 47 40 42 25 28 36 40 39 45 49 49 46 45 43 44 46 46 48 49 51 52 52 52 53 56 59 62 63 65 66 64 62 64 65
57 60 60 60 61 66 57 60 54 51 48 46 43 45 36 40 41 44 48 53 54 57 57 54 52 51 51 52 53 54 55 55 57 58 60 62 65 67 67 67 67 68 70 72
70 69 70 68 65 67 67 65 65 63 60 50 48 54 31 41 42 46 48 50 51 57 58 59 59 58 55 55 57 58 58 57 58 60 62 64 67 70 74 75 75 75 77 78
85 69 72 79 79 77 80 75 74 74 69 60 60 49 39 47 49 49 50 52 52 53 57 61 67 66 65 64 64 63 63 63 63 67 69 70 73 78 82 89 90 85 83 82
87 77 86 77 81 83 82 85 84 85 75 68 66 54 45 48 55 55 58 59 58 59 60 61 64 67 65 65 66 67 69 68 69 71 71 75 78 82 84 84 92 93 93 91
99 84 95 88 90 90 87 87 86 92 79 82 69 58 52 53 61 62 63 61 63 65 68 70 68 66 74 76 73 75 73 72 73 75 75 78 81 81 85 86 90 92 89 88
97 98 97 102 101 98 98 98 88 93 101 106 85 70 59 64 62 62 57 63 68 71 73 75 77 81 78 72 79 84 86 84 85 83 84 90 90 86 86 86 88 91 93 92
109 116 108 111 109 112 109 113 106 97 100 104 103 87 92 67 64 68 76 73 77 76 78 82 86 89 82 90 92 93 91 86 89 92 95 100 99 99 97 95 92 92 95 97
120 127 126 125 118 117 117 123 125 121 111 118 121 115 92 93 95 96 94 99 99 90 100 101 103 95 93 94 99 101 98 91 90 91 93 99 104 107 109 109 108 102 103 100
136 142 147 139 136 131 130 126 130 128 126 122 125 124 103 107 106 106 112 107 109 104 106 111 110 106 101 100 98 101 97 100 102 99 101 103 107 110 111 112 112 110 105 102
144 145 149 153 152 147 139 134 128 129 131 129 130 122 118 102 104 105 106 108 105 100 109 111 110 107 111 110 103 103 108 103 101 106 106 105 111 114 115 111 109 105 100 101
152 158 155 142 140 141 147 138 135 138 132 135 128 124 108 108 107 108 111 102 103 105 108 113 118 117 117 115 113 108 107 111 107 108 103 106 106 109 112 111 103 100 101 105
129 136 135 146 137 131 129 131 132 128 127 128 129 129 114 117 119 115 105 101 109 108 112 122 122 119 112 107 103 102 103 106 113 106 102 101 102 110 114 106 104 105 106 107
112 120 121 129 126 132 135 123 125 128 128 129 130 129 127 126 124 119 115 113 117 115 116 117 124 125 119 110 109 106 104 102 102 101 101 104 108 113 109 110 112 110 110 115
112 114 124 120 127 132 120 120 120 120 123 127 129 132 133 131 129 129 122 118 115 117 122 118 124 129 119 119 119 121 117 115 111 111 108 108 108 112 115 116 114 117 118 122
118 116 121 125 118 118 114 111 119 122 117 124 125 129 133 132 133 129 129 126 126 126 123 118 120 119 127 127 128 126 125 122 114 112 111 112 114 116 119 121 120 127 126 130
120 122 125 124 129 123 105 109 113 114 116 118 113 115 118 124 127 119 119 124 129 132 132 123 128 130 131 133 132 138 137 132 127 125 120 123 124 124 125 123 127 131 132 129
119 123 123 123 122 119 116 111 111 117 116 116 114 112 111 117 115 115 114 115 118 120 122 128 131 133 138 128 127 132 131 128 131 131 127 125 123 126 126 127 129 125 120 115
118 115 116 119 121 118 115 115 117 116 117 118 116 110 104 101 106 104 107 108 115 117 118 119 122 123 125 125 121 119 119 122 121 119 120 119 121 122 119 119 114 113 114 112
117 115 117 118 117 115 114 118 123 123 115 115 119 118 111 106 104 100 100 103 107 108 108 112 112 113 115 116 115 113 113 114 113 113 117 118 117 115 113 115 115 116 115 112
113 110 113 112 108 106 109 117 120 118 119 117 116 118 119 112 105 102 103 101 106 111 108 113 109 110 113 116 115 111 110 111 111 110 114 115 115 115 115 115 117 115 113 111
109 112 113 108 105 108 104 109 114 115 116 114 112 112 112 110 105 106 99 100 106 104 106 109 106 103 108 112 111 109 111 112 111 113 114 116 117 116 115 110 109 105 103 103
101 102 107 104 106 106 103 109 111 110 111 111 109 108 105 104 100 101 94 96 99 94 99 97 97 94 98 103 104 102 105 106 107 107 109 109 108 109 104 97 98 96 97 98

GFSCGP_250_spd_006.txt.gz
Wind_Speed
42 42 44 53 46 39 37 37 37 43 48 42 36 30 31 40 46 49 46 46 41 36 35 36 36 38 47 50 51 52 52 53 53 55 57 59 60 59 62 61 60 59 58 57
49 45 54 55 52 48 45 42 38 38 47 43 38 31 34 39 47 52 51 51 45 40 39 38 37 37 39 44 45 47 51 54 56 57 57 57 58 59 59 59 60 60 59 60
55 51 58 59 56 55 51 52 49 43 45 42 41 30 39 40 41 51 57 54 49 45 41 40 38 39 39 40 41 41 42 47 50 52 52 54 55 55 56 58 59 61 60 60
56 63 61 59 60 69 54 65 57 53 50 41 45 26 40 46 44 44 54 58 61 57 52 47 47 44 44 45 47 49 51 51 52 53 54 55 56 57 59 61 63 64 65 65
66 62 64 62 68 70 65 71 69 64 57 50 46 44 34 46 50 49 52 55 61 62 61 59 56 54 53 51 51 54 56 57 57 56 55 56 57 59 63 65 67 68 69 69
58 65 71 73 68 73 80 82 75 70 70 48 55 59 33 49 52 53 52 54 54 60 60 60 63 62 60 59 59 57 59 58 59 58 58 59 62 63 64 67 70 73 74 73
83 79 73 80 86 83 86 86 86 74 74 78 75 71 51 56 58 60 61 61 59 59 61 63 65 65 65 63 63 62 62 60 58 58 60 61 62 63 65 69 73 77 79 78
82 74 84 81 85 89 92 87 92 101 88 74 84 74 62 65 65 60 56 60 68 68 63 62 70 72 72 72 70 71 70 68 66 63 63 64 67 70 74 75 78 81 83 84
100 87 87 87 93 91 93 93 100 107 102 101 86 83 77 78 72 71 72 79 77 77 77 73 73 76 74 77 75 77 74 73 69 72 71 74 76 79 81 84 87 85 88 91
108 116 97 99 99 97 103 103 102 109 116 111 101 105 99 88 84 86 89 81 91 79 86 91 80 85 81 80 87 87 82 78 77 81 81 81 83 90 90 94 95 92 92 92
121 125 109 106 104 110 113 121 121 121 121 124 123 115 101 103 99 98 96 98 98 94 95 100 94 91 89 90 87 89 91 89 84 87 90 90 91 95 96 94 99 103 98 99
125 130 132 118 121 118 122 136 140 137 134 132 136 136 110 104 107 108 100 101 113 103 101 107 108 102 102 103 99 97 98 93 97 94 95 98 102 103 100 99 100 103 103 104
131 137 138 140 134 128 149 148 151 147 154 152 149 146 126 120 112 106 109 108 112 109 110 105 108 111 111 111 109 102 102 101 97 102 103 100 106 105 107 107 106 108 109 111
133 133 138 148 148 144 158 155 149 143 151 154 156 148 130 110 101 97 100 103 105 109 109 107 111 109 112 113 113 109 102 105 104 102 102 103 108 112 109 111 116 118 116 117
147 153 153 154 159 166 163 150 148 146 140 144 139 140 130 117 104 106 106 97 104 110 113 114 116 108 105 103 106 108 108 104 104 106 106 107 114 118 121 118 114 119 120 117
160 163 156 155 149 131 128 126 122 119 113 126 134 136 126 121 117 115 115 105 112 117 115 106 104 104 107 108 106 110 105 100 97 97 97 104 112 118 115 106 100 103 107 106
146 135 134 130 126 127 123 106 102 104 110 112 114 112 121 122 122 119 119 114 112 111 117 104 114 112 107 112 108 106 105 105 102 102 101 99 100 101 100 102 105 104 105 106
120 120 120 116 112 120 114 112 112 99 105 108 110 116 116 116 112 118 122 125 125 123 118 120 108 123 120 99 110 131 129 116 115 110 107 107 110 108 108 114 119 111 110 110
131 131 129 130 126 124 119 125 120 115 115 114 114 113 113 112 106 109 109 106 109 116 123 124 126 128 132 131 133 137 137 134 131 122 117 122 119 115 116 120 118 120 122 124
119 123 128 127 129 122 121 121 124 121 120 120 117 113 106 106 100 107 109 112 111 109 112 112 111 116 121 126 128 126 127 127 126 126 124 117 117 118 123 117 117 125 125 129
113 116 124 126 127 124 119 115 115 119 122 122 122 118 108 100 97 102 103 101 104 111 109 109 107 110 112 114 117 116 115 114 111 112 112 111 111 112 112 109 114 115 114 113
113 116 117 124 126 123 120 123 124 118 116 117 123 119 119 108 104 106 108 101 101 101 99 99 100 101 106 110 113 112 113 111 112 113 112 111 111 110 110 109 109 111 109 108
113 115 113 114 112 115 117 122 120 117 115 117 117 116 110 105 101 105 108 107 106 103 104 103 99 97 102 105 106 108 111 111 111 111 110 107 106 109 109 110 111 110 108 108
109 111 110 109 106 107 109 113 117 114 114 114 112 110 110 108 102 103 102 102 103 106 108 108 107 102 101 103 102 104 107 110 109 109 111 109 109 109 110 108 108 109 109 109
99 100 103 101 100 107 99 101 103 106 106 105 105 105 104 104 102 100 101 100 99 97 103 105 103 99 97 97 97 100 102 102 102 103 108 107 108 108 108 108 106 108 107 106
97 97 102 98 99 100 93 100 99 93 92 93 93 94 96 97 97 98 96 97 99 99 100 102 102 101 102 101 97 100 102 101 102 103 105 104 105 103 103 104 104 103 104 104

GFSCGP_250_spd_009.txt.gz
Wind_Speed
50 44 44 51 48 46 43 40 39 41 47 40 36 29 38 42 50 51 49 53 51 46 45 42 41 39 42 42 41 42 49 59 60 59 59 59 60 60 59 59 60 64 64 64
53 49 52 52 53 51 49 46 42 41 44 41 38 30 33 40 45 55 56 53 54 52 49 47 42 40 39 43 46 45 43 45 51 56 59 60 60 60 64 64 64 62 62 63
46 47 58 56 57 60 58 57 50 42 44 38 35 26 36 44 48 49 55 54 54 54 54 54 53 48 45 45 46 49 46 45 42 45 48 50 54 57 59 59 58 58 59 60
59 66 64 60 56 63 54 66 62 58 51 45 47 27 37 43 48 49 49 52 56 58 57 57 60 60 58 57 53 53 54 52 50 51 51 52 55 55 57 57 58 59 59 60
65 62 64 60 70 68 54 66 66 64 65 62 49 60 38 39 47 50 52 57 58 63 67 64 60 60 65 66 62 61 59 59 60 59 57 58 61 60 60 58 58 59 61 63
68 72 59 71 70 73 77 80 83 79 71 51 64 71 30 49 48 53 52 55 61 61 67 72 73 70 70 69 62 60 64 65 66 65 63 63 63 64 64 63 63 65 66 67
74 78 79 73 78 80 81 85 86 87 90 78 72 63 46 56 61 60 61 62 69 74 65 68 76 80 78 74 70 69 64 70 71 72 72 69 66 66 66 65 67 69 69 69
83 80 87 87 86 87 85 92 94 100 94 90 89 80 71 72 64 67 73 79 85 86 85 82 75 76 83 83 74 70 74 76 70 71 73 74 73 71 71 71 74 74 75 75
98 92 90 97 93 94 96 99 100 112 109 106 96 95 89 83 80 79 77 85 91 91 96 91 87 88 82 86 89 86 89 93 89 88 81 76 76 73 73 76 78 77 79 85
114 106 97 99 103 101 110 108 109 111 116 113 111 107 98 90 90 98 103 90 95 99 102 108 111 103 104 95 100 98 96 94 95 89 94 89 86 81 81 78 80 88 90 91
116 120 109 112 107 110 114 113 115 119 120 124 125 125 104 98 97 101 105 103 112 112 110 112 111 110 110 109 106 106 110 99 92 99 102 99 91 89 91 90 93 96 98 98
118 129 128 124 120 119 123 121 115 126 129 136 139 141 120 115 110 105 110 122 125 117 124 122 125 117 116 117 118 113 112 108 107 103 101 107 104 101 100 102 101 99 106 104
133 132 139 141 130 131 134 131 134 133 137 140 142 141 129 122 124 125 127 131 133 142 144 142 127 113 110 116 118 103 106 112 113 113 104 103 107 107 108 107 107 109 107 109
141 143 150 151 144 138 136 143 140 142 147 145 147 143 140 134 131 124 130 142 149 136 122 113 108 110 99 97 94 94 109 118 121 118 106 104 108 111 111 114 115 114 114 112
148 153 146 152 159 150 152 152 149 147 152 150 149 147 151 148 155 147 130 116 108 113 112 116 112 116 117 96 95 94 94 98 108 110 108 110 114 113 115 113 114 114 117 116
169 169 161 158 152 162 163 159 150 152 153 157 155 160 162 132 125 115 115 115 110 111 116 116 116 113 102 102 105 109 101 104 101 106 113 106 108 111 107 109 115 116 113 120
131 130 134 134 135 144 137 129 141 138 136 134 127 121 123 125 117 111 104 99 94 91 97 102 111 117 120 120 119 119 113 114 113 110 110 104 100 98 98 99 101 109 118 114
119 120 126 126 127 132 114 108 113 118 124 124 126 124 121 121 121 118 112 110 106 106 96 92 96 107 112 114 123 127 126 119 119 117 114 112 114 111 108 104 108 103 112 111
127 128 127 127 123 123 112 112 115 117 121 123 120 119 116 113 112 111 110 104 99 100 100 95 97 99 103 110 111 112 117 128 126 122 121 124 123 120 122 121 117 117 120 126
130 131 132 126 125 122 115 116 119 120 121 118 117 115 113 112 111 110 116 108 105 105 105 98 96 94 97 101 105 103 111 116 117 113 118 127 134 135 130 130 130 127 128 124
117 121 125 127 131 125 119 117 117 122 118 118 118 117 115 112 111 106 113 116 111 109 110 106 101 103 98 96 99 100 104 111 113 114 111 109 111 115 116 119 119 120 119 116
111 114 116 121 124 121 121 121 119 117 111 111 115 115 111 109 107 106 103 104 105 107 108 109 105 105 100 97 98 96 99 104 106 112 110 111 109 108 109 112 115 114 112 111
109 111 111 112 111 112 115 119 114 116 111 110 108 107 107 105 104 102 100 98 100 103 103 107 102 99 99 94 99 100 103 102 103 106 106 106 106 107 108 109 110 107 108 108
104 106 107 107 103 106 108 108 111 111 105 103 103 102 102 100 98 96 96 94 95 97 100 100 101 96 94 95 97 101 100 105 104 103 106 104 102 105 105 108 111 109 107 106
93 101 108 103 99 109 103 102 103 103 102 99 98 98 98 98 96 98 94 94 94 94 96 97 96 95 94 95 95 100 101 105 105 98 102 102 101 103 103 105 106 106 106 106
94 98 104 102 97 104 94 95 101 97 94 91 90 91 91 89 87 91 89 92 94 94 93 93 93 92 90 91 92 98 100 102 103 99 97 98 99 99 100 101 103 103 105 103

GFSCGP_250_spd_012.txt.gz
Wind_Speed
43 42 45 55 53 48 45 42 41 45 47 37 30 26 32 40 43 48 47 47 44 46 46 44 43 41 37 35 37 38 40 43 45 45 48 50 56 61 62 60 60 61 62 61
44 42 52 49 50 51 47 49 47 45 50 44 35 28 31 36 42 44 51 52 52 50 51 52 49 47 46 41 40 42 43 42 43 45 47 48 49 51 55 61 64 65 64 63
54 53 56 54 52 56 58 57 54 49 53 51 46 28 29 37 42 44 46 51 53 53 53 52 51 50 49 51 47 45 46 49 51 49 50 50 49 48 47 49 53 57 58 61
58 68 63 62 64 67 54 69 56 53 49 43 43 28 29 39 50 53 48 46 52 56 57 58 59 56 54 52 53 58 54 51 51 53 56 57 58 57 56 53 52 54 55 58
72 69 73 77 76 71 72 79 67 70 58 46 41 47 46 50 44 52 55 56 57 59 63 60 63 61 62 62 60 57 59 58 58 58 58 58 61 64 65 62 62 61 60 61
81 84 76 77 80 84 78 80 82 73 72 67 58 60 42 49 51 50 53 56 60 62 68 71 71 72 72 73 68 65 60 63 60 60 60 60 63 65 66 69 68 65 65 67
79 88 89 85 86 87 91 91 84 85 83 78 85 80 64 67 63 67 72 70 71 73 74 69 75 80 77 82 81 76 77 69 73 63 62 63 66 66 63 64 69 74 72 71
93 80 91 92 93 94 93 95 98 100 100 96 97 96 72 76 78 77 79 84 91 101 95 81 80 77 82 82 80 86 88 85 82 86 81 75 82 76 80 76 78 79 78 75
100 94 87 94 95 98 100 100 101 106 107 107 100 100 99 97 84 88 97 97 106 101 96 102 90 89 89 85 88 96 87 92 92 91 91 92 96 87 88 87 87 86 85 84
109 108 97 99 102 103 105 107 105 110 118 116 118 107 102 100 93 93 99 103 106 108 111 114 112 101 102 95 96 90 97 94 92 94 101 102 100 97 87 92 89 99 94 88
115 119 107 112 113 108 115 111 116 124 118 128 126 118 96 107 96 105 106 113 112 110 110 117 122 121 113 104 99 98 98 104 102 105 100 102 105 104 101 100 100 102 101 100
122 128 133 124 125 124 124 124 118 130 131 131 136 140 115 110 105 113 113 116 121 122 116 124 119 127 125 115 110 110 112 111 113 117 112 104 113 110 107 110 111 108 109 105
133 137 141 144 133 134 132 132 133 133 137 139 144 149 129 126 123 118 117 114 115 114 116 120 123 128 130 130 125 121 119 119 122 127 119 113 114 117 117 115 115 117 110 116
147 152 150 147 140 140 139 135 131 138 143 144 146 145 139 139 134 128 130 127 129 128 124 127 131 137 135 138 137 128 130 129 128 114 106 109 118 120 123 124 124 124 124 122
157 156 153 159 158 152 145 146 137 135 142 145 144 146 145 147 154 146 144 141 136 141 143 143 138 138 140 135 135 138 126 114 105 101 103 103 100 101 114 112 123 124 118 115
151 149 152 151 153 156 156 148 143 144 137 148 152 145 143 139 128 132 129 126 121 113 110 109 104 97 97 100 103 105 113 115 111 106 106 108 109 106 106 99 103 112 114 112
132 132 128 126 128 132 127 118 124 122 123 132 134 124 118 114 113 114 117 118 120 116 110 110 104 100 101 105 108 106 106 109 112 111 112 112 116 112 109 108 100 100 107 113
122 122 125 123 121 124 114 115 121 126 124 122 124 127 125 120 117 119 118 120 121 119 114 108 108 96 92 91 92 99 105 103 103 104 104 106 108 116 120 118 119 115 117 113
122 124 126 128 122 114 104 107 112 115 115 115 116 115 115 114 109 111 111 111 113 114 114 113 111 104 97 91 88 91 98 109 108 107 108 107 108 111 114 113 114 118 116 116
118 120 125 123 123 118 112 113 117 116 113 115 114 112 112 113 112 109 116 116 115 111 109 109 111 107 102 99 94 94 93 96 104 109 113 115 114 115 116 115 111 113 114 114
107 113 114 111 116 113 110 108 111 114 115 112 112 112 113 113 112 108 110 112 113 112 113 111 108 106 106 104 99 97 95 99 102 102 101 108 111 113 115 118 114 113 114 113
101 104 105 111 112 107 108 110 110 112 112 110 107 109 110 108 106 107 105 104 106 109 110 109 108 106 104 102 102 99 98 97 101 103 103 107 110 112 111 116 118 116 116 116
98 97 103 105 102 106 109 107 106 108 106 101 101 100 102 101 99 98 97 95 96 97 100 102 102 103 103 103 102 99 99 95 98 102 102 102 105 108 113 115 112 118 120 119
89 93 96 100 90 99 100 99 100 102 101 98 98 98 99 99 98 96 94 92 92 93 94 96 96 96 95 101 98 96 94 93 92 93 96 98 99 102 105 110 115 119 118 116
83 91 97 91 85 99 96 93 98 100 100 99 98 97 96 96 94 94 91 92 91 91 92 94 94 92 91 94 93 96 94 90 88 87 90 91 94 99 103 105 110 117 118 117
89 88 92 89 90 97 92 93 99 100 98 97 95 92 92 92 90 91 88 89 89 88 88 88 89 90 90 90 89 92 92 88 84 81 82 84 87 90 98 102 107 111 113 109

GFSCGP_250_spd_015.txt.gz
Wind_Speed
41 36 38 44 42 38 36 35 33 35 35 28 34 34 35 37 41 45 44 43 43 43 47 43 45 42 38 36 35 36 37 35 34 34 36 38 40 40 43 44 45 45 50 57
47 41 48 47 49 44 40 40 40 37 37 36 37 34 37 43 48 48 50 49 44 48 50 48 45 47 45 39 37 36 35 37 37 38 40 41 43 43 43 44 45 46 47 47
58 56 56 54 49 53 58 55 48 41 49 48 28 24 27 38 46 55 50 46 48 48 56 55 52 45 44 52 49 45 42 43 42 41 42 44 46 48 48 49 49 48 49 50
65 68 62 59 65 69 61 70 66 70 57 43 49 18 31 39 44 51 54 52 53 57 57 59 59 60 58 54 52 55 56 54 48 45 45 43 47 50 53 54 54 50 49 54
68 69 72 73 70 71 73 72 70 64 67 53 46 51 34 34 40 44 55 65 67 66 66 63 63 59 59 59 57 50 55 60 58 59 54 48 47 51 51 50 54 56 55 56
70 64 57 71 82 87 79 74 80 82 81 63 62 65 37 51 55 61 69 69 68 76 73 72 70 70 70 72 68 70 72 58 64 61 60 63 61 61 58 61 60 55 56 59
84 80 73 83 76 82 86 86 91 80 83 80 76 70 60 70 67 71 77 79 78 82 80 78 84 82 80 76 79 79 80 76 77 67 65 62 68 64 64 60 66 68 65 62
83 80 87 86 85 85 88 95 96 100 95 88 92 85 76 83 83 85 88 88 88 97 101 94 89 80 89 92 84 85 84 86 86 86 77 74 70 71 76 75 71 74 73 76
96 91 89 93 92 91 92 95 101 105 107 111 101 95 82 88 98 100 101 99 105 108 111 103 98 103 100 97 93 88 90 93 90 90 93 90 88 77 83 85 85 82 81 84
105 107 102 104 103 104 102 104 108 109 119 125 118 108 100 95 101 107 114 110 106 106 108 112 106 106 99 98 103 98 94 100 100 98 100 104 104 100 96 86 92 91 90 92
116 114 110 119 114 116 119 122 121 126 129 132 130 124 105 109 109 110 113 117 113 107 111 113 111 112 110 104 104 103 107 98 101 109 105 106 110 110 104 95 87 95 97 98
124 132 135 126 129 130 127 131 126 129 129 129 134 137 114 117 112 115 110 115 117 114 111 112 115 114 111 107 111 113 105 114 106 109 113 115 107 112 109 106 106 103 103 104
141 140 144 147 139 140 144 144 142 140 141 138 137 138 129 127 122 124 120 117 118 120 120 119 121 118 119 115 113 115 121 114 118 118 119 120 116 116 119 115 120 120 117 116
157 156 155 154 150 143 149 147 144 138 138 133 139 136 130 140 139 135 130 124 126 126 124 124 128 125 124 124 119 117 127 134 131 128 129 129 129 127 128 125 124 127 128 125
137 140 138 136 135 143 142 136 132 132 138 141 143 148 149 152 138 136 139 141 138 132 132 131 131 129 131 134 135 132 134 145 148 148 137 138 139 138 138 136 134 137 128 122
133 134 132 130 124 126 124 116 112 119 123 130 132 127 127 125 121 120 119 122 125 122 123 121 121 133 137 139 138 145 115 114 121 126 132 123 120 120 118 118 114 113 110 108
126 122 122 124 125 126 121 105 114 115 114 119 121 122 119 117 115 114 111 109 108 109 112 113 112 112 111 106 116 119 117 110 110 112 115 112 115 113 112 109 106 112 110 110
120 119 121 121 121 121 109 109 115 117 113 114 118 121 119 115 112 109 109 108 106 102 102 104 105 106 109 112 113 114 115 117 116 115 112 109 112 118 122 122 117 115 120 116
115 116 116 117 111 108 100 107 108 107 107 111 113 115 116 116 111 109 112 107 107 105 104 102 103 101 100 102 103 103 105 106 106 106 104 105 110 112 115 118 120 116 115 120
102 104 110 108 106 104 97 99 99 102 102 105 106 106 106 107 107 103 108 107 105 104 103 105 104 103 103 103 103 102 102 103 106 106 104 104 107 111 113 114 116 117 115 117
98 102 103 104 108 103 100 100 100 102 104 103 104 103 103 105 105 102 104 106 107 106 107 107 104 103 104 105 106 106 107 108 106 104 104 105 106 108 110 112 114 116 117 117
93 95 97 101 101 101 101 102 100 101 101 102 101 101 103 104 103 103 102 102 103 104 105 107 105 104 104 105 104 102 102 104 101 98 98 98 99 102 106 109 111 116 117 118
86 87 89 89 94 97 96 95 95 97 95 92 96 95 96 95 94 94 93 93 94 95 96 99 101 99 99 102 101 97 100 100 99 97 95 94 92 93 96 102 105 111 117 121
81 82 83 84 87 89 89 90 92 93 93 91 93 91 91 91 91 91 90 91 92 94 96 96 96 96 93 98 98 97 96 96 94 94 94 93 90 90 92 93 97 102 108 115
77 84 86 80 84 93 86 88 90 91 93 91 91 92 92 91 90 91 91 94 94 92 93 93 91 90 88 90 91 92 92 89 87 87 87 88 88 89 90 91 92 95 99 108
81 83 85 79 85 92 81 88 90 90 90 90 90 91 92 92 91 91 88 87 86 85 86 86 85 84 84 85 85 87 87 83 82 81 82 81 82 84 85 87 89 92 95 101

GFSCGP_250_spd_018.txt.gz
Wind_Speed
42 40 43 48 44 42 41 40 31 35 31 23 25 27 28 33 41 45 46 50 52 52 49 45 42 39 42 37 33 37 38 37 38 37 39 40 40 40 38 38 38 39 38 37
54 49 51 50 51 47 43 42 44 38 37 35 33 30 39 39 43 43 45 47 52 55 56 53 46 44 41 42 43 40 37 35 38 40 40 42 44 46 46 48 47 45 43 43
52 53 59 61 57 56 55 54 51 43 44 46 46 48 43 48 51 49 51 55 56 57 56 54 49 47 43 44 44 45 45 45 45 47 48 47 48 50 52 53 55 53 51 52
53 58 57 59 61 63 59 64 60 58 56 52 48 50 46 49 56 56 60 60 57 56 55 55 52 51 52 53 46 49 49 51 51 52 51 50 49 54 54 49 52 56 57 59
61 61 53 55 61 67 67 61 56 54 55 52 62 60 56 57 59 60 59 60 54 55 62 59 58 58 61 62 64 67 67 55 53 55 53 55 56 56 61 63 62 60 58 57
75 65 66 67 73 69 63 71 74 72 74 67 73 60 60 72 69 70 70 73 78 71 75 70 65 72 66 67 65 74 75 73 66 66 63 69 65 63 60 63 67 67 67 63
70 71 78 83 81 83 84 83 84 83 87 78 76 76 74 77 80 81 86 87 86 85 77 88 82 82 85 76 79 82 80 81 77 76 79 75 75 68 72 75 73 70 68 65
84 77 82 84 91 93 89 90 91 97 93 90 90 85 83 83 84 87 90 92 95 98 93 97 96 96 96 90 84 86 88 90 89 88 88 86 77 81 75 78 85 85 84 81
92 81 93 91 93 95 98 100 99 104 103 107 94 95 95 92 96 100 104 105 108 106 104 105 106 106 101 100 102 96 92 95 95 95 92 97 98 95 93 89 87 92 95 91
105 105 105 104 103 101 108 106 107 109 114 114 108 104 104 104 105 109 111 113 113 115 113 108 114 114 110 112 107 105 103 98 102 103 103 105 102 101 107 104 100 100 102 103
117 117 118 117 115 108 114 118 117 118 121 123 124 117 101 106 116 118 117 122 122 125 125 119 113 118 119 118 116 111 110 110 115 109 108 110 113 113 108 108 114 110 107 111
125 131 130 120 124 123 121 121 122 128 126 128 129 127 130 128 129 124 121 118 117 122 124 124 125 124 123 127 127 115 114 121 116 121 125 116 116 119 116 115 107 112 115 111
120 124 128 131 128 123 126 128 130 132 133 137 140 143 143 145 138 131 128 123 122 123 125 126 125 128 124 128 130 132 123 121 128 126 129 131 127 123 120 122 117 115 109 118
127 133 127 144 148 147 144 137 140 141 140 139 141 138 132 131 133 125 122 125 129 130 130 130 132 129 133 132 132 135 131 133 133 136 132 134 137 131 126 126 126 121 120 114
140 140 137 136 130 128 123 121 118 116 122 132 123 121 116 120 120 124 121 114 111 111 120 129 139 135 134 138 139 141 138 140 143 148 139 134 133 137 135 129 125 127 127 126
124 127 128 128 122 120 125 111 107 114 116 117 122 117 120 114 114 115 115 117 117 113 107 105 110 115 123 131 141 148 153 152 148 141 145 142 143 144 143 140 137 136 134 135
119 121 122 119 119 119 115 112 117 116 111 118 119 117 116 114 113 114 115 116 114 113 110 108 106 106 109 112 115 114 116 120 121 121 127 136 144 145 145 149 151 150 145 141
121 123 126 120 120 115 105 108 108 107 102 106 112 111 110 110 108 107 111 108 108 110 109 109 108 107 106 106 106 106 108 111 114 119 123 124 125 125 127 130 136 134 133 132
120 120 120 114 110 106 95 99 99 101 96 102 104 105 106 107 103 103 110 107 105 107 105 104 104 102 102 103 102 101 103 107 110 113 115 117 119 122 124 128 130 135 135 130
107 107 109 108 109 104 97 99 99 102 101 103 103 104 106 107 105 101 107 106 105 106 106 105 105 103 103 103 103 101 100 100 103 106 107 111 116 118 120 120 119 123 127 129
101 103 103 106 107 102 99 99 99 100 99 99 98 99 101 101 100 99 101 104 105 105 105 105 103 102 103 103 103 102 102 104 104 103 104 105 107 110 112 115 119 119 119 119
95 96 97 99 100 97 96 92 93 95 92 91 91 91 94 94 94 95 95 96 98 99 100 100 97 96 97 99 97 96 97 99 97 96 98 100 103 106 107 109 110 114 117 119
94 92 90 90 94 93 91 91 88 90 85 85 86 87 87 86 87 87 89 92 93 94 94 96 94 93 95 97 97 94 95 95 94 94 95 97 99 100 101 99 100 103 106 109
89 89 90 95 91 88 89 89 87 87 86 86 87 86 87 86 87 87 89 90 90 92 93 94 93 93 92 95 96 96 94 92 90 90 92 93 94 96 97 96 95 95 96 96
86 86 92 89 92 89 86 88 88 86 87 85 85 86 86 86 85 85 87 89 90 92 94 92 91 91 91 91 92 92 89 85 83 83 84 86 86 87 88 88 88 87 88 91
86 86 85 86 88 88 79 88 87 84 84 84 83 82 82 82 83 84 85 87 88 89 89 87 86 84 82 83 83 85 85 83 81 80 80 80 80 82 82 82 84 85 82 85

GFSCGP_250_spd_021.txt.gz
Wind_Speed
47 46 44 46 44 49 44 39 37 41 46 41 38 33 34 35 41 47 48 47 48 47 44 40 37 43 44 44 46 48 42 38 38 39 41 40 41 40 41 42 43 43 43 45
48 47 48 53 54 53 48 44 47 46 47 44 44 42 48 44 44 48 53 53 56 56 49 47 46 44 43 48 50 50 49 42 40 39 39 38 40 44 46 46 48 49 48 48
54 51 51 54 54 55 53 52 53 55 51 49 47 46 50 54 53 56 59 57 57 58 57 58 57 52 51 49 48 50 52 45 43 41 44 45 48 50 50 53 54 56 55 54
59 57 56 57 60 63 61 60 52 49 49 53 53 51 53 57 61 60 59 61 64 63 63 61 63 59 53 50 50 53 54 53 53 52 50 52 51 54 51 53 55 57 59 59
63 58 60 58 59 59 60 60 60 59 60 54 50 52 54 57 59 59 58 63 67 69 70 77 69 67 71 68 66 59 56 56 57 58 63 66 67 62 65 63 63 62 61 63
64 62 70 79 78 75 77 73 78 70 68 60 68 68 56 62 68 65 74 75 76 73 78 76 78 80 78 74 75 76 73 67 71 75 73 71 74 71 72 69 71 71 70 69
78 79 81 80 83 87 92 95 89 85 87 78 85 78 76 79 81 80 81 84 86 89 85 86 89 88 84 84 81 88 84 84 85 85 85 86 82 81 80 81 82 84 77 78
88 86 91 89 91 93 94 97 102 103 95 95 96 94 85 89 88 89 94 92 93 96 97 98 100 97 95 93 92 91 90 92 92 93 96 96 94 91 90 88 89 88 88 83
98 99 97 96 98 102 102 103 106 113 109 110 97 99 98 101 99 97 102 101 101 102 105 102 105 105 107 107 101 100 99 99 100 99 97 101 103 100 98 98 97 93 94 96
109 106 105 109 109 109 112 111 114 114 119 117 114 108 110 107 108 110 106 109 113 111 108 110 113 113 114 115 113 111 109 107 108 107 106 107 107 108 108 109 108 105 103 104
118 121 112 120 118 122 126 123 122 122 122 121 121 117 114 118 117 116 119 114 118 121 121 118 117 120 122 122 123 122 121 120 119 119 116 115 114 116 114 115 115 116 115 115
129 135 132 125 119 122 116 114 118 122 122 125 129 129 123 122 125 119 127 134 123 126 131 131 129 126 128 131 129 130 130 129 134 131 130 129 126 123 122 125 124 121 120 122
134 142 144 137 130 119 121 117 119 119 126 129 132 128 134 135 134 129 129 134 137 134 134 136 137 135 135 137 138 137 141 145 147 142 138 135 137 137 135 132 131 131 131 134
136 130 130 127 120 116 122 121 122 126 126 132 138 138 139 133 145 141 135 123 114 114 119 131 141 146 148 146 151 153 153 156 152 144 143 140 140 140 140 141 140 139 137 138
128 124 123 118 114 114 116 116 113 116 123 135 132 134 124 128 137 127 119 113 115 115 111 111 112 112 121 124 125 128 138 143 140 142 147 148 145 144 145 146 144 143 144 145
127 122 120 116 117 121 118 104 110 117 116 121 124 123 119 123 122 120 117 118 119 114 113 112 109 109 112 113 114 113 117 124 132 134 137 137 139 144 147 148 146 148 149 146
119 121 121 116 117 121 111 111 117 116 114 118 120 118 113 116 114 111 110 112 112 111 110 108 108 108 108 108 107 110 113 116 120 125 131 132 131 131 134 138 143 146 145 144
119 121 123 119 119 119 109 112 116 114 109 111 114 110 108 106 105 103 106 107 105 106 107 107 106 105 104 104 104 104 106 108 109 112 119 123 126 129 131 131 132 132 136 143
121 120 122 119 117 113 102 110 109 109 100 106 106 106 105 105 103 101 110 104 106 107 107 108 108 105 105 106 104 102 101 101 101 103 104 108 114 118 122 124 126 129 131 131
119 119 118 113 112 106 101 103 105 109 100 107 105 105 102 97 95 95 102 102 102 103 103 103 102 100 101 103 102 100 100 99 100 99 100 103 106 108 110 112 115 120 125 128
107 107 107 106 108 104 100 104 107 105 101 100 99 99 97 93 92 91 95 95 95 96 97 96 95 93 96 97 96 96 96 97 97 96 96 97 101 102 104 106 110 113 116 118
102 101 103 105 103 105 102 102 101 102 95 94 95 92 92 89 89 90 89 91 92 93 92 91 91 92 94 94 91 91 92 92 91 90 91 92 94 96 99 100 101 104 106 109
105 100 101 99 102 101 98 95 96 95 91 91 93 91 90 88 87 88 89 90 90 91 91 91 90 91 95 95 94 91 92 90 88 88 90 91 91 92 93 93 94 96 99 99
100 97 98 100 99 99 98 98 94 91 88 88 89 88 87 86 86 86 87 87 87 87 87 88 89 89 91 93 92 92 89 87 88 88 91 91 90 90 91 91 91 92 94 96
98 100 102 95 95 98 93 92 91 91 89 87 86 84 82 81 81 82 84 84 84 84 85 84 85 85 87 86 90 90 88 89 89 88 87 87 86 85 85 84 84 85 87 89
98 97 99 93 91 90 84 89 92 90 86 84 84 81 81 79 79 78 79 79 79 80 81 82 85 86 86 87 86 85 84 82 81 81 81 80 79 78 78 78 80 81 80 81

GFSCGP_250_spd_024.txt.gz
Wind_Speed
40 44 47 49 52 48 49 50 49 44 50 48 45 43 41 44 48 52 52 49 44 43 50 47 46 47 46 46 49 47 48 50 51 51 48 46 46 47 43 42 43 42 44 45
48 48 49 48 53 54 54 49 50 51 53 50 47 45 50 51 51 54 49 52 58 58 56 54 52 53 53 52 50 50 50 51 55 56 56 53 54 51 50 48 45 46 46 47
51 51 56 55 56 57 56 54 54 54 54 52 52 48 51 54 54 54 49 60 63 62 64 63 62 62 59 55 51 55 56 54 52 54 52 59 56 52 49 49 51 51 52 52
54 54 54 57 58 60 61 61 58 53 49 45 49 49 52 55 58 56 58 61 62 65 69 70 68 67 64 63 60 62 57 64 57 49 58 52 58 60 55 53 56 54 55 56
58 55 60 56 57 49 54 58 61 65 63 59 56 51 51 57 57 59 64 64 64 66 64 66 69 71 70 74 67 67 70 71 65 67 62 63 54 60 67 66 67 65 68 70
59 57 61 65 64 69 65 67 67 69 70 69 73 66 58 66 74 79 67 71 75 72 72 77 75 78 80 78 81 85 81 79 77 78 78 73 74 68 71 72 75 75 74 70
67 69 62 65 70 77 79 79 76 77 81 74 79 79 79 85 86 87 89 87 83 88 94 82 88 90 88 88 86 86 90 90 90 90 89 83 82 84 82 81 81 83 87 84
78 77 83 80 83 80 83 87 92 91 88 90 92 91 91 100 103 100 99 100 108 111 103 105 99 101 100 94 96 95 95 97 97 99 97 95 95 94 96 94 92 92 92 93
85 88 93 94 87 90 90 96 102 106 103 107 98 103 106 108 110 113 111 108 114 110 109 116 115 112 109 108 105 105 105 106 107 106 108 106 105 105 106 106 105 103 101 101
92 88 94 96 96 103 111 110 113 116 117 118 117 116 112 116 122 117 113 118 117 116 115 113 117 115 115 117 116 115 116 115 116 116 114 114 115 115 115 113 114 113 114 112
104 104 104 105 107 114 119 117 120 125 129 134 137 127 121 117 116 113 115 116 113 114 120 120 118 123 126 125 126 124 123 124 126 124 125 124 124 124 123 125 125 123 123 122
111 114 116 115 118 126 128 128 131 131 131 133 135 132 122 117 117 117 115 116 119 119 117 122 126 127 130 131 131 133 129 135 132 136 141 129 135 137 134 132 133 134 135 132
114 124 130 124 123 130 131 132 133 137 140 130 126 124 126 121 121 121 115 114 113 116 119 116 117 121 128 129 136 132 129 130 141 139 144 145 143 137 145 144 143 140 142 141
131 136 139 135 128 135 140 140 136 135 127 123 118 122 113 117 120 120 116 114 111 110 114 117 118 117 118 116 120 125 127 131 131 136 135 135 145 151 146 150 151 149 145 147
144 141 139 134 135 136 135 128 120 121 123 130 119 121 114 117 119 118 119 114 112 111 110 110 112 113 112 114 118 120 121 119 122 126 128 136 137 134 137 142 147 149 148 154
139 136 136 137 136 137 128 114 120 118 117 120 124 119 117 115 115 116 114 114 116 114 112 113 110 110 110 112 112 112 114 115 118 123 127 129 130 131 132 132 130 134 145 153
140 139 141 135 136 134 118 119 121 121 121 119 120 119 117 116 114 112 113 114 110 108 108 108 107 103 103 103 104 103 105 108 110 111 113 116 118 121 125 127 129 133 133 135
140 142 143 130 130 125 118 117 125 122 113 114 119 116 114 110 107 106 107 106 102 103 105 105 106 104 102 99 99 100 102 103 106 107 108 110 110 110 111 114 119 124 128 131
138 138 139 132 125 123 114 118 120 118 106 106 110 106 103 100 97 98 106 103 102 101 101 100 100 100 99 95 94 94 94 95 98 100 102 103 104 105 107 109 110 112 115 118
134 134 132 129 128 118 110 111 113 114 97 102 102 103 102 101 98 97 103 104 102 99 99 99 98 97 96 93 91 90 90 89 89 90 93 95 98 99 100 101 103 106 110 110
128 125 124 122 122 112 107 109 108 106 102 96 99 99 99 98 97 95 96 97 98 97 95 96 95 94 94 92 90 89 88 88 87 87 87 89 91 91 92 92 95 97 100 102
117 114 112 113 110 108 104 103 102 103 100 98 96 96 97 95 93 92 91 92 93 92 91 91 91 92 93 91 90 90 91 89 88 88 89 89 90 91 92 92 92 92 93 94
110 107 104 101 103 102 104 102 99 98 95 94 96 94 94 91 89 88 87 86 86 87 87 86 86 87 88 88 88 87 89 88 87 87 88 88 89 90 90 90 91 91 92 92
100 94 99 102 103 103 102 100 100 98 96 94 93 90 89 88 86 85 84 86 86 84 81 80 80 81 84 84 85 85 83 84 84 83 85 86 86 87 87 87 87 88 90 91
94 94 99 97 102 104 97 99 98 99 98 95 93 92 89 87 85 84 83 83 82 81 80 80 80 80 82 82 85 82 82 82 82 84 86 87 87 87 86 85 84 83 83 83
94 95 99 96 101 103 93 91 92 95 92 92 93 92 90 87 85 83 80 79 79 79 79 80 80 81 81 83 83 82 83 82 80 80 79 80 79 79 78 78 80 79 78 79

GFSCGP_250_spd_027.txt.gz
Wind_Speed
44 44 46 44 43 44 47 48 47 51 51 48 50 49 51 49 53 50 48 51 53 54 53 51 52 50 48 50 49 50 49 49 50 52 54 55 55 57 57 54 52 50 50 52
46 48 53 52 51 52 52 49 49 51 55 56 56 49 53 56 53 52 52 55 59 62 59 57 57 57 56 59 59 57 55 56 56 54 58 56 56 55 59 60 60 58 55 56
52 53 56 57 56 58 58 57 56 57 57 56 57 50 53 59 52 52 56 60 61 61 61 59 60 61 63 64 65 66 66 66 64 62 58 59 61 61 58 57 56 58 62 62
52 55 55 58 58 59 55 57 54 53 57 61 57 53 57 57 52 55 58 57 60 61 63 62 61 64 64 67 67 68 71 74 72 72 67 66 65 62 60 62 59 60 59 63
49 51 51 54 56 54 55 58 55 61 56 47 55 51 56 61 66 64 65 57 60 64 68 70 70 74 68 74 69 71 71 72 74 75 74 72 72 73 71 66 72 69 66 67
52 55 55 56 56 62 63 61 60 59 58 58 62 55 59 62 67 71 69 72 72 72 77 78 80 84 85 84 84 84 82 83 84 83 84 84 86 84 81 81 77 81 80 76
59 64 61 61 61 64 65 63 65 67 67 62 67 69 71 71 74 75 75 79 83 87 88 87 92 94 100 100 95 96 98 97 96 96 94 94 93 93 92 90 89 86 86 87
71 71 71 72 75 72 71 73 74 76 72 70 78 77 83 86 89 90 92 98 100 100 101 103 106 109 115 114 113 111 109 110 106 105 106 102 103 102 101 102 100 97 95 95
77 77 79 80 81 82 80 81 83 87 87 87 87 92 101 107 106 108 108 107 107 113 119 113 116 120 115 113 117 116 115 115 115 114 112 113 113 113 112 109 107 108 109 106
79 82 80 83 84 86 89 90 91 94 99 102 98 98 110 122 119 118 119 119 120 124 128 128 125 125 118 120 118 116 120 117 121 120 119 121 122 121 121 120 119 115 113 115
89 89 87 88 88 91 93 97 101 99 102 110 115 110 117 125 126 128 122 123 127 127 127 124 125 121 124 121 126 125 125 123 124 128 124 126 133 130 132 129 129 129 127 122
95 100 97 96 95 97 100 100 100 106 108 122 129 122 128 127 127 124 124 126 123 120 119 118 116 116 117 116 115 120 122 122 124 122 125 134 137 141 137 137 138 137 136 136
102 104 102 101 102 104 103 99 105 123 126 133 137 134 134 127 129 128 129 126 121 116 114 111 110 112 112 112 111 110 111 113 116 117 118 122 128 132 139 142 146 145 147 148
112 112 109 110 112 110 110 106 122 132 141 142 141 142 132 132 134 131 128 123 119 114 111 111 111 112 112 111 111 111 111 112 114 115 117 117 119 122 128 130 137 144 150 154
121 120 119 114 111 123 128 126 135 144 143 145 134 137 130 136 135 131 126 122 120 118 114 111 110 111 109 109 109 110 110 110 110 111 113 116 118 120 121 123 127 129 133 139
127 128 127 125 131 135 133 141 140 132 136 138 139 138 141 133 130 126 123 123 120 115 113 111 110 107 104 103 103 104 104 103 103 104 106 109 113 116 118 119 121 123 126 129
128 128 132 129 141 151 145 130 133 135 135 139 142 143 137 134 128 124 121 118 114 111 109 107 105 102 99 98 97 98 99 99 99 100 102 104 105 106 109 111 114 116 118 119
132 139 150 155 150 144 133 130 135 137 139 139 138 136 130 123 120 115 112 108 107 106 103 101 101 101 102 99 95 95 95 96 96 97 98 100 102 103 105 106 108 109 112 115
152 151 152 145 139 139 135 140 141 136 127 127 130 124 118 110 105 104 105 102 101 100 98 98 99 100 100 96 92 89 88 88 89 90 92 94 94 95 96 98 100 102 103 104
147 143 145 145 146 143 136 135 134 133 121 123 115 111 109 105 101 96 103 102 101 100 98 99 99 97 96 95 93 91 90 90 90 90 92 92 93 92 93 94 95 96 96 97
142 146 144 137 138 135 129 125 124 120 112 104 103 103 102 100 100 97 98 99 100 99 98 97 96 95 92 89 88 87 87 87 87 88 90 90 90 92 93 93 94 94 94 94
135 134 131 128 125 118 115 114 114 113 104 100 96 96 99 100 98 98 96 96 96 96 94 93 91 90 89 87 86 86 86 86 86 85 85 84 86 87 88 89 91 92 92 93
133 128 121 116 113 113 109 109 109 106 102 99 95 94 95 96 97 98 97 93 89 87 87 88 88 88 88 86 86 86 85 84 83 83 82 83 82 84 83 82 84 86 88 88
118 112 110 107 106 106 108 107 106 104 101 96 96 97 96 95 94 93 90 87 84 83 84 85 85 84 84 83 83 82 83 83 83 82 84 84 83 82 82 81 81 82 84 83
105 105 104 103 103 108 104 105 105 102 103 101 99 99 97 97 93 90 86 84 83 82 80 81 82 82 83 82 83 82 83 82 81 81 81 82 81 81 81 82 81 81 80 80
102 100 104 101 103 107 101 99 98 100 100 101 101 97 96 95 93 91 88 87 84 83 82 80 79 77 77 77 78 77 78 77 75 76 76 77 75 75 75 75 77 77 76 76

GFSCGP_250_spd_030.txt.gz
Wind_Speed
43 44 45 45 44 45 46 46 45 48 49 46 48 45 51 52 51 51 54 55 55 54 54 54 54 53 52 51 51 51 51 52 53 54 56 55 57 57 57 59 60 60 61 61
45 46 53 52 51 50 51 51 52 51 54 52 51 51 54 55 55 59 61 60 58 57 56 55 55 56 57 57 59 59 58 59 60 59 60 61 62 63 63 60 63 65 64 63
52 54 56 55 57 58 59 57 57 58 60 59 57 56 59 61 60 58 61 60 61 64 63 64 63 60 61 59 57 58 61 63 66 72 73 72 73 72 71 69 68 67 69 68
53 59 59 60 62 61 60 57 56 61 60 60 62 61 59 61 60 61 61 61 65 64 63 63 65 62 62 61 63 66 66 68 67 67 69 74 74 76 80 82 79 77 75 74
57 61 63 63 60 57 57 54 52 55 57 56 57 55 57 64 63 62 62 65 61 67 69 72 70 71 69 68 70 71 74 75 75 77 80 82 80 78 82 81 84 85 83 84
58 62 64 64 64 58 57 56 60 63 59 50 58 66 62 63 66 73 66 67 77 74 69 73 77 80 79 81 80 83 82 84 86 87 88 89 93 92 90 93 89 85 89 87
62 62 60 63 64 66 67 71 72 68 70 69 69 60 60 62 68 72 75 78 81 76 80 86 84 86 86 91 93 94 94 96 97 99 97 99 101 102 104 104 102 104 99 95
64 64 68 68 70 71 70 69 71 71 69 68 67 67 65 67 73 77 77 77 83 94 90 89 93 97 98 98 98 102 105 109 109 109 112 113 111 111 112 111 113 108 109 111
62 65 64 69 70 71 74 78 79 80 78 75 70 66 67 75 80 85 86 89 92 93 95 97 106 106 110 111 111 112 112 115 119 122 126 123 120 121 123 117 119 121 118 117
65 70 71 77 77 77 81 82 83 86 85 85 79 80 83 86 91 91 91 100 105 105 108 116 125 121 119 119 116 114 121 121 122 128 130 130 136 133 128 132 128 126 130 128
71 77 78 78 84 88 85 87 89 90 94 96 91 88 95 101 99 97 98 108 111 108 114 131 132 121 118 117 117 118 123 123 125 125 125 131 136 134 138 142 139 137 136 139
85 87 85 91 93 94 94 94 102 99 101 105 108 94 108 113 114 110 109 116 122 121 140 128 122 119 120 122 123 124 122 119 118 119 118 118 118 121 122 121 128 127 129 137
92 94 97 97 101 104 105 103 105 109 118 115 121 114 116 119 121 121 124 124 137 136 126 123 122 123 126 127 125 122 120 118 116 115 115 116 117 119 119 119 121 121 123 125
98 101 102 106 112 112 112 115 114 118 123 120 120 122 122 123 124 125 134 143 133 130 127 127 126 128 127 123 120 118 116 114 112 112 111 111 111 113 115 117 118 119 121 121
105 106 109 113 115 121 124 121 122 130 128 130 128 134 125 129 141 142 133 134 132 131 131 130 127 122 120 118 115 111 106 103 101 101 101 102 104 105 107 110 112 114 117 118
113 117 118 121 119 122 129 125 125 131 133 139 137 138 141 149 139 137 135 136 137 134 130 127 128 123 118 112 107 104 102 99 97 95 95 96 96 98 100 101 103 105 106 108
123 124 128 125 130 137 136 130 136 139 136 142 147 147 138 141 138 139 142 135 131 132 131 125 119 113 107 104 101 98 96 96 96 97 97 98 98 97 97 97 98 101 102 104
129 129 138 143 146 145 143 139 139 146 148 149 142 143 141 141 139 131 135 130 126 121 115 110 107 104 101 99 98 97 95 93 92 92 93 93 93 93 93 93 93 94 95 97
136 140 147 148 149 149 145 151 147 155 145 142 146 145 140 135 130 127 125 116 112 109 106 104 101 100 98 97 96 94 92 91 90 90 91 90 90 90 90 92 93 93 94 95
147 147 154 156 147 150 148 159 156 154 147 145 139 136 130 126 119 114 108 105 104 105 104 103 101 100 97 95 95 94 93 91 90 91 92 91 90 89 89 89 91 92 92 93
148 155 157 157 160 160 152 158 156 147 146 135 131 128 123 113 108 105 105 104 105 104 103 102 100 99 98 96 95 92 90 88 88 88 88 89 90 90 90 89 91 89 89 88
155 161 162 164 163 164 157 157 151 143 137 130 125 117 109 105 104 105 104 105 104 103 103 101 100 100 98 95 93 90 87 86 86 86 85 85 84 83 84 87 86 85 83 82
161 160 160 163 163 155 152 142 139 134 128 122 115 108 105 104 103 104 104 102 100 100 98 97 95 93 92 91 89 87 87 86 86 85 85 85 84 82 83 82 82 81 79 80
158 154 155 150 148 144 138 131 127 123 119 115 111 106 104 103 103 102 99 98 96 96 93 91 89 88 87 86 85 85 84 84 85 85 85 83 81 81 81 79 77 76 76 77
151 147 144 135 133 130 123 120 119 117 116 113 111 109 105 103 100 100 97 97 93 92 90 88 85 84 83 83 83 83 83 82 81 80 79 78 77 77 76 75 75 72 72 70
136 132 128 125 124 121 116 114 114 115 113 112 112 109 107 105 101 98 96 94 92 90 89 86 85 84 82 82 81 79 78 77 77 78 76 74 74 74 72 72 73 72 68 69

GFSCGP_250_spd_033.txt.gz
Wind_Speed
41 40 44 44 42 43 45 44 44 47 49 46 49 46 50 51 51 52 54 54 55 56 55 55 53 52 53 55 55 55 55 57 58 57 57 58 58 60 61 63 63 64 64 65
44 44 48 47 47 47 49 49 52 52 53 51 53 54 56 57 57 57 58 60 60 61 60 61 58 57 56 56 56 53 54 57 59 63 62 59 63 66 66 68 70 70 70 72
48 47 53 54 54 55 56 57 57 57 59 58 59 59 61 62 62 63 64 63 63 64 65 67 66 65 64 62 62 59 60 60 61 62 62 65 66 67 71 76 77 76 77 78
52 56 55 57 57 56 56 57 56 56 57 60 60 58 58 60 61 63 64 68 71 73 69 66 67 67 68 71 69 69 68 69 69 68 68 70 70 74 75 76 79 80 79 80
60 58 58 55 53 53 55 57 57 58 58 54 56 57 47 53 59 65 65 67 71 76 78 75 72 67 68 71 73 72 74 71 69 74 75 74 75 78 82 83 83 86 87 88
60 58 57 58 56 59 62 59 58 59 59 55 59 62 62 66 69 71 73 75 74 77 81 82 81 79 76 77 80 78 78 80 81 87 86 85 86 89 91 91 92 93 96 97
61 60 60 59 64 65 63 61 57 57 63 61 62 66 62 65 68 69 70 73 73 66 74 78 86 85 89 89 89 89 89 96 96 98 100 102 101 100 103 105 102 103 101 103
60 61 62 63 67 68 65 65 68 67 66 60 59 58 64 72 72 73 73 72 70 74 77 74 79 85 92 98 98 100 101 105 105 106 113 114 111 110 117 122 120 118 119 117
66 65 68 68 69 70 70 67 74 74 69 70 67 63 65 68 73 76 79 79 79 78 82 84 85 86 90 93 93 99 105 109 109 115 113 119 123 122 117 123 124 126 129 133
79 80 79 72 73 73 72 73 73 78 81 78 74 71 75 75 84 83 85 88 88 91 93 95 96 96 99 104 107 107 114 119 118 122 125 118 121 119 123 124 124 128 134 133
85 85 83 87 83 87 83 73 80 85 82 88 84 71 79 91 97 100 98 100 108 113 115 114 117 120 120 116 116 121 124 122 119 119 118 117 119 124 122 123 125 129 134 136
88 88 86 92 92 94 81 82 84 87 90 90 94 81 92 101 106 100 109 116 122 126 129 126 127 121 128 129 130 128 125 126 123 124 122 121 120 120 121 122 123 124 125 124
92 93 89 93 97 102 101 93 95 94 95 95 102 98 105 107 105 112 119 122 126 129 132 135 133 137 137 129 126 126 127 127 122 120 117 116 116 116 115 113 113 114 114 116
94 94 96 93 96 99 103 97 99 99 99 105 106 111 115 118 121 124 127 132 134 129 131 137 146 136 130 128 131 130 126 123 117 110 104 101 101 100 100 100 101 102 103 104
91 86 91 93 89 95 103 102 100 102 109 116 114 116 117 129 134 136 137 141 139 141 145 152 148 139 138 136 128 122 117 112 106 100 97 95 94 93 93 93 94 95 96 98
103 98 96 99 102 106 107 104 106 112 115 120 126 121 125 135 138 139 144 146 150 153 152 150 144 145 135 128 123 115 108 103 99 96 93 91 90 90 90 91 92 93 94 96
111 111 109 109 110 115 111 106 115 119 119 127 126 128 139 142 146 146 152 155 153 155 149 148 147 135 127 120 114 109 105 103 101 99 96 95 95 95 95 95 94 94 93 94
117 116 118 118 119 120 114 116 122 127 130 137 136 145 148 151 146 150 155 159 156 154 150 146 138 129 120 112 109 106 103 101 99 98 97 96 94 93 93 93 94 93 92 92
119 118 124 126 126 123 117 125 126 133 135 141 150 153 155 154 154 154 165 160 151 152 143 132 129 116 110 107 106 104 103 102 100 98 96 95 93 92 91 90 89 89 89 90
117 125 127 130 134 133 131 133 138 145 147 149 155 156 156 157 157 160 154 150 146 140 129 121 115 111 107 106 106 104 103 102 99 97 96 94 92 90 89 88 87 86 85 85
128 130 135 136 139 138 139 145 148 157 159 154 156 160 164 164 159 155 144 137 132 128 118 114 110 109 108 105 105 104 101 100 98 97 94 91 89 88 88 87 86 85 84 84
138 140 142 145 146 149 151 159 163 167 162 162 161 164 161 154 146 138 130 129 122 119 115 112 110 108 106 104 102 101 99 97 96 95 91 88 86 85 84 84 82 81 80 81
147 147 151 152 155 157 165 168 164 165 164 167 170 164 155 143 134 128 123 116 116 116 114 110 107 105 102 101 100 98 95 93 91 90 87 85 84 83 83 82 81 78 77 73
156 154 155 162 162 165 169 170 168 168 167 166 158 146 138 132 128 119 118 114 114 111 107 105 103 101 98 95 93 92 90 88 87 86 84 82 82 82 80 77 74 73 71 72
161 163 164 164 164 170 165 168 167 163 152 143 137 133 126 121 117 116 112 110 109 105 102 99 97 96 95 91 88 86 86 85 84 83 81 80 79 77 76 76 75 72 69 69
160 158 163 168 171 167 161 152 146 139 136 129 126 122 121 121 117 113 109 107 104 100 98 95 93 92 91 88 86 85 84 83 81 80 79 78 77 76 75 74 76 74 69 70

GFSCGP_250_spd_036.txt.gz
Wind_Speed
42 42 46 41 40 39 41 43 42 45 43 41 43 43 47 48 49 51 53 54 55 55 56 55 54 56 57 58 58 60 60 60 61 61 61 59 58 60 61 61 60 61 64 66
43 42 46 44 42 42 43 43 47 46 48 48 48 49 49 51 52 55 56 56 56 56 59 60 61 62 62 63 64 65 66 67 67 67 66 67 67 65 66 67 68 65 66 67
45 44 48 48 48 47 46 47 49 50 51 49 47 49 52 54 56 56 55 56 57 56 60 62 62 64 65 67 70 71 70 71 71 71 72 71 71 70 70 72 74 75 75 74
47 50 52 54 54 54 50 55 53 54 52 50 50 47 52 57 58 56 58 58 57 59 62 64 67 71 71 70 73 72 73 74 73 74 74 79 80 81 81 81 82 82 84 84
56 57 59 59 59 59 58 58 57 55 54 52 52 56 53 58 64 66 63 62 65 63 63 65 68 71 73 77 71 71 73 76 77 78 82 81 81 87 89 87 87 87 89 92
61 60 61 64 64 64 62 59 56 57 57 55 60 60 54 55 59 62 68 71 72 70 70 73 73 74 71 70 73 70 76 77 78 78 79 86 85 87 90 93 96 94 95 101
65 64 64 65 66 65 61 60 61 59 60 58 61 61 58 61 63 65 69 71 71 73 72 70 73 73 78 80 81 80 79 80 84 81 88 91 96 96 93 102 103 105 108 108
68 69 69 68 68 68 65 64 63 64 63 66 61 59 63 67 72 74 76 77 76 80 80 79 77 76 79 82 83 83 84 85 86 96 88 95 99 100 103 108 115 116 119 122
72 73 73 72 70 68 67 68 75 74 74 72 70 63 63 71 76 80 82 84 85 82 82 80 77 81 84 81 87 87 85 90 94 99 100 104 103 108 107 112 111 114 123 127
76 76 76 74 72 71 74 77 77 81 81 76 76 77 80 82 78 79 86 84 83 82 83 80 83 87 83 87 92 97 102 105 109 110 111 115 116 114 110 112 116 118 123 128
79 82 81 81 77 80 79 78 80 85 86 87 84 79 83 94 97 101 97 91 86 87 88 89 94 98 101 102 110 118 121 122 125 127 131 122 116 111 110 113 115 115 120 121
76 76 74 79 79 79 82 79 78 80 84 90 96 84 86 96 97 99 103 100 93 92 95 100 104 109 113 120 125 127 127 129 135 135 129 120 118 120 118 114 113 112 113 112
83 84 83 81 81 83 84 85 90 92 89 88 93 79 94 92 89 91 93 92 96 102 104 106 113 118 125 130 133 135 140 144 141 138 129 124 122 115 111 107 105 103 102 101
89 89 86 88 91 92 93 89 92 92 94 100 95 92 91 97 96 98 96 103 97 105 114 116 121 125 131 139 140 141 148 143 132 128 125 118 111 105 99 98 97 96 96 95
93 92 97 96 95 98 94 96 91 89 93 95 93 97 99 103 105 106 108 108 111 115 117 127 129 135 147 151 150 147 152 136 129 124 116 108 102 98 97 96 95 93 92 92
102 96 92 95 92 94 100 97 99 99 103 100 104 101 107 108 113 116 118 119 119 122 127 134 141 148 153 154 155 154 147 133 122 117 112 105 101 98 97 96 95 94 93 92
97 97 100 103 101 104 102 93 100 100 107 117 117 114 117 115 117 120 126 129 130 134 137 143 150 156 157 158 158 148 135 124 119 114 109 106 102 101 100 99 97 95 94 93
112 114 115 114 115 116 106 106 109 114 116 120 124 120 120 125 126 125 130 133 138 144 149 153 156 159 160 156 144 136 126 122 115 112 109 107 104 102 100 98 96 93 91 91
113 118 122 124 124 126 113 115 118 124 119 122 127 120 122 128 133 137 141 142 146 155 155 162 161 161 157 148 137 128 123 116 113 112 109 106 102 99 97 95 94 92 90 89
118 122 125 126 131 132 122 122 127 126 121 125 133 136 136 138 141 142 147 151 155 159 161 161 160 154 145 132 128 120 115 114 112 109 106 102 99 97 96 94 92 90 89 88
120 122 125 128 134 133 131 127 126 129 133 139 139 138 142 146 149 150 158 158 161 163 162 159 148 134 133 127 120 116 113 111 108 106 104 101 99 96 94 92 90 88 86 85
120 128 126 125 133 133 133 139 140 140 145 148 149 149 153 155 156 157 158 160 164 162 153 142 136 129 123 119 116 114 112 109 107 104 101 98 96 93 91 89 87 86 84 83
133 129 134 135 135 143 148 152 149 154 159 157 156 158 160 160 160 160 166 165 157 145 136 131 127 119 118 116 114 112 108 103 101 100 97 95 92 89 87 85 84 83 82 81
138 138 141 143 147 153 156 161 165 163 160 162 163 161 162 164 166 164 165 145 136 134 129 122 117 116 114 113 110 107 103 99 97 95 91 90 87 84 83 82 82 81 81 80
141 138 142 150 155 164 165 166 166 166 166 165 165 165 165 165 156 147 136 132 129 123 119 117 116 113 110 107 103 101 98 96 94 92 90 87 84 83 83 81 81 80 78 74
148 150 152 157 164 170 173 173 173 170 170 165 165 160 150 140 136 133 127 124 120 118 116 115 113 110 106 101 97 95 94 94 92 89 86 84 83 82 81 79 79 77 75 74

GFSCGP_250_spd_039.txt.gz
Wind_Speed
36 36 43 38 35 36 36 36 36 37 32 30 33 36 39 40 40 39 41 44 45 46 46 46 46 47 48 49 51 54 55 57 60 61 63 64 66 66 66 67 70 69 70 72
40 39 42 39 37 36 37 37 39 40 36 33 36 39 42 43 44 44 46 46 48 49 49 49 50 51 51 50 54 56 57 59 62 65 66 66 68 69 72 74 75 77 78 77
44 41 44 41 40 40 40 39 44 42 42 39 40 41 46 47 47 47 46 49 52 54 54 55 57 59 57 61 62 62 63 65 67 69 72 73 74 74 75 78 79 80 81 82
44 44 44 45 42 46 42 47 47 46 46 45 47 43 49 49 50 50 52 56 58 58 62 63 65 63 63 66 70 70 72 69 69 72 70 72 70 74 77 80 84 85 88 90
50 48 50 49 53 53 49 54 55 53 49 47 50 50 45 52 54 56 57 59 60 62 63 62 63 64 67 70 64 66 68 68 74 76 75 76 80 76 74 71 74 79 84 84
57 55 54 56 58 59 58 57 57 56 54 50 56 52 45 52 57 59 61 61 60 62 64 66 65 69 70 69 70 76 78 75 77 75 74 75 83 81 85 84 84 84 88 93
64 63 60 58 60 61 61 61 58 57 58 56 55 56 55 56 57 61 62 61 62 64 69 73 78 80 82 81 84 92 90 86 85 80 82 86 80 84 84 88 93 94 96 99
64 64 62 60 58 59 62 63 64 64 62 60 59 57 57 59 64 67 67 68 70 67 70 74 75 75 78 79 85 77 83 81 81 81 79 84 82 86 98 103 103 105 101 102
62 62 64 63 63 63 63 65 70 69 68 65 62 57 62 67 68 71 72 74 73 76 82 86 88 86 88 95 94 94 97 90 82 84 91 96 99 108 111 114 112 113 113 111
65 65 63 65 68 68 70 73 74 74 74 73 70 68 70 71 75 78 80 82 80 84 88 91 90 93 90 88 85 85 85 100 95 95 97 106 112 117 122 119 121 118 113 112
71 71 69 71 71 74 74 74 74 78 77 76 71 71 73 74 73 77 80 83 86 85 85 89 92 97 89 89 94 93 90 91 97 99 107 114 123 127 127 129 123 117 112 110
73 77 76 74 75 76 77 75 78 78 76 76 75 72 76 80 82 84 84 88 88 91 93 96 99 98 95 102 100 96 98 104 112 117 122 125 132 132 129 129 127 116 112 109
76 77 76 75 74 71 76 77 77 81 83 81 82 74 80 86 91 93 94 94 97 91 90 87 88 94 92 96 103 101 107 111 120 126 130 135 139 138 137 124 117 111 107 106
81 84 81 82 83 80 80 82 85 88 88 89 85 89 91 94 97 99 99 99 97 95 97 98 96 98 104 108 112 118 123 127 132 137 139 140 144 140 126 115 109 108 106 102
86 87 89 89 89 89 87 87 86 87 88 87 87 90 91 94 97 97 98 99 97 94 91 98 100 108 116 123 127 130 135 138 143 144 146 145 145 127 117 114 109 105 100 99
90 92 93 95 93 94 90 87 86 94 97 101 101 92 96 99 98 100 101 95 105 107 108 114 115 119 125 130 137 140 144 145 146 150 146 146 129 117 113 110 105 103 102 99
96 95 96 97 96 99 100 82 87 92 93 94 98 98 100 105 103 101 99 106 112 114 116 123 127 131 134 141 145 147 149 151 148 149 145 127 121 116 114 108 107 105 102 98
94 96 98 101 102 99 91 93 96 99 99 103 103 103 107 105 108 108 118 119 122 125 126 128 135 139 140 149 150 153 153 153 151 138 128 123 121 114 110 108 105 101 98 95
100 100 106 106 101 106 101 98 104 107 106 108 109 113 113 114 115 119 124 125 127 127 128 137 138 144 152 152 156 156 155 148 134 130 128 123 116 112 109 105 101 98 96 93
102 106 112 109 111 112 105 105 108 112 113 116 116 118 122 123 127 126 128 130 133 135 141 147 151 156 159 160 159 161 151 136 132 127 124 118 115 111 106 101 98 95 93 91
107 110 109 112 112 114 106 111 112 119 120 120 118 124 128 126 128 133 139 136 140 146 149 154 159 163 165 163 162 152 141 134 129 123 118 114 110 106 102 99 96 94 91 89
109 105 107 113 113 113 111 118 119 121 125 122 128 130 131 138 140 142 145 149 150 152 156 161 164 164 162 161 147 138 134 128 121 118 114 110 106 102 99 97 95 92 89 86
109 112 108 116 123 122 122 120 125 129 132 136 138 138 145 144 142 142 148 154 156 159 163 165 161 158 149 144 139 133 126 120 117 112 109 105 102 100 97 95 94 92 88 82
112 117 125 123 123 128 132 138 142 142 146 144 144 146 147 147 148 152 155 157 164 166 166 163 156 144 138 134 131 124 118 115 111 107 104 101 99 96 94 93 92 90 86 83
126 125 127 133 139 143 147 145 148 150 149 149 150 152 153 153 154 156 160 167 166 163 153 146 140 134 130 124 121 117 113 109 105 103 102 98 96 93 92 91 89 86 84 81
132 136 141 142 146 150 151 154 155 155 154 156 158 156 157 159 160 165 162 158 147 144 139 134 131 127 124 121 117 112 108 104 101 97 94 92 91 90 88 86 85 83 82 81

GFSCGP_250_spd_042.txt.gz
Wind_Speed
35 33 38 33 30 31 33 34 34 29 24 22 25 27 26 27 29 32 34 36 38 38 39 38 39 41 44 46 48 49 52 52 50 55 57 59 60 63 64 66 67 67 67 70
40 38 39 36 34 32 34 34 36 32 24 23 27 30 31 33 34 37 38 40 40 41 41 41 44 48 48 50 52 54 55 57 59 62 64 66 68 71 72 74 73 74 76 74
42 40 43 41 38 37 36 34 38 35 32 27 29 30 37 38 40 42 43 45 45 45 45 44 46 49 52 53 54 55 57 57 61 65 69 70 68 68 75 75 78 77 77 78
45 47 49 49 43 43 36 39 38 39 37 34 37 30 42 46 45 48 48 49 49 50 51 50 51 54 53 55 57 58 59 62 65 67 69 70 74 76 78 82 80 81 81 75
52 53 55 52 53 48 42 44 44 45 45 41 40 45 40 51 52 52 53 53 52 54 53 52 54 55 55 56 60 61 63 65 70 73 77 76 80 80 77 78 80 83 86 91
58 57 56 56 56 56 52 50 51 51 48 42 48 53 37 53 55 55 56 57 59 60 59 57 59 59 60 60 61 64 65 69 73 76 81 84 85 89 91 89 87 82 81 79
57 58 58 56 58 58 58 58 57 53 53 50 53 54 42 50 57 59 59 61 64 65 62 62 65 64 64 65 66 70 73 78 82 88 90 90 90 87 90 82 88 90 94 96
52 51 56 55 58 60 60 61 61 59 54 54 54 50 51 57 58 61 62 63 65 67 68 68 65 68 68 74 76 81 85 87 87 90 90 89 94 90 92 96 94 95 87 93
54 50 50 53 55 57 56 55 62 60 58 57 55 56 58 60 64 67 69 68 69 72 72 70 72 77 79 78 79 84 87 89 92 94 94 92 95 97 97 98 95 100 106 112
60 56 54 54 57 56 57 61 63 62 62 62 59 62 63 65 68 70 72 74 76 76 77 77 77 75 78 81 86 85 89 93 90 89 91 93 89 97 99 103 102 107 111 116
66 63 59 60 60 63 61 61 65 67 66 68 68 66 66 67 69 71 74 76 75 75 76 78 80 80 85 87 91 96 98 94 98 102 100 103 96 99 99 104 111 119 124 122
70 70 65 62 64 67 67 65 68 69 70 72 71 62 65 69 71 74 77 78 79 79 79 80 84 88 91 95 97 101 103 101 99 98 99 103 106 105 110 118 123 127 131 132
75 76 73 69 65 65 66 68 70 74 75 72 76 68 75 73 75 80 84 85 86 88 89 90 91 94 97 98 101 104 94 101 110 104 110 109 111 120 124 126 131 137 136 127
80 81 78 74 75 76 74 75 77 81 79 76 75 77 80 80 83 87 90 90 91 90 91 95 98 97 102 95 102 107 109 113 107 106 114 115 119 128 129 135 139 136 128 119
83 83 84 82 83 83 82 81 82 83 80 87 79 82 82 85 88 91 93 95 96 98 101 105 106 100 101 108 109 117 104 112 118 121 123 129 134 138 137 142 137 133 119 112
86 85 90 89 86 88 88 87 84 88 89 91 91 88 89 97 100 99 100 96 98 101 98 88 90 102 101 105 108 113 112 118 128 128 135 136 138 142 145 140 131 124 116 111
90 88 89 89 91 94 98 83 91 91 91 93 93 88 95 94 95 98 102 100 96 99 87 94 104 105 109 116 121 122 126 132 136 138 141 145 146 149 144 132 127 120 115 109
90 91 95 94 93 100 92 93 93 92 90 89 91 94 99 94 93 95 94 95 98 102 103 107 111 115 117 124 131 132 136 141 142 145 148 150 151 148 138 131 126 119 113 110
92 93 96 96 97 97 94 86 88 91 88 92 94 94 100 104 100 103 107 106 108 107 110 115 117 124 127 131 138 141 142 145 149 151 152 157 151 145 137 129 123 115 113 111
96 98 102 106 105 102 92 92 93 97 96 95 98 102 102 100 101 106 112 113 116 115 115 118 126 135 135 141 145 146 148 154 155 157 159 155 153 137 128 125 120 117 112 108
106 103 106 103 102 103 97 99 100 103 102 107 104 105 104 101 103 107 111 117 117 119 121 129 135 141 145 147 149 153 157 159 161 162 158 150 138 130 128 122 118 115 108 103
107 104 103 104 110 109 105 104 106 109 104 104 106 107 108 106 110 109 118 123 120 129 135 141 147 147 149 152 154 157 158 164 163 152 142 137 131 127 122 118 114 108 103 99
107 106 109 114 116 112 107 111 113 113 108 109 108 108 110 114 120 128 131 131 135 141 146 147 149 150 153 152 155 159 164 158 143 142 134 130 125 121 118 113 107 103 99 96
119 118 116 115 113 113 114 118 120 117 115 113 115 119 122 120 128 131 135 140 143 147 148 148 149 151 153 158 159 163 151 142 134 133 131 125 121 116 111 106 104 100 98 95
125 125 119 119 118 121 122 123 125 119 120 124 132 130 134 141 139 140 142 143 145 148 150 152 154 156 161 162 160 148 138 135 132 128 126 120 114 110 105 100 99 98 96 92
121 125 129 129 129 129 130 130 133 135 134 134 138 143 142 139 145 149 146 148 152 152 152 155 158 161 159 152 145 136 131 129 127 124 118 113 108 103 99 97 96 94 92 89

GFSCGP_250_spd_045.txt.gz
Wind_Speed
35 33 39 41 35 31 34 34 35 37 32 28 29 31 29 27 27 27 28 29 28 30 33 34 35 36 36 36 36 36 38 41 44 46 47 49 51 52 56 58 60 62 63 63
44 38 45 39 39 37 37 36 37 37 34 30 30 30 31 28 31 29 30 31 31 33 36 39 39 39 40 42 42 42 43 46 49 49 50 51 53 56 59 61 63 64 67 70
48 46 49 47 44 41 42 38 41 37 34 32 33 30 33 32 35 32 34 35 35 36 38 41 43 44 44 46 48 48 48 51 51 52 54 56 58 61 62 66 71 74 74 76
49 51 54 52 49 51 45 43 44 41 38 36 33 28 32 38 40 38 39 39 39 39 41 42 45 47 50 52 53 55 53 55 53 55 57 60 65 68 70 70 75 78 81 85
50 51 55 57 57 55 53 50 51 48 43 40 36 35 36 43 46 48 45 45 45 44 45 46 48 51 54 57 59 58 60 60 59 62 63 68 70 71 74 77 80 83 89 90
56 54 58 57 58 59 57 57 58 55 49 39 45 45 34 43 54 52 53 52 50 49 50 52 52 54 58 61 62 63 62 62 64 65 68 70 72 76 80 85 88 91 91 91
63 58 54 56 56 55 55 59 60 56 54 49 51 51 43 48 54 56 56 55 54 54 55 56 58 59 60 60 61 64 67 68 67 69 73 77 80 85 86 90 87 88 92 94
60 57 55 53 57 56 53 56 58 59 58 55 53 50 48 55 54 55 56 56 57 59 60 61 64 65 66 67 69 71 72 69 72 77 80 82 87 89 93 93 96 98 93 96
66 62 60 58 56 58 52 50 60 59 57 56 53 53 51 53 57 57 57 60 63 65 67 69 69 69 70 72 73 74 75 76 77 80 84 88 90 96 94 103 101 102 107 103
71 68 65 60 61 59 54 54 57 58 56 57 52 50 52 56 58 59 60 64 68 70 72 71 70 72 73 75 77 78 77 78 81 86 92 95 97 99 104 108 105 108 108 106
76 74 70 67 63 65 64 60 63 65 60 59 56 53 57 58 59 61 65 68 72 74 73 73 74 73 72 73 77 82 86 88 92 96 99 101 103 107 110 110 110 110 113 112
72 78 76 73 70 71 68 67 68 67 66 68 67 58 62 62 64 65 69 72 74 75 74 75 76 77 79 83 83 85 88 92 95 99 101 106 109 112 110 110 118 121 116 118
75 77 79 78 73 71 72 75 73 74 74 66 74 60 65 66 69 72 75 76 78 80 80 81 80 82 86 88 91 93 96 99 102 106 110 110 109 116 116 123 110 107 111 121
86 88 84 80 82 81 78 77 78 79 77 69 71 69 73 73 73 75 80 83 84 83 85 85 83 84 87 91 96 100 104 106 107 103 112 114 114 115 106 109 117 121 123 130
86 87 87 83 82 82 80 79 81 82 74 84 69 79 81 81 81 83 84 86 89 91 91 92 95 96 98 97 96 102 106 105 104 112 110 107 110 112 117 120 128 129 131 131
90 88 91 86 86 89 89 84 83 81 79 82 79 82 89 87 88 89 88 90 91 94 97 100 101 98 98 99 94 91 92 95 100 99 103 110 121 128 129 130 136 130 133 136
95 95 95 90 92 95 99 77 87 83 81 85 87 80 89 92 89 90 93 95 96 95 94 93 93 91 93 96 95 97 100 99 107 112 118 123 128 135 134 139 138 138 142 142
97 96 96 97 99 104 82 87 87 89 87 90 90 88 91 93 97 91 95 92 93 95 90 92 93 95 93 95 102 104 107 113 119 121 127 133 135 139 142 145 145 146 144 140
95 96 97 96 98 97 88 88 91 93 87 90 90 92 93 93 97 97 93 94 96 97 98 99 99 100 103 104 107 113 117 122 133 134 135 140 145 146 149 150 152 150 143 136
96 100 100 96 98 98 87 94 94 97 95 92 94 95 98 103 100 95 96 96 96 96 100 102 103 105 109 111 113 120 122 132 136 140 142 148 150 150 152 154 151 143 135 128
97 97 100 101 103 100 97 103 105 105 98 96 97 102 103 102 98 100 103 102 101 104 108 104 109 110 112 113 121 126 132 137 142 142 147 151 152 153 156 155 143 134 129 128
95 98 101 105 109 110 108 102 105 104 104 106 110 106 104 96 100 106 107 107 107 106 110 114 114 115 119 126 133 135 139 145 145 148 149 149 153 155 157 143 136 132 130 126
106 108 110 112 117 116 109 109 108 109 113 117 116 113 104 105 111 112 112 111 112 114 114 116 119 125 132 136 136 140 144 147 150 152 152 154 157 152 143 136 131 129 127 125
113 113 114 117 115 117 114 108 112 121 125 124 121 116 116 117 118 120 116 117 116 116 125 129 131 132 140 142 143 147 147 152 153 153 159 160 153 140 135 135 130 128 122 118
119 123 123 124 125 126 128 131 130 129 130 123 119 117 120 121 124 126 121 121 127 130 132 133 135 141 144 144 145 148 151 151 155 160 160 146 139 137 130 130 128 121 116 112
131 133 135 138 134 135 133 134 133 125 124 126 123 120 123 127 131 134 129 134 135 137 140 139 144 147 147 149 152 149 152 156 159 153 140 139 133 130 128 123 120 117 113 108

GFSCGP_250_spd_048.txt.gz
Wind_Speed
40 35 41 43 38 37 35 36 38 41 33 35 30 30 30 34 35 36 32 30 32 31 29 29 27 28 30 31 31 33 35 37 39 39 42 43 45 47 49 52 52 53 57 59
42 40 46 43 42 41 40 39 40 41 34 38 37 33 35 33 40 36 35 34 33 33 30 30 29 30 31 34 37 39 40 42 44 45 45 47 50 51 52 54 56 59 61 64
45 48 49 50 49 46 47 44 44 42 39 36 37 29 36 36 35 39 38 35 35 35 33 34 35 34 34 37 39 40 43 46 48 51 54 54 56 56 56 58 61 62 64 69
54 57 52 54 51 54 50 52 49 48 43 38 38 25 32 38 40 37 45 39 37 38 38 38 39 40 40 40 40 42 44 48 53 57 59 59 60 59 60 62 64 67 71 74
54 55 54 55 57 57 53 56 54 53 49 40 39 33 28 41 39 43 48 44 42 44 44 44 43 42 44 43 44 45 47 51 53 55 58 60 62 62 64 68 74 74 75 79
58 59 57 57 59 62 55 56 54 52 50 42 49 49 30 43 46 49 49 48 44 47 47 48 48 47 47 48 48 50 53 56 57 59 62 65 67 67 72 76 76 78 80 83
61 59 57 59 60 60 60 56 57 55 54 49 50 49 42 46 51 55 55 53 51 51 51 51 50 50 51 52 53 55 58 60 63 65 66 69 74 75 72 73 77 81 87 91
65 64 62 61 64 66 61 60 60 59 57 53 53 48 47 50 57 57 56 56 55 55 55 54 53 54 55 57 58 60 63 64 65 68 70 74 73 72 74 81 88 89 91 95
74 73 68 65 67 69 63 62 66 63 58 54 48 45 47 50 58 58 57 58 59 58 56 56 58 60 61 61 63 66 67 68 69 72 74 75 76 78 83 87 93 96 100 102
78 74 69 66 68 67 64 63 67 65 62 58 49 46 45 48 58 58 58 57 58 59 59 59 62 62 63 65 68 70 71 73 75 75 75 77 81 85 91 96 101 102 103 105
77 74 70 71 66 68 67 62 66 68 64 62 56 50 52 51 55 59 61 62 63 66 66 66 65 65 67 69 70 72 73 75 77 78 79 83 89 93 97 100 102 105 109 112
78 79 74 71 68 65 64 65 65 69 70 68 67 49 59 59 59 63 64 66 67 67 67 66 65 68 70 72 75 78 80 84 85 85 86 88 91 95 98 102 107 111 116 118
82 83 80 75 72 69 69 71 69 71 74 67 69 53 62 68 65 66 68 69 70 71 70 70 71 71 74 77 80 81 83 85 91 95 97 100 103 104 102 104 98 98 101 110
89 88 82 77 78 79 76 78 78 76 72 72 68 68 70 72 70 71 72 72 72 74 77 78 78 78 78 80 84 85 88 91 96 101 103 105 108 110 111 113 111 113 112 111
89 88 87 83 83 86 82 78 81 83 76 82 67 73 74 75 76 75 75 75 77 77 79 82 84 84 85 87 86 89 93 97 99 100 102 100 100 97 98 99 101 98 111 113
94 95 93 88 91 90 93 87 83 81 79 80 77 71 79 83 81 80 81 81 83 85 83 83 84 85 85 88 90 95 92 92 93 95 93 92 94 96 100 101 105 116 120 122
101 100 100 95 98 99 103 89 94 89 82 80 83 73 86 87 86 86 86 86 86 87 87 87 87 87 86 90 93 89 90 92 92 94 95 96 100 101 106 109 117 125 127 129
106 107 104 99 101 105 90 90 90 90 88 85 81 82 88 91 91 91 88 89 88 89 88 89 92 90 95 99 96 95 93 94 99 101 102 103 105 109 113 117 123 130 132 135
99 94 95 98 100 98 91 89 92 95 87 93 91 83 84 89 94 90 92 93 92 92 93 92 91 95 97 100 97 97 100 105 104 106 109 111 113 116 121 126 131 136 139 140
104 100 97 96 99 101 91 96 96 98 92 91 91 89 92 92 94 94 97 97 96 100 99 99 97 102 102 104 106 103 111 107 110 115 117 117 121 126 130 133 138 143 147 145
106 105 104 106 107 105 100 100 99 104 95 93 90 96 98 94 96 98 99 100 102 102 102 105 103 105 111 113 109 113 114 114 118 122 123 125 130 133 137 139 143 146 150 151
109 109 110 115 117 118 109 107 111 101 97 96 99 98 96 96 102 104 103 106 107 110 106 108 113 117 117 117 114 116 118 120 125 130 128 131 135 139 140 143 147 151 153 154
123 122 120 121 119 114 113 109 107 110 104 99 99 97 95 99 102 107 111 113 116 116 108 114 122 125 124 119 120 120 122 127 133 130 132 138 139 141 145 146 150 152 160 155
122 120 121 123 119 117 115 114 106 108 103 106 108 103 105 107 111 114 116 119 121 115 121 130 130 125 121 123 125 127 130 134 137 137 140 141 146 147 150 152 153 157 161 145
125 123 120 119 117 115 113 115 115 111 112 111 111 111 110 116 119 118 118 122 124 129 129 124 130 126 128 126 129 133 134 140 143 145 145 150 152 157 157 156 163 157 143 135
128 126 128 127 124 122 119 118 119 118 118 116 119 122 122 123 124 127 129 133 132 130 129 133 133 132 130 135 138 139 143 145 147 148 151 157 157 159 163 163 155 136 136 134

GFSCGP_250_spd_051.txt.gz
Wind_Speed
39 36 43 47 41 41 40 37 37 39 33 32 34 32 32 33 35 37 37 37 37 39 40 37 37 36 37 36 37 36 35 35 34 34 34 35 35 36 38 43 46 48 53 54
45 44 51 48 48 45 44 42 39 39 37 32 34 31 33 33 38 39 38 42 41 40 42 40 39 37 36 36 35 36 37 37 36 36 36 37 38 42 46 48 50 53 55 57
51 51 53 52 53 49 50 48 47 43 42 35 33 25 30 35 36 41 43 43 44 43 43 42 40 39 39 38 38 40 41 39 39 39 40 41 43 45 47 50 52 54 57 61
51 54 56 57 55 57 53 53 50 49 43 39 36 24 31 40 36 37 43 41 40 41 42 41 40 41 41 42 43 42 43 43 42 43 43 44 46 50 53 56 57 60 62 65
56 57 60 59 60 62 55 57 55 50 45 38 38 32 31 42 44 46 43 43 40 41 43 44 44 45 46 47 47 46 47 47 48 48 47 48 52 55 57 60 63 64 66 70
61 59 61 62 61 63 60 60 59 52 46 37 44 41 23 43 48 53 51 48 45 46 47 45 45 47 46 48 49 50 50 50 51 53 54 54 55 58 61 62 64 67 70 74
64 65 64 64 62 63 64 65 61 55 50 44 50 45 38 45 51 55 56 54 52 52 53 52 52 52 51 51 52 52 52 52 54 55 57 58 60 63 65 67 69 69 70 72
71 68 67 64 66 69 69 66 63 61 55 48 49 46 46 46 50 54 56 54 55 56 56 56 55 55 55 55 55 55 56 59 60 61 61 63 67 68 70 72 67 65 68 76
73 69 68 67 68 70 66 64 71 66 58 52 49 46 46 46 51 54 60 57 54 56 57 57 56 57 58 58 58 58 60 61 62 64 65 66 67 69 71 74 76 79 82 85
80 77 73 72 70 68 67 68 69 67 60 59 53 50 46 48 50 53 57 58 56 54 54 54 55 57 58 58 60 61 63 64 65 65 66 68 72 76 78 78 79 80 83 87
81 79 74 76 74 74 73 70 70 68 64 62 59 50 49 50 54 55 56 62 62 61 60 60 60 60 61 62 64 65 65 64 65 67 69 71 74 77 80 83 86 90 94 98
83 82 76 73 75 75 74 74 72 71 70 69 63 43 53 56 57 61 61 62 66 66 64 63 63 64 64 64 65 66 68 70 72 73 74 76 78 82 84 86 90 95 99 101
86 86 83 78 73 74 74 74 76 79 78 69 70 48 57 62 62 65 64 63 64 67 66 66 65 66 67 70 71 69 71 74 75 77 78 80 82 84 87 91 95 98 101 101
95 93 85 81 81 81 82 80 77 78 74 71 69 62 59 62 66 69 69 68 68 69 70 70 70 71 71 69 70 73 75 78 80 82 83 83 85 87 91 95 95 96 95 95
97 96 93 87 86 86 85 83 86 85 74 83 62 70 67 69 72 74 72 71 70 70 70 71 72 73 73 76 79 82 83 83 83 83 84 87 89 93 95 93 97 100 99 99
100 99 101 97 94 96 92 91 86 84 79 84 77 71 73 79 81 79 78 77 76 74 73 74 76 79 81 83 84 85 86 87 85 87 90 91 91 92 94 96 104 104 103 102
104 102 101 96 98 101 103 85 94 95 91 87 84 72 84 84 86 85 84 81 77 75 74 78 81 81 83 85 87 89 90 92 93 93 96 99 99 99 100 105 108 107 108 109
107 107 107 104 107 112 95 94 98 100 96 97 93 85 90 90 88 86 84 83 82 86 85 82 83 83 82 86 88 92 94 96 97 98 100 104 103 103 107 113 117 115 111 114
116 111 111 112 111 110 102 99 100 104 98 101 100 95 98 94 96 86 85 87 86 85 86 84 82 84 85 90 95 97 100 100 101 101 106 109 111 112 115 124 118 116 117 120
122 121 120 116 112 111 100 96 97 102 97 96 96 87 89 91 88 82 90 89 91 89 90 86 84 88 92 92 97 102 104 107 107 112 115 115 119 113 126 124 120 122 123 126
125 122 120 117 115 109 100 100 100 101 90 92 94 90 88 89 89 90 93 92 94 95 93 88 91 94 94 95 100 104 109 111 114 118 121 122 123 126 125 125 124 125 128 130
126 124 123 119 117 116 111 110 108 102 98 95 95 95 93 94 97 99 101 101 101 103 98 95 95 96 96 99 103 108 108 111 115 117 117 123 128 125 126 127 128 131 136 139
129 126 125 126 126 121 116 115 114 113 112 110 107 107 101 104 104 106 111 112 108 107 101 99 95 98 100 99 102 107 112 116 118 121 125 130 127 128 129 128 137 140 138 141
128 127 126 124 123 123 120 119 118 117 117 114 113 114 116 109 113 117 112 109 106 108 106 102 104 106 107 106 109 112 116 121 121 124 128 129 128 131 130 137 141 144 144 149
125 123 122 123 122 124 123 122 120 118 116 117 117 117 118 116 114 109 115 112 113 110 108 113 110 113 116 117 120 126 124 126 130 134 134 132 134 135 142 145 147 150 152 160
124 122 121 123 124 123 125 125 123 123 122 122 120 120 119 117 119 117 114 120 119 116 116 113 118 120 121 125 127 129 130 133 139 141 136 138 138 143 148 150 152 158 162 160

GFSCGP_250_spd_054.txt.gz
Wind_Speed
41 38 43 49 42 38 38 38 39 41 33 31 32 32 33 31 35 39 36 36 38 38 38 38 40 41 42 42 41 40 40 40 40 40 41 42 41 40 40 40 41 44 46 45
44 41 50 48 46 44 44 45 46 41 38 33 33 30 33 31 33 38 40 40 40 41 41 39 41 44 44 44 44 44 44 44 43 44 42 42 42 43 43 44 45 45 46 48
52 50 52 52 52 51 51 49 51 46 43 38 35 26 30 37 34 37 42 43 43 43 44 44 42 43 45 46 46 47 47 47 47 47 46 46 46 47 49 49 49 50 51 51
54 54 58 60 55 57 53 57 55 52 42 38 37 26 36 42 40 40 45 43 45 44 43 41 40 39 43 45 46 48 49 49 49 49 50 51 52 53 53 54 55 55 55 56
52 57 57 57 59 62 59 62 58 51 43 36 34 35 33 45 45 49 46 46 46 46 45 42 41 41 43 46 48 49 51 52 53 52 52 53 54 56 57 57 57 56 58 61
60 59 61 62 66 67 65 62 63 54 45 33 44 33 27 43 49 51 51 47 46 48 50 49 47 45 47 48 50 51 52 53 54 54 55 56 58 58 57 59 59 61 61 64
69 68 67 67 69 70 68 67 65 57 50 40 46 31 32 40 52 54 55 54 50 49 51 51 50 50 51 54 56 57 58 59 59 58 59 59 59 59 60 61 62 63 66 65
76 73 71 71 70 72 72 70 65 61 57 49 44 34 39 41 45 52 56 59 55 52 49 48 49 49 50 52 55 58 60 60 60 61 61 59 58 60 62 64 65 66 66 67
79 79 76 74 75 77 73 67 69 67 58 54 49 44 41 45 50 52 55 57 56 54 51 49 49 48 49 50 53 56 58 60 60 58 59 61 63 65 66 67 67 68 70 74
82 80 76 78 79 75 74 72 71 69 65 65 56 50 46 50 54 55 57 60 59 56 55 53 50 49 50 51 53 56 58 61 62 63 64 65 66 68 68 68 70 73 76 78
89 86 79 78 76 75 74 72 71 71 69 68 65 57 54 55 55 57 59 61 61 59 59 58 56 56 57 58 59 60 61 62 63 65 67 68 68 68 71 72 74 76 80 82
87 89 84 82 80 77 74 73 77 76 74 75 73 55 55 53 56 59 62 63 62 62 64 63 62 61 61 61 61 62 63 65 66 65 66 66 67 71 74 77 81 85 86 86
90 91 88 85 81 78 79 78 80 81 81 74 72 50 58 61 61 65 67 66 64 65 68 66 63 63 64 65 65 66 66 65 66 67 69 72 73 75 80 84 85 84 84 86
98 97 92 85 86 86 85 85 82 83 79 74 69 61 58 61 66 67 70 68 68 67 67 68 69 68 69 69 70 70 68 68 69 71 73 77 80 81 82 84 86 88 90 91
103 101 98 93 95 94 91 88 88 86 78 87 68 74 54 68 71 75 76 75 71 68 67 70 72 72 72 72 73 75 76 74 73 75 77 78 81 84 88 91 92 93 95 98
107 106 104 101 99 101 98 94 89 89 87 89 81 76 68 76 76 75 77 75 72 75 75 76 77 78 81 82 79 75 73 73 74 78 81 84 84 88 91 93 95 99 101 103
115 115 112 109 105 110 112 92 98 98 94 91 88 75 80 78 80 80 81 82 83 83 83 82 83 83 83 82 81 79 79 82 81 82 84 85 86 88 92 96 101 102 106 109
112 113 115 114 110 115 101 102 104 106 102 101 99 89 91 90 90 88 88 87 89 91 91 90 90 88 83 82 83 83 83 83 85 86 87 88 91 95 95 97 101 107 112 113
103 105 107 107 108 106 99 95 100 105 102 100 102 91 88 97 99 90 95 97 93 93 93 91 86 83 81 83 86 85 85 87 89 92 91 92 96 98 97 100 106 110 113 117
107 108 109 111 112 112 93 101 99 107 104 96 106 99 95 99 91 80 94 91 88 86 83 81 77 80 80 83 85 88 92 92 92 95 97 98 99 100 102 105 108 109 112 117
112 112 115 116 118 121 113 112 115 116 100 104 107 104 106 106 99 91 91 89 89 86 84 82 82 80 81 84 90 95 99 99 103 107 101 100 101 102 105 107 111 113 116 122
112 115 119 120 122 123 122 126 127 123 117 113 113 111 110 109 107 103 99 95 94 94 94 92 91 92 95 92 95 99 102 106 109 104 102 101 103 103 108 111 116 118 123 125
125 124 125 126 128 128 128 129 132 130 127 127 125 122 117 115 113 109 107 105 103 100 100 97 98 98 99 96 102 108 107 113 109 107 108 106 103 108 110 114 120 126 129 129
145 142 142 140 135 136 137 139 137 133 130 130 127 124 120 116 113 113 111 111 107 106 105 103 104 103 105 107 108 111 113 108 109 111 111 112 111 112 114 118 124 131 131 134
149 148 145 145 142 141 140 138 138 138 136 132 129 123 120 118 118 117 115 112 112 109 108 107 107 107 109 110 109 109 109 114 115 114 117 117 118 121 123 126 132 134 139 142
142 143 142 139 139 142 140 139 136 134 132 130 129 126 122 121 120 120 118 117 116 114 113 113 113 115 114 115 115 115 119 117 120 122 121 123 127 129 131 133 137 140 144 150

GFSCGP_250_spd_057.txt.gz
Wind_Speed
44 41 45 51 46 44 43 42 41 46 41 32 32 31 36 32 34 35 37 38 38 35 32 35 35 34 36 37 38 40 41 41 42 43 44 44 44 45 44 43 44 47 49 51
51 45 55 52 50 46 45 44 46 50 46 37 37 32 35 37 37 39 40 42 40 36 35 35 35 36 37 39 41 43 43 44 44 45 47 48 47 45 45 46 46 48 50 51
57 56 59 55 56 53 50 49 53 52 50 41 37 30 34 41 42 44 43 43 40 38 37 35 35 38 40 43 44 44 44 45 46 47 49 50 50 50 50 51 52 53 54 55
59 57 59 60 57 60 54 57 56 56 54 44 39 27 31 44 47 51 50 41 41 40 40 38 38 39 41 42 41 44 44 46 47 48 50 51 53 54 55 55 56 57 58 59
60 62 61 59 60 66 60 64 63 61 57 39 36 34 29 42 51 57 54 46 42 42 42 43 43 43 42 44 44 45 46 47 49 50 52 54 55 56 56 57 60 60 61 62
62 60 61 60 63 67 65 66 67 66 61 39 39 34 21 41 51 58 56 47 44 44 45 44 43 42 42 43 47 50 50 50 51 53 55 56 58 60 62 64 64 64 62 60
73 66 65 67 66 67 66 69 72 71 64 47 43 27 24 39 45 53 57 52 49 48 45 43 44 46 45 45 47 50 52 54 55 57 58 61 62 64 64 64 63 62 61 63
76 71 72 69 72 76 77 75 72 73 69 57 39 27 36 46 47 49 53 56 56 51 49 48 49 48 48 47 47 49 50 52 53 55 57 59 60 60 60 62 62 63 64 66
87 82 77 77 79 80 77 75 75 80 73 65 48 41 41 46 49 47 56 58 60 60 59 57 55 53 52 52 52 51 50 51 51 52 53 55 57 60 62 64 65 66 67 68
90 89 85 83 81 79 78 79 80 79 76 72 55 48 49 53 54 54 56 58 64 66 63 60 58 56 54 55 56 56 57 57 56 57 59 61 62 63 64 65 67 68 69 70
96 93 88 88 84 84 88 87 85 84 82 76 67 52 55 55 54 57 63 63 64 66 63 59 58 58 58 59 58 57 58 60 61 61 61 63 64 66 68 69 69 71 72 72
103 104 96 91 89 88 88 86 87 86 81 79 75 54 56 59 57 59 62 65 66 63 61 61 61 62 63 64 62 62 63 63 63 64 66 66 68 69 71 72 73 74 75 74
102 105 100 96 93 90 87 85 84 84 83 77 80 58 59 62 63 64 69 69 65 64 63 64 64 64 66 66 65 66 66 66 67 69 69 70 72 75 76 78 77 76 75 77
105 105 101 96 96 95 91 90 91 93 90 78 77 65 65 67 70 72 72 72 71 70 66 66 66 65 66 69 71 73 72 71 71 73 74 76 79 81 80 75 76 76 78 82
107 106 105 96 97 97 93 93 93 91 83 91 70 81 68 73 75 74 77 78 75 70 64 62 64 67 68 68 69 71 73 76 77 78 79 79 80 78 80 82 82 82 81 84
109 103 104 99 94 96 99 96 91 88 88 89 78 82 71 77 85 83 82 77 75 76 76 75 70 69 72 75 75 77 79 82 82 82 83 81 82 82 84 84 84 86 88 93
122 117 114 107 102 109 109 89 91 97 94 94 93 80 84 86 87 84 81 80 79 77 76 76 77 76 77 82 84 86 88 88 88 87 85 81 84 86 89 90 90 89 91 93
122 116 116 115 115 121 104 100 103 103 99 101 97 88 88 92 94 94 88 86 89 88 86 82 83 84 83 84 83 85 85 87 87 84 82 79 83 87 91 94 96 98 100 104
111 112 111 116 114 115 111 101 105 110 107 108 106 100 98 102 104 91 89 95 96 96 96 93 88 84 80 78 81 84 84 83 79 79 78 83 85 85 89 93 97 102 104 109
116 116 115 115 116 112 96 105 106 116 121 99 115 113 112 112 111 94 96 95 97 92 90 87 87 88 89 86 84 84 82 86 84 82 82 83 85 90 90 95 100 103 107 113
120 122 122 116 117 109 92 100 104 105 96 100 105 106 101 99 98 92 91 96 98 92 89 84 91 93 99 92 91 88 87 88 86 85 89 87 89 93 99 99 102 107 114 116
124 123 122 126 128 126 107 107 110 113 109 102 106 105 104 104 102 100 100 104 104 103 104 104 106 104 102 99 101 97 93 93 91 92 93 92 95 97 100 105 107 113 116 117
134 124 121 121 128 129 127 124 121 119 119 114 110 110 112 113 110 108 109 111 114 116 115 116 119 118 112 109 105 105 100 98 98 98 98 97 99 104 106 108 111 115 117 119
133 132 135 136 133 132 129 128 125 121 114 112 116 117 120 116 113 113 113 114 117 118 120 125 124 120 115 112 111 107 104 103 104 104 105 103 104 107 111 112 118 119 120 121
141 138 133 135 134 132 131 130 128 124 119 116 114 114 117 117 117 118 120 121 123 128 132 132 126 122 121 119 114 112 109 110 111 111 111 109 110 114 116 119 121 123 124 122
129 134 138 138 136 137 133 132 132 129 124 122 122 121 119 120 124 128 133 134 134 134 133 131 130 126 124 120 119 115 116 117 118 118 118 118 119 120 122 124 126 128 131 132

GFSCGP_250_spd_060.txt.gz
Wind_Speed
55 51 50 56 47 44 44 43 44 50 47 37 36 34 37 31 35 38 38 38 39 37 32 31 30 30 30 29 29 30 31 32 34 36 39 40 40 42 43 44 44 43 44 44
57 52 61 56 51 48 46 46 47 52 49 39 38 32 38 36 36 40 43 41 38 38 35 31 31 31 30 30 32 32 33 35 38 41 42 42 43 45 46 47 48 47 49 50
63 61 63 59 57 57 56 51 54 51 53 44 40 30 39 41 40 44 49 45 40 37 35 33 33 33 31 32 32 34 36 37 38 41 42 44 45 46 47 49 51 52 53 53
67 66 69 71 66 63 59 59 58 58 57 51 44 26 36 42 45 47 55 51 45 39 34 37 36 36 35 34 36 37 39 40 41 40 40 42 44 47 50 52 54 55 56 57
70 72 72 69 67 70 63 66 66 61 63 56 43 34 33 42 44 52 59 56 43 43 40 39 40 37 36 34 33 37 40 42 44 45 46 45 47 49 52 54 56 58 59 61
73 73 73 72 73 75 72 69 68 68 66 58 50 52 30 38 42 47 61 62 46 44 44 43 41 41 40 41 39 39 41 45 47 48 49 50 52 53 55 57 59 61 63 63
79 77 75 76 77 75 74 73 73 74 70 58 59 56 33 43 42 50 62 61 51 51 47 46 46 45 44 44 44 44 45 47 48 49 50 51 53 56 58 59 61 62 62 62
84 81 78 76 78 79 80 78 77 76 71 64 64 55 34 48 49 49 57 60 58 54 51 50 49 47 47 46 46 46 48 48 48 49 51 51 53 54 56 57 57 58 60 62
88 86 82 81 84 86 81 78 79 84 80 72 63 61 41 44 54 54 52 58 61 62 58 57 54 53 51 52 52 50 51 50 50 51 53 52 52 54 56 58 60 62 63 64
95 92 86 88 89 88 85 82 87 86 84 81 67 61 54 51 56 58 58 62 62 66 65 62 60 58 57 56 56 55 53 52 52 51 51 53 55 58 60 62 62 64 66 66
101 99 94 94 90 87 91 90 87 87 86 84 76 64 60 57 59 60 62 66 68 69 66 65 65 64 59 56 55 56 56 56 56 56 57 59 60 61 63 65 67 68 69 71
102 103 96 91 94 95 95 91 92 93 88 88 83 68 64 68 66 66 63 67 72 69 68 68 68 66 64 60 58 58 58 59 58 59 61 61 63 66 66 68 70 71 73 76
105 109 105 102 98 93 90 88 92 94 94 90 90 71 68 74 72 69 69 69 71 72 71 70 70 66 65 63 62 62 62 63 63 65 66 66 67 68 68 70 72 75 79 81
107 110 108 103 101 100 97 96 97 98 98 83 89 71 72 69 70 70 73 72 70 73 74 72 70 69 68 66 66 67 68 67 66 66 68 68 70 72 76 79 79 82 85 86
114 115 110 104 104 104 103 100 99 97 88 99 77 86 67 73 71 72 71 72 74 75 74 73 73 71 73 74 74 73 73 71 72 73 73 74 77 79 82 84 86 88 89 87
122 118 114 114 109 108 108 104 97 97 97 100 86 86 67 71 79 80 81 80 77 77 76 75 74 74 73 75 75 75 76 75 73 75 77 80 84 85 86 87 86 87 85 85
128 124 121 116 109 113 117 101 104 106 103 97 95 80 76 81 83 85 85 83 82 82 82 83 80 78 76 79 80 79 78 79 79 78 75 76 73 73 76 80 83 83 80 80
130 128 130 126 122 129 111 104 105 106 102 101 97 84 81 87 91 94 87 88 90 90 90 87 86 85 85 84 85 86 88 88 88 88 82 83 84 83 79 79 79 80 81 81
115 117 126 125 126 127 119 111 111 113 109 107 102 96 90 96 102 93 91 96 95 95 94 92 93 92 90 89 89 89 88 88 88 80 83 79 84 82 83 86 83 87 87 88
114 113 113 116 118 122 110 106 107 114 118 105 114 109 105 107 111 98 101 100 98 96 95 95 94 94 93 92 91 95 94 90 87 84 82 87 91 95 95 91 90 89 91 92
116 117 117 122 116 116 98 96 101 109 101 103 110 108 105 106 108 108 106 102 102 96 90 90 94 96 93 92 94 92 89 89 89 87 91 96 98 102 101 100 96 95 96 97
121 120 117 124 126 117 100 105 104 106 103 98 98 98 98 99 103 107 104 99 93 97 94 95 96 99 98 100 100 95 93 91 94 93 98 102 105 105 106 103 104 103 103 103
131 126 125 126 132 130 123 117 114 111 110 104 99 101 103 101 100 100 103 102 101 95 98 101 99 98 102 104 100 97 96 96 98 100 106 108 113 114 110 109 108 108 106 106
129 132 135 131 133 136 130 126 126 123 117 113 112 111 112 112 110 107 107 109 113 110 109 108 108 107 104 103 104 105 107 105 106 110 116 120 119 121 117 115 115 109 110 111
124 131 132 135 134 136 135 129 127 123 120 120 121 122 121 119 120 118 116 119 123 120 118 117 117 115 112 111 111 111 114 115 117 120 125 128 128 123 119 116 111 110 113 119
120 120 121 125 132 134 133 134 132 132 132 132 130 130 131 129 128 128 127 130 126 125 123 124 123 121 120 119 118 118 122 126 130 134 133 131 125 124 123 119 119 121 120 122

GFSCGP_250_spd_066.txt.gz
Wind_Speed
58 56 55 60 55 50 48 49 49 49 42 36 36 36 32 28 33 34 34 35 34 33 26 25 23 23 25 25 27 27 26 26 30 30 30 31 32 32 34 36 36 35 35 37
64 57 63 60 56 55 54 53 53 52 45 38 37 33 33 30 32 35 36 37 35 34 32 24 26 28 28 28 28 27 30 32 32 32 32 32 33 34 35 36 37 37 37 38
68 66 67 63 60 58 58 56 59 55 48 40 40 31 32 36 30 32 40 40 38 37 34 27 25 28 30 31 30 30 31 32 34 34 35 34 35 36 37 37 38 39 41 42
72 68 70 69 66 66 63 64 62 57 53 46 45 28 34 41 33 38 43 42 44 41 39 31 25 29 30 30 32 31 33 35 34 36 35 36 37 38 38 38 39 42 44 46
75 77 76 75 73 73 66 67 66 64 61 56 47 35 34 44 38 46 47 49 46 45 45 39 29 33 32 31 35 34 33 35 36 37 37 37 38 39 42 41 43 44 44 45
79 79 79 76 77 77 72 72 73 71 69 61 56 46 29 40 47 52 52 58 55 48 45 42 34 35 37 38 37 35 34 34 36 37 38 40 40 41 43 45 46 45 47 47
84 83 82 82 81 81 79 78 79 79 73 62 61 54 31 40 49 52 57 63 62 60 55 48 47 42 40 40 39 39 39 40 42 44 44 44 46 45 45 46 44 45 47 50
81 85 83 83 83 86 86 84 81 78 77 71 67 50 36 49 51 56 59 63 65 67 63 57 51 47 45 43 43 44 46 47 48 49 49 49 50 49 47 49 47 47 48 48
93 91 84 86 89 90 88 86 82 87 81 78 67 52 48 51 54 60 63 62 68 72 69 67 60 51 47 47 47 47 48 51 52 53 54 54 53 54 53 53 52 53 52 51
98 96 91 93 92 90 87 86 89 91 86 86 72 66 53 55 61 61 63 64 67 69 71 70 67 63 60 54 52 53 53 54 53 55 57 59 59 58 58 58 59 58 58 58
104 103 98 97 94 95 98 95 92 94 95 94 86 74 63 64 65 66 68 67 68 74 75 74 73 69 65 63 59 56 55 57 59 59 60 61 62 62 62 63 62 62 62 63
111 110 106 102 103 102 102 98 99 100 94 98 97 79 71 71 71 71 71 73 73 72 75 73 70 70 67 67 64 60 61 62 60 60 62 64 65 66 66 66 67 67 67 68
111 116 114 110 107 105 103 101 103 104 106 102 98 81 74 76 74 75 74 73 74 74 72 73 74 73 72 69 67 64 66 66 66 65 65 65 67 68 69 69 70 69 70 71
115 119 112 110 109 109 107 107 108 111 113 100 102 86 78 80 79 78 75 75 80 81 80 78 78 77 75 75 73 72 71 70 71 70 68 68 69 70 72 73 74 74 73 73
123 121 117 114 112 112 109 110 113 115 108 113 100 106 83 85 83 82 85 85 89 90 88 86 82 82 81 78 77 77 75 74 75 74 74 73 73 73 74 75 74 75 76 77
126 124 122 119 109 114 117 117 115 112 109 114 107 107 86 88 95 96 95 98 98 95 92 91 87 85 83 81 80 79 78 77 77 76 77 77 77 77 78 79 80 82 83 82
113 111 111 110 109 124 128 111 108 113 114 112 113 103 101 100 99 100 99 100 97 92 93 92 90 86 84 82 80 80 81 80 80 79 79 79 81 82 83 84 86 87 88 87
117 119 120 120 108 117 112 102 105 111 115 118 121 116 107 111 113 109 104 106 100 100 98 96 95 93 89 85 82 83 83 82 81 82 83 84 84 85 87 89 92 92 92 92
127 130 132 129 122 122 114 97 98 109 102 101 106 106 104 100 111 107 104 111 109 105 100 99 99 96 93 91 88 85 85 85 84 86 86 87 90 92 94 96 96 97 99 101
141 136 137 136 137 133 118 116 117 125 119 117 113 108 104 107 101 90 102 107 109 107 106 105 103 100 98 96 94 93 92 91 91 93 95 97 97 96 98 98 100 103 105 98
151 148 148 143 147 145 132 134 135 135 129 119 121 122 120 111 108 100 95 98 102 100 99 101 105 109 109 109 108 108 106 103 101 101 99 101 101 100 100 102 104 104 103 100
125 130 133 135 139 138 128 137 134 125 127 118 118 125 123 122 120 116 111 106 105 107 109 109 107 103 105 105 106 105 107 107 102 101 101 101 101 102 103 104 104 99 100 100
118 118 121 123 120 117 114 116 117 117 123 115 114 123 125 116 111 114 115 112 112 111 107 106 106 106 103 102 105 107 108 106 103 102 102 101 105 107 109 110 108 107 109 104
113 115 118 119 109 112 112 111 108 109 111 113 116 118 120 118 112 113 110 115 112 109 104 102 103 104 99 98 99 99 99 102 105 106 104 104 103 105 102 104 109 110 105 107
104 109 109 110 106 112 109 110 108 106 107 110 112 115 117 114 114 114 107 106 108 108 107 105 104 103 104 99 99 102 104 101 102 104 107 107 107 106 106 107 109 111 111 111
100 100 108 103 103 106 103 106 107 108 107 106 108 110 112 115 113 114 112 109 106 105 106 107 106 108 108 107 108 107 106 106 106 108 110 111 113 117 118 117 118 116 121 124

GFSCGP_250_spd_069.txt.gz
Wind_Speed
64 64 59 64 61 58 54 53 51 49 47 43 38 37 36 34 37 39 36 36 35 34 28 27 22 23 26 26 28 28 30 31 30 30 29 30 31 33 35 35 37 38 40 41
65 62 65 61 60 58 56 56 55 57 50 43 41 38 38 36 40 38 36 38 37 38 34 29 25 23 27 29 30 28 30 31 32 31 31 31 28 31 32 33 34 35 37 39
69 67 66 63 59 59 59 58 61 60 53 50 49 38 41 38 39 38 40 41 39 39 38 33 32 25 25 31 32 30 30 29 31 29 30 30 30 30 33 34 35 36 38 40
71 67 67 67 62 65 65 65 66 62 61 59 52 39 41 42 37 39 44 43 43 42 42 41 38 33 24 30 35 34 32 32 33 32 32 31 32 32 34 35 35 36 39 42
76 75 75 73 71 71 68 69 71 71 69 62 54 48 40 48 41 47 49 47 47 47 45 46 46 41 36 31 36 36 36 38 36 35 35 33 34 36 38 39 38 40 42 45
85 82 82 81 79 81 75 75 76 75 74 67 59 57 35 46 51 51 54 54 52 51 49 51 51 50 44 35 34 38 42 42 41 40 39 39 41 40 43 44 44 46 46 47
90 87 87 85 83 83 81 80 82 82 79 67 69 63 32 43 50 54 59 58 60 57 55 54 57 57 50 41 37 38 41 44 43 43 43 43 45 46 48 48 49 52 53 52
91 90 85 87 85 88 89 88 85 79 83 74 72 58 46 46 52 57 61 65 67 67 65 63 62 62 59 53 39 39 42 46 46 46 47 48 49 50 52 52 54 56 56 57
96 92 87 90 91 93 90 90 86 93 87 85 74 61 56 54 55 57 63 69 70 69 68 69 67 68 69 64 55 49 46 46 51 50 51 54 56 56 54 55 58 59 59 60
100 99 96 95 92 91 91 92 93 92 92 93 77 71 62 62 64 65 64 68 68 72 71 73 76 77 75 73 69 65 58 55 54 54 56 57 59 59 60 60 61 61 62 63
107 106 101 99 96 97 98 94 92 95 96 97 90 78 65 69 70 70 71 73 73 76 79 81 82 81 79 77 74 73 70 63 61 58 60 62 63 64 64 64 63 64 64 65
114 111 107 105 103 102 102 99 101 103 95 101 101 86 74 74 75 77 81 81 79 79 82 85 87 89 87 83 77 72 70 66 64 63 63 64 67 68 68 67 68 67 66 66
117 120 115 111 108 107 108 106 109 109 110 111 108 96 80 84 85 85 85 84 83 84 85 86 89 90 89 86 81 78 75 73 69 69 69 71 72 74 73 72 72 71 70 69
123 124 122 117 115 115 112 112 113 114 117 108 111 99 87 89 93 91 87 87 89 89 89 91 91 91 90 87 83 81 77 74 75 75 74 77 79 79 77 76 75 75 73 73
125 128 122 118 117 118 119 118 118 119 116 119 108 115 98 91 94 97 95 95 94 93 94 94 91 91 91 89 87 84 80 80 82 82 81 83 82 82 81 80 79 81 79 77
118 122 122 120 115 119 125 122 117 117 116 117 114 113 98 92 96 99 98 100 100 98 99 100 99 96 90 90 89 90 91 91 88 85 85 86 86 86 86 84 84 84 83 81
114 112 115 112 110 122 128 116 120 119 121 119 121 111 104 102 100 102 102 107 101 96 100 102 102 100 97 93 94 94 94 93 90 87 86 88 88 89 89 87 86 86 86 85
120 120 120 114 107 115 108 104 107 113 120 121 123 117 111 107 103 101 104 103 100 102 100 100 99 100 100 99 98 98 101 98 96 93 93 91 89 90 90 89 89 89 89 90
126 126 127 129 123 121 112 93 104 107 105 105 115 118 116 111 111 102 102 103 102 100 101 98 96 97 100 102 104 104 103 100 98 98 94 94 94 94 94 93 94 94 94 94
136 137 140 137 137 131 118 114 119 115 111 108 110 109 112 108 106 99 104 106 105 100 95 95 100 95 98 97 96 94 98 102 101 98 98 97 97 97 96 97 98 100 99 100
145 148 146 141 144 144 134 129 127 131 123 121 125 120 121 116 114 112 107 106 106 107 103 105 107 109 111 106 105 101 98 96 97 102 105 106 103 104 106 106 106 109 110 113
134 145 145 146 147 144 138 134 139 143 141 133 136 133 132 132 126 126 128 120 120 120 120 115 112 116 114 113 112 108 109 107 105 104 103 104 103 104 105 106 107 111 113 113
122 125 129 133 128 125 122 124 127 136 143 148 143 145 143 138 133 136 142 138 130 132 129 123 120 119 114 113 114 115 114 115 116 115 113 112 112 109 107 107 107 107 108 111
116 119 124 123 115 118 119 116 114 119 118 121 124 126 131 127 122 121 123 122 119 119 113 112 112 112 112 113 115 117 118 118 117 117 116 116 114 112 109 108 108 110 115 117
105 113 112 118 108 116 118 119 118 117 115 114 114 113 113 115 112 111 112 111 113 113 111 111 111 110 108 106 105 106 108 111 113 116 114 111 112 113 113 110 110 108 110 113
92 98 107 106 105 116 111 115 117 116 113 112 111 110 110 110 111 111 111 109 110 109 109 109 110 107 105 103 102 103 103 103 104 108 110 109 109 109 108 110 112 113 113 114

GFSCGP_250_spd_072.txt.gz
Wind_Speed
74 65 62 65 65 64 59 57 54 54 50 49 45 43 39 36 36 43 44 39 37 35 31 31 31 30 29 31 31 32 30 30 30 30 30 30 30 29 29 28 30 27 29 32
67 65 68 68 65 64 63 61 59 60 55 53 48 41 40 40 39 41 41 42 39 40 36 32 33 33 34 31 30 32 32 30 28 31 31 31 30 29 31 29 31 30 28 31
69 68 70 67 66 67 65 66 63 63 58 54 49 38 47 41 37 40 43 44 42 43 40 36 35 37 37 36 33 33 33 33 31 31 31 31 31 31 32 32 31 33 32 33
73 70 68 69 70 71 69 68 65 67 60 55 49 39 46 42 41 42 45 49 47 45 44 43 39 40 42 39 37 35 32 35 38 34 33 35 35 34 34 34 36 33 34 37
72 75 73 71 73 75 69 70 69 70 63 55 52 46 43 49 45 48 49 53 50 51 50 46 44 43 42 47 42 41 39 37 39 40 39 40 40 39 40 41 42 39 38 41
71 76 77 75 76 76 73 73 72 71 68 57 59 57 41 52 53 51 57 57 56 53 55 52 50 49 48 47 51 48 46 40 39 41 44 44 44 44 43 45 48 46 45 47
85 78 80 81 82 80 78 77 79 78 75 64 67 65 46 52 55 60 59 63 62 60 58 56 55 53 53 54 55 56 53 47 42 39 45 49 47 47 46 47 52 50 51 53
90 89 86 85 84 86 87 85 85 82 83 74 78 67 55 57 56 58 65 67 69 68 66 67 63 61 60 61 62 61 59 54 45 45 46 48 53 50 51 52 55 55 56 57
93 91 88 91 92 94 92 92 90 95 91 87 80 68 61 60 62 61 64 69 72 74 73 73 74 70 69 68 66 64 63 58 56 51 54 54 51 57 59 59 61 61 62 61
97 97 94 90 89 90 91 90 92 95 92 90 79 76 68 65 68 69 67 67 72 75 79 80 79 77 75 74 74 72 68 67 66 62 62 61 62 62 62 64 65 65 66 66
101 101 98 97 95 95 98 97 96 98 97 94 90 79 69 72 72 73 74 72 74 76 78 84 84 84 82 80 81 79 77 74 70 70 72 73 71 69 67 67 68 68 70 71
107 108 106 103 102 99 100 99 102 103 98 103 102 85 75 76 79 81 80 80 80 81 84 87 88 88 89 88 86 84 82 82 80 78 78 78 79 76 76 74 72 72 71 74
111 110 110 108 108 107 107 108 109 109 108 107 106 93 82 87 88 86 84 83 83 83 85 86 89 91 92 92 91 89 87 88 87 85 84 83 81 80 79 78 75 73 73 74
119 119 114 110 112 110 109 110 113 115 114 106 111 101 90 90 96 95 94 94 94 95 92 93 96 97 95 94 93 91 89 86 86 86 84 83 85 83 83 82 81 81 82 83
120 119 120 117 115 119 120 118 116 117 115 120 109 115 96 94 99 101 103 103 101 101 101 99 100 100 99 97 96 95 93 92 91 90 89 90 90 85 84 86 89 90 90 89
105 109 115 119 114 114 120 124 123 122 121 123 118 116 105 103 105 104 103 107 106 107 105 101 103 106 106 103 100 99 99 98 94 92 93 93 92 92 92 94 94 95 93 90
105 108 110 107 111 119 123 114 119 118 118 122 123 115 111 108 104 106 111 112 108 106 104 101 102 103 105 103 102 100 100 100 100 100 97 96 95 94 93 95 97 99 97 99
113 112 117 115 114 116 105 105 104 107 108 111 118 119 116 115 107 103 111 113 112 112 109 104 103 102 103 106 106 102 99 99 99 99 99 97 97 100 101 100 101 102 102 101
122 124 125 125 122 122 115 106 114 116 109 111 108 105 102 101 104 98 101 100 101 104 104 104 109 107 106 108 107 105 103 104 105 106 105 103 95 91 90 92 96 99 99 100
131 134 135 131 132 133 122 114 119 124 127 116 122 119 114 109 106 102 98 101 102 99 97 97 96 96 98 105 109 109 104 101 100 100 99 97 98 97 98 98 101 100 97 97
141 143 141 139 142 140 129 125 129 137 134 132 131 129 126 124 121 116 116 115 112 108 105 102 104 102 102 102 105 107 107 108 106 103 104 105 107 107 110 110 113 111 106 105
138 141 137 136 140 139 132 131 133 137 139 136 138 138 135 133 133 131 126 126 127 127 121 118 114 113 114 114 115 116 116 116 114 116 117 113 115 118 121 122 119 117 116 112
133 132 135 132 129 125 121 126 129 135 137 135 132 133 133 129 131 134 134 132 133 132 131 133 132 133 130 127 125 126 116 119 121 123 124 123 123 122 122 119 117 115 118 118
119 121 123 123 118 118 119 120 119 124 125 122 122 124 124 121 120 120 123 125 126 127 125 125 125 124 122 122 123 124 124 123 120 120 119 118 117 118 121 121 116 113 115 119
104 110 110 114 105 114 117 119 119 118 116 118 117 117 118 118 114 115 113 114 116 115 114 113 112 112 113 112 113 114 112 111 110 110 109 110 110 109 109 109 109 112 113 114
90 95 104 100 98 107 107 110 113 111 113 114 113 111 111 113 111 112 110 111 111 111 109 109 108 108 109 108 108 109 105 106 105 105 104 104 106 105 106 105 103 103 105 108

GFSCGP_250_spd_075.txt.gz
Wind_Speed
74 71 73 79 71 68 70 69 71 62 60 56 50 44 42 37 36 38 38 33 32 33 30 31 35 35 36 34 32 32 35 35 34 35 34 34 35 34 32 29 29 30 29 32
83 75 79 77 75 75 73 73 70 64 62 55 50 45 47 42 39 38 37 39 35 34 33 33 37 38 37 37 36 34 34 36 36 37 35 34 34 35 33 30 30 31 30 30
84 83 82 77 76 76 75 73 71 67 62 58 55 45 50 46 43 42 41 43 40 41 36 35 38 41 41 39 40 41 39 38 37 37 37 35 36 37 36 34 34 36 34 31
81 82 83 82 81 80 77 74 71 67 67 59 55 46 51 52 49 48 46 46 45 41 42 41 41 43 45 44 42 43 44 42 41 38 37 39 40 41 41 42 41 41 40 37
81 83 80 80 77 78 75 77 74 72 68 62 55 52 53 55 50 52 50 51 49 50 49 47 45 44 46 49 49 46 45 46 45 43 41 40 43 45 45 47 47 47 46 44
77 77 79 78 79 77 76 78 75 74 69 63 60 58 47 59 56 55 56 56 55 54 54 54 52 49 48 49 50 51 49 50 51 50 47 47 46 46 47 49 51 52 52 48
77 77 77 76 76 75 75 77 78 75 72 64 66 59 49 54 61 60 59 61 62 62 60 59 57 56 55 54 53 53 53 53 53 55 56 56 53 49 48 51 53 56 57 56
82 78 76 76 76 75 77 75 75 75 74 72 70 54 57 55 58 61 65 65 64 66 67 68 66 64 62 61 58 57 58 58 58 59 59 59 58 57 56 54 53 57 60 61
90 87 85 80 79 79 78 73 78 80 78 78 71 62 61 63 65 65 67 68 70 71 73 75 75 73 72 69 67 63 61 61 60 62 64 63 62 64 65 64 63 62 62 63
91 90 88 88 89 86 85 86 86 86 84 83 73 71 67 72 75 74 75 76 76 77 77 77 78 79 80 79 77 74 72 70 68 68 65 65 69 72 74 73 74 73 73 72
98 95 93 93 91 92 93 93 94 94 95 93 86 78 74 77 78 79 80 80 79 79 79 80 81 81 81 82 83 83 80 77 76 76 75 74 75 77 79 82 84 83 83 82
105 104 100 99 99 99 100 98 100 100 99 100 98 82 79 83 85 84 85 85 85 85 83 85 84 84 86 88 88 86 85 85 84 83 83 81 81 82 83 83 84 85 87 86
106 106 106 106 105 103 105 103 104 105 106 99 104 84 83 88 87 88 89 90 89 90 89 88 89 89 89 89 91 91 88 87 86 85 86 87 88 89 88 87 87 87 87 87
114 112 111 109 109 108 109 109 110 108 107 105 107 98 89 94 93 95 95 95 96 96 95 94 93 95 97 96 94 95 94 93 93 93 94 94 95 93 92 91 91 90 92 93
114 114 114 113 117 118 115 112 114 114 113 117 108 114 92 95 99 102 103 102 103 102 100 102 102 102 102 102 102 101 102 102 100 100 100 99 99 99 97 98 98 97 96 96
108 109 110 111 115 117 120 115 115 116 115 118 115 114 105 103 104 109 107 105 106 107 108 110 108 109 109 109 109 109 107 105 105 103 103 105 104 102 101 101 101 98 99 99
98 101 103 109 115 120 119 110 117 117 117 121 123 119 115 112 108 109 110 111 112 111 112 114 116 116 118 115 112 114 112 111 110 109 108 108 106 103 100 100 100 98 98 99
97 100 103 104 105 109 100 100 102 105 106 112 113 110 106 106 100 102 107 111 113 113 112 112 113 115 113 112 112 113 114 115 113 113 111 108 106 105 104 103 103 101 100 101
104 110 110 109 109 104 96 92 101 105 104 105 103 103 100 101 100 98 99 100 101 101 99 99 99 98 98 100 103 107 109 110 109 108 106 106 106 108 108 106 105 107 108 107
116 113 111 111 115 112 102 104 108 115 112 109 113 112 113 114 112 106 110 109 108 106 103 101 101 101 100 103 104 101 101 100 103 102 102 102 102 100 97 96 99 99 100 103
126 128 123 124 123 118 106 113 120 124 119 121 122 123 124 124 126 121 120 121 123 123 122 120 117 114 114 115 114 112 112 108 108 107 107 109 107 107 108 106 106 108 108 110
133 136 133 136 135 127 120 119 123 128 131 130 130 132 136 134 133 135 131 127 127 129 132 130 130 127 125 123 124 121 121 121 121 122 122 118 117 118 119 117 114 119 121 118
141 141 142 140 141 137 133 134 136 137 139 139 138 138 140 137 136 134 130 128 126 126 127 129 129 129 128 127 127 125 126 123 123 125 126 125 126 127 127 126 126 127 126 126
141 139 141 141 136 135 136 134 134 139 140 137 133 131 132 129 127 124 123 123 120 119 118 118 121 122 124 123 124 124 121 119 120 122 123 124 125 125 126 125 125 126 127 126
128 129 129 130 126 129 130 130 130 132 132 129 127 123 119 120 118 119 116 115 113 113 112 112 113 114 115 112 114 116 116 115 113 111 112 113 117 117 117 117 117 115 116 115
109 112 119 117 114 119 119 119 119 118 118 118 114 111 112 110 109 109 109 108 107 107 105 106 106 107 109 107 108 110 110 109 109 108 109 110 112 112 112 113 113 111 112 111

GFSCGP_250_spd_078.txt.gz
Wind_Speed
69 68 65 66 68 66 61 54 55 54 55 57 52 54 55 56 53 48 43 43 39 42 34 34 34 36 35 31 31 33 34 34 34 36 38 39 37 33 33 33 32 34 35 36
79 73 76 71 70 67 71 67 65 65 64 61 60 58 58 60 56 51 47 45 44 42 39 35 35 36 36 35 35 36 38 39 39 39 38 40 40 40 35 31 33 33 35 37
84 81 77 76 74 71 70 69 72 69 66 65 63 59 61 61 59 57 53 51 49 45 42 40 40 42 41 39 38 38 40 42 43 43 42 42 40 43 42 40 38 37 37 39
90 87 84 81 81 81 82 81 77 72 72 70 68 60 62 66 63 61 60 56 52 50 49 46 44 44 44 46 44 44 43 45 46 46 47 46 46 45 45 45 44 43 43 43
89 91 93 89 89 86 85 83 80 80 80 73 67 67 67 69 67 66 63 61 59 56 51 51 50 49 50 50 49 48 46 47 49 49 52 51 50 49 50 49 50 50 50 50
93 92 92 90 88 87 86 88 89 88 84 75 72 72 63 72 70 68 67 65 64 62 58 57 57 55 53 52 54 56 53 54 52 52 54 54 54 53 55 57 57 56 55 54
89 92 93 92 91 90 87 88 89 85 83 76 75 73 65 67 72 71 70 68 69 68 64 63 62 60 57 58 59 59 59 59 56 55 56 56 58 60 61 63 64 65 63 61
90 89 89 89 90 91 92 90 88 85 83 77 72 66 67 67 70 73 74 73 72 71 69 67 66 65 63 62 63 64 64 64 59 58 59 60 61 63 66 67 68 71 71 69
92 92 89 87 88 89 88 89 88 85 81 78 75 70 69 71 75 77 77 77 76 75 75 71 70 68 70 71 71 70 70 69 67 65 64 65 65 67 69 72 74 76 77 77
98 95 91 91 93 89 85 86 86 84 82 79 72 70 69 76 79 79 77 77 79 78 75 76 75 77 78 79 80 79 77 75 73 71 70 70 71 73 75 75 77 80 82 84
97 95 95 96 92 92 94 93 92 90 87 83 76 71 71 76 78 78 78 78 80 82 81 80 81 83 84 84 84 83 83 83 82 81 78 76 77 79 80 82 83 84 85 85
102 99 98 96 98 99 98 95 94 93 90 89 85 73 77 78 81 81 81 84 86 87 88 88 86 86 86 87 87 87 88 89 88 87 87 87 88 88 88 87 89 89 89 89
105 105 104 102 103 103 103 99 98 98 99 96 97 82 87 91 91 90 91 92 92 93 93 93 94 95 95 95 94 93 92 93 93 92 92 92 93 92 92 92 93 94 94 96
109 109 110 109 109 110 105 103 104 104 104 101 99 92 91 93 96 98 100 99 99 101 101 101 103 102 101 101 99 99 98 97 98 97 97 95 97 97 98 99 99 100 101 102
117 113 110 108 106 106 106 105 104 105 106 106 103 101 95 99 103 102 100 101 103 105 106 106 106 105 105 104 104 104 103 104 104 104 103 103 103 104 105 104 104 106 107 109
118 119 118 120 120 117 111 109 110 109 110 110 111 107 96 104 105 105 108 109 110 109 109 110 110 111 112 111 111 112 112 112 111 109 109 110 110 110 112 110 110 110 112 112
109 115 118 120 122 125 124 118 120 121 121 122 122 115 111 109 111 112 113 113 114 113 113 115 114 114 115 115 115 116 118 120 119 118 118 117 115 114 116 115 114 114 112 111
95 101 108 111 114 120 108 113 116 123 124 125 124 121 120 119 117 119 122 121 121 120 120 120 119 121 121 119 116 115 114 114 117 120 118 120 118 112 111 109 108 105 104 109
94 95 93 95 104 104 99 99 107 113 114 114 113 115 113 111 109 109 112 114 114 115 112 110 109 106 106 106 103 102 104 106 107 106 107 108 107 109 105 104 105 100 100 98
103 100 102 101 100 92 78 92 97 100 97 94 100 102 104 102 99 94 98 99 102 102 102 103 103 103 103 106 104 106 108 110 111 112 113 116 115 113 115 115 116 111 113 111
108 110 108 107 108 100 87 99 108 110 102 106 108 109 109 107 105 100 102 106 107 107 108 108 110 111 114 114 116 117 119 121 120 122 123 124 125 124 125 125 123 121 121 119
118 119 116 117 116 103 99 110 111 112 112 114 115 117 115 113 113 114 113 115 114 116 117 118 119 121 122 122 123 125 126 128 129 129 127 127 127 126 128 130 130 128 127 128
126 126 127 125 121 116 113 119 122 124 125 122 120 122 125 123 127 127 125 127 127 127 127 126 127 128 128 126 125 124 125 123 122 123 123 125 125 124 124 127 129 129 130 130
137 135 133 131 129 129 130 131 133 135 134 135 134 133 137 138 136 130 127 125 124 125 126 126 126 125 124 122 120 119 119 118 117 118 117 117 117 119 118 119 121 122 124 125
139 140 139 142 140 141 142 141 143 141 141 141 142 138 134 130 126 125 123 121 119 118 118 119 118 117 115 113 112 111 110 109 110 110 111 113 111 113 115 114 115 116 117 118
137 140 141 139 138 142 143 146 147 144 144 141 138 134 131 126 122 119 117 114 113 111 109 108 108 108 108 106 106 105 104 103 103 103 104 106 105 106 109 109 110 112 113 114

GFSCGP_250_spd_081.txt.gz
Wind_Speed
72 74 75 76 73 70 69 65 62 61 54 49 51 51 46 45 49 51 53 54 53 50 45 47 45 43 42 43 38 35 33 29 28 32 34 36 37 38 39 39 36 36 37 38
76 77 79 77 75 72 73 74 74 70 59 54 52 52 52 49 54 57 57 56 53 52 53 50 48 47 47 45 44 43 41 37 36 36 34 38 41 43 40 39 40 39 38 38
90 81 81 73 71 68 62 61 59 63 55 60 57 59 58 57 61 58 61 61 60 58 57 57 54 50 47 47 45 46 49 47 43 41 41 41 44 47 48 46 45 43 43 43
93 89 83 86 81 78 78 77 72 74 67 60 65 60 67 69 67 66 66 65 63 62 66 61 59 55 52 50 49 50 51 51 51 48 48 46 47 50 51 51 51 50 47 45
91 91 89 92 90 86 82 84 82 82 77 70 70 67 70 75 77 71 69 73 71 71 67 66 64 61 58 55 55 54 54 55 54 54 54 52 52 51 54 55 55 54 54 54
102 101 98 95 97 98 98 92 90 87 84 74 76 75 72 81 77 74 79 79 76 72 72 68 66 65 62 59 59 59 59 59 58 56 57 56 55 55 55 58 59 60 61 60
104 104 101 98 98 97 96 94 91 89 88 80 79 79 76 79 81 84 83 81 79 78 75 71 68 69 67 65 64 64 64 63 62 61 62 61 60 61 62 64 65 65 66 69
99 100 98 97 93 93 95 96 95 93 91 87 85 84 83 82 81 83 85 84 83 81 78 75 72 72 73 72 70 68 69 67 67 68 67 66 66 66 67 69 69 71 73 73
94 92 92 93 93 96 93 92 93 93 92 89 88 84 84 84 84 82 82 84 85 86 82 79 76 75 76 75 74 73 73 73 72 72 71 71 72 74 74 74 76 78 78 79
95 96 95 96 96 97 95 94 95 93 89 88 85 85 84 84 86 83 82 84 84 84 83 83 84 82 81 79 78 77 77 77 75 75 76 79 79 80 83 84 81 82 84 84
99 97 96 98 96 96 96 94 94 95 92 89 87 84 85 88 85 85 86 84 82 85 87 87 86 85 85 85 85 83 82 82 81 81 83 86 87 88 89 90 91 89 89 90
105 105 103 100 100 101 99 97 99 99 95 96 92 87 86 87 88 89 88 88 88 87 88 87 86 87 87 87 87 88 88 89 88 88 89 90 92 93 94 94 95 95 95 96
109 110 109 107 104 102 100 98 100 101 101 96 97 88 92 90 89 91 90 90 89 86 85 86 85 88 91 90 91 92 92 92 93 94 95 97 99 100 101 101 101 101 101 102
111 110 111 111 109 110 109 109 107 108 108 100 99 96 95 96 96 95 96 95 93 92 92 91 90 90 91 92 94 96 98 98 100 101 101 101 101 102 101 102 104 104 106 107
110 110 110 111 110 110 109 110 110 109 107 105 99 100 100 99 103 105 104 102 101 101 101 101 100 101 102 104 105 105 106 108 108 108 109 108 108 109 110 112 112 112 113 114
113 112 112 112 112 111 109 109 109 109 108 107 106 98 99 106 109 109 107 108 108 107 108 109 109 108 109 109 109 111 112 113 114 114 115 115 115 117 118 118 117 117 118 119
124 121 117 116 115 116 116 110 110 112 112 113 112 102 104 107 111 113 115 116 115 115 113 112 112 112 113 114 115 117 118 118 119 121 123 123 124 126 128 128 129 128 125 126
113 117 121 125 128 127 117 118 119 122 122 122 119 117 117 117 116 117 118 117 118 117 118 117 119 120 121 124 126 126 127 125 125 126 128 131 129 123 120 118 115 115 115 113
99 103 106 112 114 116 117 119 120 125 127 125 124 125 124 125 126 129 134 134 132 129 127 124 123 121 115 112 113 112 112 112 112 112 112 112 113 112 113 110 111 112 113 114
91 92 97 97 98 94 88 97 101 107 110 106 109 105 101 98 102 109 114 115 117 119 119 116 107 100 99 101 103 104 105 104 105 106 108 111 113 115 116 117 118 120 122 125
97 97 98 97 96 87 82 87 93 99 87 94 96 97 96 93 92 93 96 98 97 96 98 102 103 104 105 105 108 110 110 109 113 115 117 120 121 122 121 124 127 129 130 133
102 105 101 101 103 95 89 97 99 98 99 99 101 101 101 100 97 96 99 101 102 105 105 106 108 110 111 112 111 111 115 118 121 123 123 125 128 129 132 134 134 136 136 138
112 108 109 109 105 99 96 100 104 110 106 104 106 107 109 109 111 108 106 106 111 111 111 111 113 114 116 117 118 119 121 123 125 127 129 129 130 131 133 132 132 133 133 132
113 113 115 111 108 109 111 113 114 116 116 117 116 115 116 118 118 117 119 120 121 120 120 120 121 122 124 126 126 127 126 124 123 123 124 124 122 122 122 121 121 120 121 120
117 117 117 119 117 117 122 125 125 123 123 123 124 125 128 130 125 126 126 126 125 125 128 130 132 132 134 136 134 127 123 120 117 115 114 112 111 110 109 109 109 108 108 108
123 125 126 126 125 126 130 135 134 133 132 133 134 135 136 132 132 136 137 137 137 135 132 130 127 125 126 126 124 120 118 116 112 109 107 105 102 102 102 103 102 102 101 102

GFSCGP_250_spd_084.txt.gz
Wind_Speed
82 79 69 79 71 67 56 54 57 65 57 53 51 49 46 44 46 43 47 50 47 49 46 48 46 45 44 43 45 45 46 41 42 41 39 39 38 36 37 37 39 40 41 43
84 83 79 77 73 69 65 59 67 60 58 58 57 59 53 55 59 56 52 51 52 54 54 53 52 48 50 51 51 50 50 50 48 45 44 44 43 43 41 41 42 44 45 46
84 84 85 82 77 75 72 66 68 66 63 60 61 63 65 64 63 63 53 57 57 57 58 60 57 53 62 58 55 53 52 53 54 51 50 48 47 48 47 45 45 47 48 48
95 89 88 86 86 76 75 73 69 71 69 63 64 59 59 65 63 58 57 61 59 61 62 65 61 65 66 60 58 58 57 57 57 57 55 53 51 53 53 52 51 51 51 50
94 98 94 89 86 87 80 77 74 71 68 67 66 69 71 68 66 63 70 66 67 65 69 71 70 69 70 68 65 64 62 60 59 60 60 58 58 57 58 60 59 58 56 56
100 97 97 95 94 89 87 86 85 81 80 78 76 78 71 74 74 75 74 74 69 76 75 76 76 75 75 72 69 69 68 66 64 63 64 64 63 63 64 64 64 65 63 62
104 100 98 98 102 98 93 93 94 92 87 82 78 77 75 79 85 90 85 78 75 77 79 79 82 77 78 76 73 72 71 70 70 68 67 68 68 68 68 69 69 71 70 70
108 104 104 104 103 101 103 105 101 97 95 94 89 86 86 87 85 87 89 86 84 79 80 82 82 80 78 76 75 75 75 75 74 72 74 73 74 73 74 73 73 74 76 77
106 108 103 102 105 107 103 101 102 101 101 97 93 92 94 94 91 86 86 85 85 87 87 87 84 82 79 79 78 77 78 77 76 77 79 79 79 79 78 79 78 78 79 81
101 102 105 110 111 111 108 108 108 107 105 102 97 96 94 91 90 86 83 84 87 89 89 87 88 87 86 82 80 81 81 80 81 82 84 84 84 83 83 83 83 83 85 87
98 97 98 103 104 104 107 108 109 107 103 98 94 90 89 88 86 85 86 86 87 88 88 89 88 89 88 88 88 87 86 85 85 87 86 86 87 87 87 87 89 90 93 95
100 100 100 97 100 101 101 100 101 101 96 95 91 88 87 89 89 88 88 89 90 89 89 90 91 91 91 91 92 91 90 91 91 91 90 90 91 91 92 93 94 96 98 101
102 103 104 101 99 98 96 96 98 97 97 93 94 86 91 90 91 92 94 95 96 95 94 93 92 91 92 95 94 92 91 91 92 91 92 93 94 94 95 96 98 99 101 104
108 107 106 102 99 99 99 99 100 102 103 96 96 94 94 97 98 99 98 99 100 99 100 99 97 97 95 95 96 97 97 97 99 98 97 96 97 100 102 104 107 108 107 107
110 108 107 106 105 105 103 103 104 105 101 103 93 98 98 100 103 103 103 102 104 104 104 102 101 102 101 100 100 101 102 103 105 106 106 106 107 108 110 109 110 110 112 114
115 111 110 112 111 109 108 108 109 108 106 106 104 103 106 109 109 111 110 108 108 106 106 109 109 108 107 107 109 110 108 110 111 113 113 113 113 116 117 118 118 119 121 121
112 112 115 117 117 116 116 110 114 113 112 112 110 107 110 112 112 113 111 112 112 112 113 114 113 113 113 113 113 114 114 114 117 117 120 121 120 122 123 123 125 128 130 132
121 116 116 115 116 119 113 113 113 115 115 115 113 109 109 110 109 108 108 111 109 110 112 111 110 111 113 114 115 118 121 122 124 126 127 129 128 128 128 129 126 128 128 126
119 126 126 122 118 115 111 110 110 112 111 111 110 112 113 114 115 115 116 117 118 119 120 121 123 126 128 127 125 124 126 125 122 121 118 118 114 110 108 108 115 113 113 116
106 109 115 124 126 126 117 117 118 120 119 117 120 123 122 122 123 124 125 124 124 125 125 125 125 125 121 121 113 110 106 105 108 109 107 103 102 108 110 114 112 112 114 115
92 95 98 100 106 110 110 112 117 121 116 119 121 122 122 119 117 117 120 118 116 116 114 108 103 98 97 98 100 101 101 101 102 102 105 109 113 115 119 120 123 124 123 125
97 100 98 98 97 93 93 96 98 101 101 102 103 101 100 101 101 100 101 102 101 97 100 97 98 100 101 104 105 109 110 112 115 115 117 119 122 125 126 127 131 135 137 137
107 106 104 103 99 96 96 96 97 101 100 98 98 99 100 99 101 104 104 103 104 103 102 103 106 104 109 111 112 111 116 115 115 118 120 124 126 126 130 135 136 135 138 140
111 108 111 109 102 99 100 99 97 96 97 101 104 102 101 105 105 104 107 107 106 110 111 110 111 114 116 119 119 119 121 121 122 125 125 128 130 133 137 138 137 135 132 130
109 114 111 109 109 113 115 112 106 102 102 100 102 106 107 105 109 110 111 114 115 116 117 119 121 121 124 128 127 128 128 129 129 129 132 133 132 130 127 126 124 120 117 113
105 107 113 112 115 117 115 116 112 113 111 110 113 114 114 115 117 118 119 120 122 123 125 126 129 130 131 133 135 135 136 138 137 133 131 127 123 120 118 115 114 111 109 108

GFSCGP_250_spd_087.txt.gz
Wind_Speed
74 72 78 64 67 71 68 65 61 51 53 54 61 51 48 47 47 37 37 40 40 37 38 41 41 47 44 44 42 39 45 44 45 44 44 45 47 46 44 43 41 41 40 40
77 71 81 86 77 68 72 66 61 62 60 54 49 55 54 55 55 51 50 44 45 49 51 51 43 47 47 50 53 51 49 52 51 49 49 50 50 51 50 49 47 46 48 47
85 78 78 81 86 77 75 71 75 69 63 57 52 51 55 49 51 53 53 49 54 54 54 50 49 50 53 56 57 59 58 57 57 53 53 53 53 55 55 54 54 53 53 53
97 89 90 84 77 75 78 78 81 76 70 65 57 54 57 60 59 56 57 56 56 60 60 58 56 55 61 60 63 62 62 65 65 63 60 56 54 55 56 57 57 58 58 58
97 95 89 87 83 80 78 78 81 78 69 71 67 64 66 63 62 64 65 61 63 66 65 66 61 65 73 64 65 66 67 67 67 67 65 61 59 58 58 60 60 60 63 63
96 94 91 89 90 92 83 87 81 84 86 73 74 73 71 73 68 66 67 68 69 68 69 65 69 73 69 73 70 70 70 72 70 70 69 65 64 62 63 62 64 65 66 68
99 99 97 90 90 86 81 84 88 86 85 80 78 80 76 72 74 73 73 76 78 74 75 77 75 78 82 76 74 74 74 75 76 76 74 71 68 66 65 67 69 70 71 73
104 104 105 101 95 91 88 88 90 90 88 85 84 82 81 80 77 80 83 85 85 78 81 84 84 84 84 83 81 78 80 79 80 80 78 75 75 74 73 72 72 74 76 78
118 111 105 106 112 109 104 105 103 95 92 91 91 90 89 87 86 88 87 89 90 88 89 90 88 88 88 83 83 81 83 85 84 84 82 81 80 77 77 78 78 78 81 82
117 121 116 112 108 109 104 105 102 99 97 98 96 91 91 90 88 90 92 89 91 94 97 96 95 93 90 89 85 86 87 86 86 86 84 83 83 83 83 82 84 84 85 87
114 115 114 119 117 113 110 109 110 110 108 101 97 98 95 95 96 97 94 93 96 98 99 97 97 95 94 93 92 93 90 90 90 89 88 88 88 88 89 88 90 91 91 89
106 108 112 106 110 115 116 116 116 112 106 107 107 104 101 99 98 96 97 100 100 101 100 98 97 95 93 94 94 95 93 93 92 93 93 95 95 95 95 95 96 95 96 96
103 107 111 113 112 109 107 106 106 105 105 103 103 94 98 98 99 101 103 102 98 96 96 97 95 94 94 96 95 94 94 94 95 96 98 99 100 99 99 99 99 99 100 101
102 103 103 101 99 102 102 102 101 103 106 99 97 96 100 99 101 103 103 100 99 99 97 96 96 98 98 99 97 96 98 99 100 101 102 102 102 103 104 105 106 106 106 106
102 104 103 99 96 97 97 97 98 99 95 100 90 96 96 97 101 102 102 101 103 104 104 102 102 103 102 102 102 103 104 104 103 104 106 108 109 110 110 111 111 110 111 111
103 100 101 102 101 102 104 102 101 102 102 101 97 98 98 101 101 101 104 103 105 104 105 103 104 106 106 106 107 108 109 109 110 111 113 114 113 112 113 111 111 111 114 117
108 109 108 105 101 104 106 100 101 102 103 103 102 99 102 105 106 107 107 108 107 109 108 108 110 111 112 113 114 115 117 119 118 118 115 114 113 114 115 116 118 122 126 130
110 109 110 113 112 112 100 98 102 104 105 105 104 105 108 109 110 111 111 112 113 114 114 115 116 117 117 118 117 114 111 112 113 115 117 118 120 124 128 130 132 131 131 123
110 113 113 111 109 109 106 105 106 106 106 110 111 110 111 114 115 116 118 119 119 119 118 117 117 118 115 114 114 116 118 119 122 125 128 131 134 130 129 124 118 108 107 108
117 115 117 115 114 112 105 105 108 112 109 112 114 113 114 117 119 120 121 120 120 119 117 116 117 119 121 124 126 126 126 125 124 128 131 127 125 115 111 107 106 107 108 107
107 109 117 122 123 120 116 113 113 112 104 112 111 112 115 116 116 118 119 119 119 119 121 123 125 126 124 125 125 125 126 126 124 118 115 115 114 106 109 111 111 115 114 115
99 102 101 101 104 105 105 113 117 115 117 115 115 114 115 116 116 116 119 123 123 118 117 116 115 116 121 119 115 114 114 111 112 114 115 113 113 114 116 119 119 124 128 131
99 98 97 97 92 91 87 90 96 98 100 102 105 105 103 101 102 105 109 111 111 110 110 110 112 113 113 111 111 111 110 114 115 116 119 117 119 121 125 128 124 125 132 139
99 95 96 96 93 92 90 92 94 94 98 98 96 97 99 101 102 102 104 107 107 107 108 111 111 111 111 113 114 116 120 119 116 115 122 127 128 130 133 136 140 143 145 145
106 104 98 99 96 99 100 100 102 101 101 102 102 101 103 105 105 105 105 106 108 110 112 113 113 116 116 115 117 117 117 117 118 122 127 130 133 136 139 140 136 135 135 136
111 109 110 109 110 110 109 109 108 108 108 109 107 107 106 106 110 112 113 113 114 115 117 117 116 115 117 120 123 123 125 126 125 127 126 128 132 133 134 133 132 131 125 123

GFSCGP_250_spd_090.txt.gz
Wind_Speed
86 83 75 71 81 83 72 69 71 63 62 60 53 50 51 52 49 44 40 42 37 38 35 39 38 35 38 38 38 38 41 41 50 46 45 49 47 47 44 45 44 44 43 43
87 80 85 83 74 80 70 65 62 68 65 61 62 55 46 46 45 43 51 49 46 43 43 39 38 42 43 41 45 50 49 47 52 48 52 53 53 50 50 48 46 47 47 47
92 93 93 82 82 75 76 77 68 66 64 67 62 58 53 54 50 50 42 42 38 42 43 42 45 49 47 47 55 55 52 53 55 57 56 55 57 57 58 55 54 51 49 50
98 97 98 91 89 80 76 79 78 68 66 66 66 59 61 55 54 52 53 50 49 48 51 54 51 55 51 55 53 57 55 60 61 63 61 62 59 67 58 61 56 57 52 54
97 94 92 92 90 94 88 75 81 77 68 63 65 64 64 64 61 58 60 59 53 54 55 56 59 60 63 61 64 62 66 66 69 66 67 67 69 69 65 64 63 62 62 61
98 102 100 95 96 91 87 85 80 82 80 79 73 71 73 71 68 71 67 63 61 64 61 63 62 64 70 68 68 69 69 72 69 74 74 74 71 73 72 70 69 68 65 66
97 101 98 96 94 90 92 90 91 89 78 76 76 75 73 73 78 76 70 70 71 70 73 71 68 70 69 74 77 75 77 76 77 77 78 79 79 76 77 75 73 72 72 72
103 93 92 98 97 96 97 95 90 90 84 79 76 73 72 73 76 77 82 81 76 73 75 74 76 78 79 79 77 85 77 82 83 84 84 84 82 78 79 79 80 78 76 77
111 106 98 97 100 102 98 96 97 96 94 92 91 84 81 81 85 84 78 81 76 79 81 83 87 86 85 82 86 86 83 87 89 90 88 87 88 85 84 85 82 81 80 82
109 109 109 111 103 98 93 99 98 98 94 92 86 81 82 84 80 79 81 83 88 86 87 89 91 89 89 88 90 89 88 93 92 91 91 90 89 86 86 87 86 85 87 86
114 116 113 111 108 105 107 107 108 103 100 98 96 92 86 85 84 87 91 92 96 94 95 95 97 99 96 96 97 94 92 95 97 95 92 93 92 93 92 92 91 91 91 93
113 113 117 120 115 114 114 108 109 107 102 101 98 92 93 95 98 96 94 94 96 98 105 103 103 102 101 100 99 96 100 101 99 97 98 97 98 97 96 100 97 97 99 100
111 116 116 115 117 119 121 117 116 113 110 106 105 93 100 101 102 101 103 105 106 108 107 104 104 103 103 101 99 103 103 102 99 99 101 100 100 100 99 101 101 101 104 104
109 112 111 113 106 114 113 113 112 115 116 110 115 112 112 110 109 108 113 112 108 107 103 106 102 104 105 106 106 105 105 103 101 102 103 104 103 103 105 105 105 107 107 109
110 109 109 109 106 108 106 111 113 114 107 113 102 105 101 102 107 109 106 106 106 104 105 106 108 108 107 107 108 108 106 107 106 106 108 107 107 108 109 109 111 114 116 116
108 107 107 106 108 110 108 106 105 105 103 105 101 103 104 109 112 108 108 111 110 108 107 109 108 108 108 107 108 108 107 106 107 108 108 109 110 111 113 115 117 119 118 118
108 106 105 103 104 105 112 102 105 105 106 104 109 102 109 111 111 110 110 108 107 109 109 111 114 109 109 108 110 110 110 109 109 110 111 113 115 117 120 120 119 118 117 118
105 105 105 104 105 109 98 100 99 101 103 103 100 99 101 103 106 107 105 104 106 108 110 110 111 112 110 110 111 111 113 114 115 116 118 120 120 123 121 118 120 122 125 129
108 106 106 107 105 102 99 96 98 102 101 103 103 103 104 105 106 105 106 108 108 109 111 112 112 113 113 114 115 117 118 120 123 121 122 124 123 122 122 126 130 131 127 130
106 107 106 106 106 103 96 97 96 97 95 92 94 96 99 105 107 106 111 111 113 113 114 114 115 117 118 119 121 123 124 124 125 124 124 126 125 128 129 130 129 124 114 110
108 110 112 112 109 104 101 102 102 103 101 106 106 106 105 104 104 106 108 110 111 112 115 117 118 119 120 121 123 124 124 123 123 126 128 128 130 128 127 122 117 112 113 115
115 115 113 112 114 109 111 111 106 105 107 110 111 111 113 112 115 119 120 120 120 118 119 120 121 123 125 124 121 121 121 122 123 126 129 126 122 122 122 120 120 122 124 125
120 119 117 116 116 115 114 113 113 113 113 115 117 118 118 117 117 116 117 117 116 117 117 119 120 120 119 117 116 115 114 116 115 117 119 119 118 118 120 124 128 131 131 130
109 109 113 117 115 109 107 110 112 112 115 114 115 114 112 111 110 110 111 113 114 115 115 114 113 111 109 109 110 111 113 115 116 115 115 118 121 126 129 130 131 132 130 134
105 106 104 103 101 100 101 104 108 110 110 107 104 103 103 101 100 100 101 101 102 104 106 107 109 111 111 113 114 114 115 118 121 121 123 124 125 129 132 133 134 136 139 141
104 101 104 104 105 106 106 106 104 104 104 103 103 103 103 103 103 103 104 105 106 107 109 112 112 114 116 114 118 119 122 123 123 126 130 133 136 136 136 137 138 142 143 141

GFSCGP_250_spd_093.txt.gz
Wind_Speed
98 98 93 89 88 85 75 74 63 63 64 65 60 54 54 54 52 44 36 38 41 42 38 39 41 41 40 34 30 34 36 35 41 44 42 45 47 47 46 45 45 51 45 48
93 92 97 94 98 92 89 82 77 68 66 62 64 61 57 47 46 46 43 48 39 40 40 42 45 40 37 33 37 41 40 42 49 50 53 53 53 53 49 52 51 52 49 49
101 93 88 92 91 91 93 97 85 79 71 69 67 63 58 56 56 54 51 44 42 42 39 40 39 42 41 44 44 49 46 52 51 55 55 55 59 59 58 58 59 58 56 55
103 103 100 91 90 87 89 87 85 79 79 78 70 67 62 63 61 58 52 52 50 53 53 56 53 56 55 54 52 52 55 56 57 60 56 59 60 68 64 66 68 62 61 59
101 101 99 94 93 94 91 86 90 83 83 79 83 78 67 59 59 60 63 58 54 51 51 51 54 55 58 57 57 57 60 63 62 62 64 67 67 66 72 72 68 70 73 69
106 108 104 106 99 92 94 93 86 89 84 80 81 82 66 61 59 64 63 66 60 60 60 57 58 57 62 62 62 64 68 66 65 68 70 71 72 78 74 76 78 78 76 74
105 106 100 101 107 106 100 97 87 87 91 81 78 77 75 76 70 68 68 67 70 73 72 70 72 73 69 68 73 74 68 67 71 74 78 75 80 79 80 79 81 83 81 75
106 105 101 93 89 91 98 105 99 96 92 86 85 84 76 72 76 74 70 74 72 71 72 73 76 73 74 76 77 75 75 75 78 81 79 83 86 82 84 82 84 84 80 83
103 105 109 107 105 96 95 95 96 98 97 99 96 88 83 82 82 84 76 74 71 70 73 78 76 78 78 80 77 75 81 82 85 86 90 87 88 89 90 87 91 86 87 85
107 105 108 110 111 109 105 103 105 104 100 94 90 86 83 87 84 87 86 85 78 78 76 75 83 84 87 81 77 80 85 88 91 92 95 92 92 92 94 92 94 92 91 94
111 111 108 107 107 106 107 109 105 103 100 99 96 89 87 88 86 83 83 82 81 86 84 87 90 87 86 85 87 93 97 97 95 99 99 95 95 98 97 97 99 100 98 100
119 117 117 116 116 112 109 108 111 108 99 96 98 92 90 91 91 90 85 91 95 91 89 88 90 95 92 92 97 100 101 101 101 101 101 101 101 101 101 103 106 103 103 103
123 122 116 120 124 121 117 116 113 111 109 103 101 88 94 95 92 92 94 94 90 93 96 97 100 101 100 102 105 107 103 107 108 103 104 104 107 106 108 108 108 108 105 105
120 127 126 126 116 116 116 115 114 116 114 102 106 99 99 99 99 100 98 103 104 103 105 108 105 105 106 108 111 114 108 108 108 108 106 109 112 111 111 110 111 108 108 108
109 113 116 115 120 125 120 118 116 116 111 115 107 112 108 107 112 114 111 110 111 112 113 109 111 111 111 112 113 111 109 110 111 111 114 114 113 112 112 114 111 110 111 111
112 109 111 111 113 115 118 115 113 112 110 114 110 115 113 106 110 113 113 115 115 115 116 113 115 112 111 113 113 113 114 115 115 117 117 115 116 115 116 115 115 115 115 116
116 118 116 115 113 116 121 107 112 114 113 112 112 102 112 111 113 114 115 115 116 116 115 115 114 115 114 113 114 114 115 117 115 116 115 116 118 119 116 117 116 117 119 121
114 116 117 118 117 121 109 109 108 110 111 112 110 109 111 111 114 117 113 110 109 110 111 113 113 114 114 115 116 117 115 116 118 119 118 118 117 118 118 117 119 122 124 126
113 115 116 116 115 113 106 103 105 109 106 108 109 111 112 113 113 110 108 108 111 109 110 113 114 115 116 115 114 114 115 116 117 118 118 119 120 123 122 121 124 127 129 129
103 107 114 115 112 107 95 102 104 108 106 107 108 108 109 113 113 107 110 113 113 113 113 114 113 113 112 113 114 116 117 118 120 120 119 121 123 124 126 126 128 129 131 130
104 99 107 111 117 107 97 99 102 103 95 102 107 109 108 109 109 108 110 113 113 113 113 114 115 115 115 115 115 115 119 119 119 121 122 124 126 128 129 130 130 130 128 128
106 110 104 108 110 107 101 97 98 101 103 102 101 103 104 106 107 108 108 107 107 109 110 111 112 112 112 112 114 116 120 122 122 121 123 125 127 130 132 126 122 121 121 120
110 109 111 107 102 103 101 103 103 106 109 108 107 107 106 107 108 107 106 107 109 111 113 114 116 116 116 118 120 121 123 126 127 128 128 127 125 123 124 119 117 123 126 127
114 112 113 113 108 105 106 105 107 110 110 108 108 108 109 109 110 111 112 114 116 117 120 120 121 123 124 126 127 129 130 127 127 129 128 120 116 119 121 121 124 126 130 134
121 116 113 116 113 111 110 112 114 116 115 113 113 114 115 116 117 118 119 119 119 120 123 126 127 128 130 127 123 121 121 120 118 118 118 119 121 122 125 127 130 134 136 137
116 119 119 115 113 117 117 119 123 124 123 123 122 123 121 120 121 124 125 126 128 128 127 127 128 127 125 124 123 122 121 121 122 124 125 127 130 133 135 136 135 138 137 139

GFSCGP_250_spd_096.txt.gz
Wind_Speed
105 98 90 84 83 78 76 76 77 69 63 58 60 56 55 51 49 46 42 43 39 41 45 36 40 39 36 40 36 33 31 28 37 41 39 42 44 47 45 46 48 48 54 55
112 97 97 94 89 84 77 76 76 79 70 68 57 51 57 56 56 53 53 48 45 41 40 44 37 35 37 40 37 35 34 32 44 47 45 51 53 55 49 48 51 53 56 58
108 107 108 101 94 89 85 85 82 82 75 67 71 66 56 55 58 53 50 49 46 45 44 42 43 38 36 37 38 39 44 51 52 51 48 53 58 58 54 54 55 57 60 62
110 112 111 109 102 100 98 91 88 89 89 77 71 66 60 54 54 52 55 56 55 58 55 55 52 52 48 52 53 54 52 52 51 53 53 56 64 60 59 62 63 63 67 65
102 103 103 104 102 108 97 96 94 94 93 85 82 69 64 62 57 59 61 58 54 54 57 54 54 56 56 52 51 53 55 52 52 55 58 62 66 65 65 65 69 69 72 74
103 104 105 105 108 105 98 96 94 97 94 90 85 83 78 72 76 72 74 68 66 65 61 60 63 63 64 65 62 58 59 62 66 66 62 66 68 69 68 73 77 78 81 81
105 105 102 102 102 104 103 101 96 97 97 88 87 84 73 75 79 81 73 73 76 73 65 61 62 64 66 69 67 70 72 71 70 69 69 70 76 70 73 77 81 85 86 85
108 111 109 106 104 99 97 100 105 100 94 83 89 88 77 78 79 76 77 78 78 73 73 72 66 65 69 68 70 70 73 76 74 72 75 77 79 79 80 82 84 88 87 90
103 106 109 107 104 104 104 106 101 101 98 95 90 82 77 75 76 77 75 77 81 79 80 78 77 72 72 73 72 70 71 73 72 72 80 81 86 86 85 88 93 92 92 92
119 114 113 108 107 107 106 108 110 109 107 103 95 90 85 79 77 76 79 80 80 79 77 74 75 77 80 80 79 76 78 73 75 80 82 87 88 91 94 95 98 100 97 97
114 125 120 117 113 109 110 108 107 108 107 101 102 95 95 94 95 93 90 85 86 87 90 89 85 86 85 84 79 79 79 81 85 89 91 95 99 100 99 99 100 102 102 103
114 117 122 116 110 108 111 109 113 112 105 105 100 95 95 99 100 98 94 92 92 97 93 88 85 85 83 83 85 84 84 89 94 95 100 105 106 106 103 104 106 106 104 106
113 117 123 122 119 111 106 106 108 109 109 104 101 88 81 82 89 89 88 90 91 93 93 90 89 89 89 90 92 95 100 101 102 103 106 108 107 104 107 108 110 111 110 112
115 117 119 119 119 119 115 112 110 113 115 106 104 93 93 93 93 92 93 96 98 93 92 93 95 97 101 99 101 104 106 105 108 107 110 109 111 110 112 113 113 114 116 116
117 119 110 114 118 124 121 121 119 122 117 117 103 101 101 103 101 105 105 102 103 103 103 103 107 108 110 115 112 113 113 113 110 113 114 114 115 117 116 117 116 118 118 120
112 113 109 108 116 120 124 128 128 125 121 123 113 112 106 107 109 108 109 112 113 115 116 117 113 113 115 115 111 115 115 115 116 118 118 118 119 120 121 119 119 121 121 121
107 110 108 109 115 117 124 117 117 118 121 122 118 104 111 114 113 112 110 113 120 119 118 116 118 118 117 114 115 116 117 118 120 120 120 122 121 121 121 123 123 122 122 122
118 113 111 111 114 123 111 116 119 117 116 116 112 106 112 114 114 118 119 119 119 118 117 120 120 118 116 119 118 118 119 121 121 122 124 124 122 123 123 125 125 125 124 123
108 113 114 115 117 115 111 114 114 116 116 116 116 115 119 120 121 118 112 113 119 123 121 120 121 123 123 123 122 122 123 124 124 124 124 125 126 125 124 124 123 124 127 126
105 104 111 113 115 114 102 110 110 117 119 112 114 114 117 117 118 108 112 116 120 120 120 120 121 122 123 123 123 123 123 122 122 123 123 124 125 125 125 124 122 123 123 123
99 106 107 105 106 104 101 106 112 116 105 111 114 115 116 117 117 117 116 114 114 115 116 116 115 117 118 118 118 118 119 120 122 124 121 122 123 123 122 121 125 124 125 131
105 105 103 105 109 105 98 98 103 105 108 111 111 110 109 107 108 108 109 112 115 116 116 116 116 117 116 117 117 115 115 117 118 120 120 120 120 122 123 124 128 133 138 140
108 102 102 106 101 99 99 99 101 104 108 110 109 107 110 109 110 109 106 104 105 109 113 112 111 111 113 114 116 116 116 119 122 123 122 124 126 128 132 134 137 140 142 138
108 111 108 104 103 102 101 101 101 102 98 92 93 100 103 100 103 102 103 104 106 108 110 111 111 113 114 116 118 120 122 123 124 128 129 130 132 134 137 141 139 138 139 137
108 111 111 110 109 109 109 106 108 108 106 104 101 98 99 102 103 104 104 104 106 109 111 112 114 117 118 119 121 123 125 126 127 128 131 133 135 138 138 136 135 134 131 134
104 104 109 109 113 116 116 112 113 113 113 115 114 111 107 106 108 110 111 113 114 114 114 113 115 118 120 120 121 124 126 130 133 134 135 136 136 139 138 133 130 133 132 135

GFSCGP_250_spd_099.txt.gz
Wind_Speed
106 105 96 87 89 87 89 82 78 76 68 67 68 66 64 46 43 43 42 45 45 44 50 43 38 37 35 37 32 30 34 33 31 34 33 37 46 41 43 44 49 49 51 53
106 104 101 100 98 93 88 89 82 74 74 70 63 61 53 45 49 53 55 51 49 48 41 42 42 42 40 31 31 36 35 34 35 34 42 48 46 45 43 48 49 54 54 58
108 106 109 106 102 95 91 85 76 76 74 78 67 62 54 53 49 52 52 51 53 53 55 46 42 45 41 36 37 38 35 40 47 47 49 49 50 48 48 51 54 58 62 65
107 110 110 106 103 103 97 86 68 78 77 79 79 66 58 55 53 53 52 56 56 58 49 44 48 50 49 48 46 45 47 50 50 50 52 50 52 50 58 59 59 62 61 64
104 110 110 112 106 102 101 94 92 77 77 78 79 79 69 65 58 58 53 55 60 62 59 53 52 51 50 52 53 55 52 52 56 62 60 60 58 62 65 65 65 71 68 69
103 111 116 112 109 107 104 101 97 97 94 84 76 71 66 62 71 63 64 61 64 62 60 61 57 59 60 59 58 60 58 59 60 63 63 62 66 69 69 72 74 72 72 75
108 100 108 112 112 110 107 103 99 97 95 84 81 73 68 67 72 73 73 66 66 66 67 68 71 74 75 74 74 69 65 64 64 63 64 66 71 75 75 75 72 75 78 80
109 95 103 109 107 103 105 108 107 99 95 89 86 78 75 79 80 82 82 78 76 77 77 78 76 75 75 70 71 69 69 74 71 69 67 69 72 71 70 72 74 81 82 87
108 109 96 108 110 111 106 108 104 104 106 102 99 92 87 88 86 87 86 79 76 80 78 74 74 73 72 76 77 76 76 78 75 69 69 76 76 73 77 82 86 87 88 92
110 113 109 100 111 114 113 111 113 110 104 106 102 96 87 89 90 87 85 85 79 75 74 73 73 75 74 75 77 79 77 78 77 79 80 79 78 80 90 90 91 92 95 100
114 117 118 104 100 108 111 109 106 104 103 98 96 94 91 93 93 92 89 89 86 85 81 81 82 76 75 76 77 80 81 80 86 90 85 81 84 91 94 98 98 98 106 105
117 113 115 112 109 103 103 104 105 108 104 102 99 94 94 99 100 97 97 97 95 95 90 91 91 88 86 87 93 97 91 91 85 83 84 88 94 95 98 101 107 109 110 111
118 120 114 116 115 117 111 105 106 108 107 103 100 86 91 92 94 97 97 98 103 102 102 98 94 94 100 98 94 95 91 87 86 92 96 100 102 105 104 107 113 116 114 113
122 119 119 112 104 108 114 111 112 115 114 105 104 95 97 95 97 99 102 104 105 99 97 97 100 97 96 94 94 95 94 95 100 103 106 105 108 106 111 113 115 117 116 116
116 122 117 106 106 107 110 116 121 123 117 118 106 104 99 98 99 103 104 101 100 100 102 102 97 95 94 99 102 98 100 105 111 112 111 112 111 114 116 118 118 119 120 121
112 118 122 116 108 109 113 110 113 118 116 113 106 106 96 98 101 102 98 99 102 106 107 108 105 104 106 106 105 108 112 115 117 118 116 115 114 119 119 121 122 123 122 125
111 111 114 120 114 110 117 111 111 109 112 114 118 109 114 116 113 110 111 110 110 109 109 109 111 112 114 114 113 116 118 121 120 119 116 117 121 122 124 125 125 124 126 127
111 115 116 119 117 124 108 110 109 114 114 114 113 114 122 122 122 122 120 118 118 117 116 117 117 116 116 119 120 121 120 119 119 120 120 125 126 123 123 124 125 128 131 131
109 111 113 119 124 117 114 108 112 114 110 112 111 111 115 121 121 120 120 119 119 120 119 121 122 124 123 122 123 124 122 121 122 124 125 127 125 124 126 127 126 127 127 127
101 106 112 111 115 117 106 111 113 121 118 103 109 109 115 120 124 114 117 118 118 119 121 121 123 126 126 125 124 124 123 124 125 125 126 127 129 127 125 125 125 128 127 128
97 100 105 106 113 107 105 111 117 121 106 110 116 110 113 116 116 117 119 120 119 120 121 121 123 124 123 123 124 124 125 125 125 125 125 125 123 122 124 126 127 124 127 128
95 99 100 104 107 107 104 107 113 110 113 113 113 115 116 113 113 113 113 115 118 118 118 119 120 121 121 122 121 121 120 118 120 121 122 124 125 123 122 121 123 125 125 127
94 98 97 98 99 99 95 102 107 111 114 115 117 115 114 118 119 117 113 112 112 114 115 117 118 118 117 116 118 121 122 123 123 122 123 123 121 120 120 121 123 126 127 130
94 94 95 96 97 96 99 99 102 102 107 107 109 114 117 117 119 119 118 115 113 113 113 114 113 114 114 115 114 115 117 117 117 118 117 117 117 119 123 124 125 129 131 132
94 93 93 95 98 98 99 103 104 105 106 109 110 109 110 112 110 107 109 113 113 111 111 111 111 110 109 110 109 112 114 115 116 116 117 120 121 122 125 127 128 131 135 137
92 93 96 97 97 101 103 104 109 111 112 106 103 103 103 103 103 104 104 105 104 101 102 103 104 104 105 107 108 110 112 114 116 117 119 121 123 124 127 132 136 138 139 140

GFSCGP_250_spd_102.txt.gz
Wind_Speed
101 98 96 94 92 91 87 86 84 91 75 72 62 62 63 57 56 57 51 49 44 40 41 43 42 44 38 32 30 35 36 30 32 32 33 33 34 39 42 44 43 45 48 49
104 99 104 101 99 96 87 78 80 89 84 80 72 64 64 62 56 52 51 48 45 41 48 43 52 44 38 34 39 35 36 31 33 35 38 36 40 45 52 49 49 47 48 53
98 103 106 110 107 103 97 93 90 84 85 86 81 72 65 61 61 58 58 58 51 44 45 47 50 49 50 47 39 39 43 41 38 37 39 43 47 51 51 58 56 53 53 59
99 103 106 109 104 104 98 98 97 95 92 83 84 79 73 70 62 61 59 64 59 55 56 58 58 52 54 50 44 44 48 49 46 50 47 47 54 55 58 59 61 60 59 61
113 107 106 100 106 108 96 94 97 95 91 89 81 77 72 71 68 59 61 69 61 55 57 54 55 56 57 54 56 49 52 53 52 54 54 58 66 60 60 63 63 62 65 67
135 106 108 106 111 107 102 99 97 95 88 88 79 78 79 70 67 67 62 61 59 58 60 57 59 58 59 60 57 52 52 55 59 67 69 68 62 63 65 66 66 72 68 69
137 123 102 113 117 110 104 102 102 102 97 85 86 83 75 76 71 74 75 70 67 68 67 66 62 59 56 61 62 57 56 61 68 68 70 69 65 65 68 69 70 73 70 74
129 138 106 103 107 113 115 112 107 102 94 90 90 85 81 78 67 75 78 75 72 71 72 72 69 70 69 66 67 68 72 71 66 68 70 72 71 75 75 76 75 72 75 80
130 133 112 109 108 105 113 113 111 107 103 100 93 90 87 80 69 70 71 73 75 76 76 79 78 78 76 75 75 77 76 74 73 69 70 74 76 77 81 78 80 79 83 88
117 126 125 111 104 104 102 113 112 108 105 97 91 91 90 85 90 93 89 89 85 82 81 80 83 87 87 84 78 79 76 77 73 72 76 77 74 73 77 78 86 90 98 100
116 119 119 119 115 105 101 104 110 108 105 102 96 94 93 88 94 93 93 94 93 95 91 86 87 89 95 88 80 84 83 81 80 79 79 80 81 86 90 92 93 99 101 106
113 116 117 117 115 115 113 106 107 112 108 105 103 99 98 93 97 98 99 98 97 99 97 97 95 96 97 95 93 92 85 85 87 87 87 87 91 96 94 101 107 106 107 108
108 117 114 119 114 116 116 115 106 103 108 106 108 97 99 99 100 102 104 107 106 106 104 103 103 98 97 98 98 94 93 96 96 98 97 97 95 100 107 112 109 106 106 108
110 114 111 113 115 111 111 108 108 106 105 106 108 103 105 103 106 106 107 110 106 103 101 105 102 101 102 102 101 103 100 100 100 101 102 102 105 109 111 112 113 111 111 111
110 110 114 112 114 113 115 111 114 116 107 108 99 104 109 112 110 107 107 106 106 105 104 107 105 109 107 103 100 100 100 100 105 107 107 110 110 115 115 117 116 114 113 117
107 107 111 114 110 113 116 114 110 111 106 106 94 100 106 110 107 106 109 108 106 108 107 107 108 104 101 101 104 107 109 111 111 111 112 117 115 117 119 115 116 119 120 123
108 110 109 107 115 114 118 111 110 107 106 103 104 92 106 109 109 112 113 115 115 113 107 105 106 104 103 106 109 111 115 116 116 117 118 118 118 114 113 120 122 123 124 128
111 113 116 116 116 128 117 116 114 112 107 104 103 101 102 103 107 112 112 112 116 118 116 114 116 116 117 120 120 121 120 118 119 119 118 120 121 122 123 125 126 128 129 132
106 108 111 112 116 114 117 117 112 112 105 104 99 100 105 110 113 111 114 114 117 118 117 118 123 127 126 123 122 123 122 121 123 123 126 126 126 126 126 127 128 128 128 129
105 107 111 114 113 114 101 110 114 122 117 98 103 101 106 113 118 107 113 115 119 123 123 122 125 128 126 126 125 122 122 123 124 125 128 128 129 128 128 127 127 127 128 122
101 102 107 108 113 104 102 106 114 115 101 109 109 107 111 109 107 108 112 117 119 119 119 120 122 126 128 128 128 127 127 126 126 127 129 129 128 126 129 130 127 119 122 123
99 97 101 104 108 99 96 103 108 106 108 113 111 109 106 106 107 105 108 112 115 116 117 117 119 121 124 127 126 124 122 124 121 118 118 120 123 121 119 121 121 124 124 124
93 94 93 95 91 89 94 101 104 106 113 114 118 116 113 109 104 107 110 111 114 116 116 117 119 119 119 120 120 122 122 122 118 119 118 119 118 117 120 123 122 121 119 121
90 90 92 91 91 89 87 89 95 100 100 103 108 111 110 110 114 115 112 109 110 112 113 113 114 115 117 117 117 116 115 115 116 116 116 118 121 122 120 119 120 118 118 118
88 89 90 90 88 88 90 91 91 90 92 95 98 102 106 107 110 110 112 115 116 117 117 117 115 116 117 118 120 120 120 120 123 122 123 121 118 117 116 114 113 115 118 122
91 94 94 91 90 88 88 90 90 92 94 95 97 97 98 101 102 104 105 106 107 109 113 114 115 117 117 118 121 122 123 123 121 120 115 113 114 113 114 116 119 122 125 128

GFSCGP_250_spd_105.txt.gz
Wind_Speed
107 107 94 91 93 93 89 85 83 77 72 69 67 67 63 61 57 52 53 50 50 47 46 43 45 39 35 38 37 44 37 31 35 31 33 33 30 32 38 41 42 43 51 52
107 112 95 96 93 98 94 89 85 81 78 75 69 68 67 63 59 55 50 46 49 51 53 49 49 44 40 42 42 49 48 36 38 35 35 38 39 36 37 43 46 50 51 54
94 104 120 102 98 105 98 97 91 85 85 84 82 74 66 62 58 67 50 49 53 55 54 50 49 45 48 42 47 52 45 45 42 41 41 42 46 42 41 44 51 59 63 59
96 107 126 102 102 104 101 99 92 90 91 84 84 77 74 68 68 67 55 57 61 60 57 57 51 52 47 43 52 54 53 51 48 44 42 46 49 52 47 57 60 63 61 60
95 104 117 94 99 108 107 104 101 100 97 95 90 87 80 79 70 64 63 60 65 68 63 61 59 58 61 54 58 58 57 54 56 48 54 53 55 55 54 61 60 65 64 64
100 117 121 99 101 108 110 107 104 103 102 99 92 88 81 69 64 66 69 71 70 71 68 64 60 62 67 56 57 61 62 61 59 58 57 57 58 60 64 65 65 65 68 69
99 102 112 115 107 108 104 105 106 107 102 92 93 85 67 63 71 71 69 72 72 73 71 70 66 66 71 65 58 59 59 58 57 56 60 63 65 65 71 73 70 68 69 72
100 100 108 115 114 101 107 111 108 107 101 95 92 81 72 79 77 76 74 74 75 76 77 77 75 74 71 66 66 60 63 65 62 66 65 66 70 74 79 80 75 75 71 79
99 98 104 112 117 110 108 110 107 112 108 104 98 92 91 90 85 78 79 77 76 79 82 82 77 77 78 77 74 68 68 71 73 77 79 80 81 79 81 83 84 77 82 82
96 100 104 111 117 121 105 110 112 109 112 109 105 100 90 83 82 84 83 82 83 84 83 84 82 77 84 78 75 71 72 74 80 83 84 85 87 89 85 84 88 86 84 84
99 99 103 113 118 116 104 105 110 108 105 107 107 99 96 91 87 90 85 88 89 88 86 80 79 79 82 78 77 78 80 81 86 85 86 87 89 96 91 93 94 85 89 92
100 98 102 109 116 118 114 109 110 112 108 97 102 97 94 92 91 95 94 96 94 91 90 89 86 83 83 82 88 88 90 94 94 95 94 93 98 98 96 97 97 96 100 103
101 102 104 111 115 119 119 114 110 112 115 111 105 94 98 97 95 100 101 100 102 96 96 92 87 89 93 97 95 92 92 92 94 98 100 104 103 100 99 99 97 101 106 108
104 105 107 105 103 110 112 109 113 117 119 113 109 102 105 105 103 104 105 106 105 102 99 94 94 93 94 98 98 96 97 100 101 105 106 107 104 102 102 103 108 110 111 114
106 104 105 103 105 110 114 115 116 118 117 118 88 103 105 108 112 111 111 108 108 107 102 98 95 98 100 101 103 104 105 106 107 108 104 104 104 105 108 111 114 113 118 120
104 103 103 105 106 109 111 117 118 115 111 110 96 89 95 105 109 111 112 112 113 112 108 104 106 108 108 107 107 107 110 111 112 111 109 108 108 108 110 111 116 119 119 122
99 101 102 103 107 110 113 106 111 112 109 107 103 78 89 99 106 109 112 114 114 112 110 112 113 113 112 110 113 115 115 117 114 115 114 115 115 115 114 117 118 121 122 124
103 106 107 107 112 118 104 110 111 112 113 109 101 93 86 94 104 106 108 112 112 114 113 116 118 120 119 119 117 118 117 118 119 120 118 118 120 119 117 120 123 124 126 130
100 103 107 108 110 110 108 103 105 109 109 108 102 102 98 92 97 104 106 108 109 112 115 118 121 121 120 118 120 122 123 120 124 124 122 123 125 123 124 128 130 131 131 133
90 97 106 109 110 109 92 105 106 113 107 99 102 103 107 110 105 92 108 112 112 113 113 113 117 118 119 120 120 122 123 123 123 127 127 127 130 132 132 129 127 129 132 132
97 97 100 99 105 100 100 102 106 111 94 100 110 109 112 115 118 105 102 106 108 111 112 114 115 117 117 117 119 119 118 119 125 126 126 127 127 127 127 127 128 129 130 129
93 96 96 99 101 96 97 104 105 102 105 107 112 115 113 110 107 104 107 105 104 107 111 115 116 116 118 119 122 122 121 121 122 123 123 124 125 126 127 125 125 127 126 123
105 104 99 97 94 91 94 96 99 107 105 106 109 109 111 112 113 112 109 102 101 100 105 111 115 117 117 118 120 122 124 125 124 125 125 124 124 125 123 121 125 126 120 118
89 92 100 105 103 98 96 98 98 99 101 100 100 105 109 112 113 114 112 110 111 111 108 107 106 108 111 115 117 118 119 121 122 122 121 118 118 117 117 117 119 119 120 124
91 90 88 89 87 88 91 92 92 93 96 96 94 95 100 105 112 112 113 112 112 110 109 108 108 109 110 113 115 115 117 118 119 119 118 116 118 118 119 121 123 124 124 125
92 93 94 94 93 91 92 93 91 90 89 90 90 89 88 88 91 97 103 103 104 107 108 107 107 109 110 111 112 114 116 116 116 118 120 121 123 123 123 123 122 124 122 118

GFSCGP_250_spd_108.txt.gz
Wind_Speed
82 79 74 85 83 77 76 84 71 78 71 66 63 65 64 67 60 60 61 58 59 58 48 50 43 44 40 39 41 32 35 39 36 41 42 36 36 37 36 36 39 45 42 40
89 78 80 89 78 85 80 86 90 85 82 74 73 68 72 66 61 58 56 53 53 56 50 48 44 44 45 47 45 44 41 40 38 41 47 49 41 43 45 41 43 47 50 49
92 89 90 86 93 75 83 89 90 94 92 88 86 80 77 68 64 62 59 57 58 51 52 48 46 47 48 54 50 48 46 43 40 39 46 51 45 48 46 43 49 49 54 56
96 90 93 88 80 86 84 94 97 97 98 97 90 81 78 70 62 54 59 56 56 54 56 51 46 49 52 56 52 51 45 46 44 40 44 54 57 52 54 52 54 55 55 61
100 95 92 93 86 86 80 93 94 104 105 102 94 86 75 72 57 56 59 57 59 58 57 51 54 50 55 59 51 52 51 49 54 55 52 56 61 56 56 56 56 59 62 63
107 102 100 102 97 92 89 93 98 100 104 100 92 90 79 72 63 66 62 63 64 63 61 61 57 59 59 63 65 61 59 56 56 59 57 58 61 60 60 56 59 60 61 62
108 107 99 101 95 95 87 92 104 100 101 90 94 91 78 80 74 75 74 70 70 68 69 66 62 64 63 64 68 67 65 60 59 57 56 56 60 60 59 64 59 64 68 72
107 99 100 100 97 95 86 95 105 112 106 101 100 94 84 85 83 79 74 75 74 75 76 69 69 70 70 71 72 70 68 66 63 65 67 67 66 65 68 70 73 76 80 83
101 100 100 100 99 99 97 94 95 101 107 109 107 101 94 92 90 84 79 82 80 83 80 78 72 69 72 71 73 71 71 73 66 70 73 75 73 71 69 71 75 80 84 86
99 99 100 101 102 103 95 100 106 102 104 112 96 102 97 92 89 89 89 87 90 88 80 80 78 74 75 72 69 69 73 76 75 71 78 80 80 78 75 76 82 84 90 92
101 99 101 105 105 103 99 96 106 99 100 105 97 100 105 101 97 93 92 93 94 90 82 81 81 81 79 79 75 76 79 77 80 78 74 77 81 81 80 85 87 90 92 93
104 104 105 103 105 107 107 103 107 115 101 101 106 89 102 106 103 101 102 101 100 93 88 86 86 88 86 83 82 79 81 83 81 82 78 79 80 85 88 93 92 91 94 97
108 104 107 107 112 111 105 103 105 110 106 105 109 81 93 104 105 103 103 102 101 95 93 92 95 94 92 88 86 85 87 87 85 86 88 85 86 88 90 92 95 94 96 101
116 111 111 110 106 109 108 107 108 112 112 102 98 101 87 97 106 107 106 106 104 102 103 104 103 99 97 91 91 89 93 93 90 94 95 93 93 93 94 96 100 101 103 106
114 116 111 108 112 112 113 112 114 120 116 112 90 102 105 98 92 111 116 112 111 112 113 112 107 102 102 93 95 96 99 101 98 99 102 101 100 100 101 102 106 107 107 110
99 105 107 112 112 112 111 115 116 115 113 106 99 94 99 110 106 94 104 115 120 119 120 116 108 107 107 102 102 103 106 107 104 103 105 104 104 106 106 108 112 115 115 117
76 83 96 105 111 109 114 109 109 108 106 102 103 92 103 108 115 112 105 103 111 113 115 115 113 111 111 109 107 110 112 111 110 107 109 111 108 108 113 116 118 118 120 123
78 79 87 97 105 107 106 106 109 109 103 104 99 97 100 104 108 113 112 110 101 101 109 113 112 113 113 111 111 113 116 113 110 116 117 117 118 118 118 119 120 121 126 128
68 76 83 93 98 99 100 99 103 103 100 101 97 99 100 103 109 107 105 102 98 107 107 109 112 116 116 115 116 116 117 114 114 118 123 124 124 122 126 127 128 128 129 130
68 72 80 83 89 90 75 96 103 107 98 93 96 98 101 106 108 101 115 114 106 98 98 103 107 110 114 116 116 117 118 117 117 121 122 121 121 122 124 123 125 126 131 132
73 74 78 78 82 77 81 94 99 104 84 91 98 99 104 105 108 105 107 111 112 110 103 96 102 105 111 113 117 118 118 119 124 125 126 126 126 125 127 128 131 129 128 128
69 76 76 79 75 71 75 86 91 87 90 97 101 103 104 104 106 105 105 107 108 109 110 112 104 97 105 111 116 118 119 119 120 122 124 124 125 126 124 123 122 122 123 124
70 77 78 80 70 71 75 81 86 88 92 96 99 101 104 104 105 106 103 103 103 102 102 103 106 110 108 104 107 112 118 120 121 121 120 122 123 122 120 121 123 125 125 125
73 78 86 85 80 80 82 85 87 84 85 89 91 92 94 95 100 106 107 104 105 104 105 105 104 104 106 109 111 112 113 114 115 116 117 120 120 119 118 118 117 117 116 114
78 82 83 87 88 89 86 84 85 86 90 91 91 89 93 96 98 99 99 101 105 106 106 107 108 108 109 110 111 111 111 111 111 112 112 113 114 114 116 116 116 117 119 120
75 79 88 90 88 89 89 90 94 96 95 94 92 93 95 95 94 95 95 95 98 103 107 109 108 107 110 113 113 114 114 114 113 112 112 112 113 115 116 118 121 121 121 118

GFSCGP_250_spd_111.txt.gz
Wind_Speed
83 79 74 68 76 61 67 60 62 72 75 70 70 65 60 56 55 51 54 49 48 45 45 49 48 45 43 43 43 38 38 35 38 36 33 36 33 36 38 43 46 41 41 38
86 82 79 77 73 72 71 66 64 64 70 62 62 63 63 60 61 54 58 53 52 48 46 46 46 47 52 42 43 41 43 44 41 42 40 39 42 37 37 38 44 54 48 48
89 89 87 83 79 77 69 75 77 59 59 69 66 64 65 66 67 65 58 56 53 59 50 51 50 52 48 49 46 43 43 45 48 48 48 46 44 39 41 39 47 52 57 48
96 93 90 89 83 83 82 81 76 68 70 69 76 70 72 76 75 69 66 54 58 66 54 55 50 50 51 51 49 45 44 46 47 49 49 48 48 44 43 52 50 54 58 64
95 95 94 92 90 88 83 86 83 84 80 80 71 70 72 78 76 65 64 61 66 64 63 59 54 55 50 50 54 46 49 48 49 47 47 47 47 47 47 52 52 54 58 56
102 99 97 96 96 95 89 91 89 87 82 76 78 80 73 75 71 68 70 67 72 66 66 62 59 59 58 49 55 53 50 50 54 55 58 57 55 52 53 52 57 58 59 61
105 103 100 100 99 93 92 88 93 92 84 74 77 84 74 82 87 83 79 75 78 68 71 65 63 62 64 61 59 64 55 58 55 58 60 62 62 63 63 63 62 63 68 69
112 110 105 102 101 96 98 96 96 98 98 81 79 85 72 86 93 90 88 88 83 76 75 67 72 68 70 66 66 67 65 59 56 61 62 65 69 64 65 65 65 66 70 75
113 113 109 108 108 107 103 101 102 99 100 91 82 79 83 75 89 94 89 92 88 84 81 74 76 74 73 73 72 72 72 64 62 64 64 63 68 70 67 69 71 71 73 77
118 117 117 117 114 111 106 106 108 108 102 95 87 75 82 90 74 87 96 96 94 93 87 82 84 78 81 80 76 77 76 76 70 68 69 67 66 64 70 70 72 73 76 75
119 118 118 120 115 111 111 110 111 111 109 98 96 83 77 96 91 82 92 98 96 98 93 92 90 82 83 82 81 82 83 76 78 74 74 73 72 75 75 78 80 79 80 81
117 122 126 119 119 115 115 113 115 112 110 109 105 88 81 90 98 93 92 95 98 91 91 88 89 89 89 89 85 85 90 86 83 81 82 81 80 77 82 82 83 87 87 84
112 117 120 123 124 123 119 112 111 110 115 114 110 86 94 92 94 103 90 102 102 99 98 96 97 100 92 89 91 91 93 90 86 90 88 92 89 88 88 87 88 91 92 92
115 116 114 114 115 117 116 114 116 116 120 110 114 93 94 96 98 104 109 99 104 105 106 109 109 107 101 96 97 94 98 91 89 90 91 94 99 97 94 91 94 97 101 101
107 107 108 108 112 110 112 111 114 113 108 114 98 105 95 99 100 106 108 109 98 98 103 109 110 100 103 103 102 101 102 100 93 95 97 102 103 102 100 98 98 106 107 109
98 101 106 109 110 110 110 111 115 114 110 106 95 97 97 98 105 104 110 113 107 96 98 106 112 112 112 113 113 108 108 106 99 101 105 106 108 108 109 109 108 109 112 115
82 81 91 98 108 110 116 108 112 115 110 104 104 92 103 104 109 109 109 108 106 106 98 99 106 113 117 117 114 110 112 107 105 107 111 113 114 116 113 114 116 116 115 119
75 74 81 96 102 115 104 106 111 118 111 106 100 98 103 105 110 110 105 107 106 110 111 106 100 104 108 110 113 113 112 112 111 113 115 117 120 124 121 120 118 117 117 119
73 77 78 81 88 98 99 93 99 106 103 106 103 100 103 108 113 108 109 106 110 110 103 102 104 102 102 106 113 115 116 119 119 122 124 126 125 125 124 123 122 122 122 123
75 77 77 71 75 80 69 79 82 88 90 92 99 98 103 107 106 103 114 113 109 111 109 105 103 100 95 95 97 101 108 115 120 121 122 122 122 122 122 123 122 122 126 128
68 68 67 67 60 51 59 63 73 76 63 76 86 91 100 103 103 103 112 112 110 108 108 106 103 102 100 99 96 94 97 101 107 109 112 115 117 119 122 122 125 127 126 126
67 71 63 59 53 31 41 54 59 64 73 74 77 83 91 97 98 94 101 105 106 106 106 105 104 104 102 99 98 98 99 100 99 101 104 106 108 111 114 115 119 121 121 123
68 65 62 58 45 44 41 52 58 65 67 69 72 74 82 89 93 95 93 100 102 101 101 100 98 98 101 104 105 106 108 108 110 110 110 110 109 108 110 112 114 116 118 115
78 71 67 58 50 50 45 52 58 61 63 63 65 69 75 82 85 84 86 85 89 95 96 95 94 96 98 99 100 103 104 106 108 108 108 111 114 115 116 117 117 117 116 114
87 81 81 73 58 66 71 58 57 61 65 67 67 69 71 74 76 78 79 82 85 86 87 87 88 88 92 95 97 99 101 103 103 106 107 108 110 113 115 116 118 118 117 117
89 96 94 90 77 81 69 59 55 62 65 68 70 68 69 74 79 83 83 81 83 82 87 88 88 90 92 93 94 96 99 102 104 105 106 108 109 109 110 110 110 112 113 115

GFSCGP_250_spd_114.txt.gz
Wind_Speed
89 82 73 77 73 68 68 65 55 61 69 70 70 72 72 70 61 64 54 55 52 43 40 38 41 41 42 43 45 45 45 39 39 36 35 36 38 41 40 39 41 39 38 35
90 85 82 82 78 74 69 69 59 54 56 68 70 70 67 61 60 60 60 55 56 48 45 46 43 43 43 48 53 45 44 43 43 40 41 41 42 45 47 49 43 44 43 41
92 88 88 87 83 80 68 76 66 61 55 63 70 72 65 65 65 64 65 60 58 54 47 51 48 45 47 46 49 49 48 49 46 44 44 45 44 47 49 47 48 50 47 44
100 97 91 89 89 84 75 78 73 70 64 56 68 72 68 72 71 69 70 68 58 60 53 60 56 50 54 53 48 48 48 48 47 47 47 46 45 47 45 46 47 50 50 51
98 97 95 93 90 89 86 84 82 72 70 68 60 61 72 78 75 74 74 66 59 63 64 64 61 57 58 60 59 54 53 51 50 51 50 46 50 52 48 50 51 54 53 55
108 103 101 99 97 95 92 85 89 81 77 74 68 57 53 73 81 75 73 70 68 68 70 73 72 63 61 65 65 62 57 60 52 48 54 47 49 51 53 57 60 63 60 64
105 102 99 99 99 95 91 92 89 89 82 72 79 72 57 58 73 80 79 78 77 73 74 82 84 72 66 69 71 67 58 63 60 54 54 60 56 56 61 59 61 63 65 69
104 103 100 100 98 94 94 93 96 96 90 86 83 76 68 70 66 69 83 86 86 82 79 84 88 85 69 74 77 72 68 67 62 63 60 62 64 64 64 60 63 67 71 69
108 105 104 101 102 100 101 99 98 99 98 96 86 82 79 79 78 74 78 80 91 86 81 83 86 78 76 77 84 79 74 69 68 68 66 65 69 71 67 64 68 71 75 75
112 113 111 110 108 104 102 103 102 102 101 100 95 85 83 86 86 82 76 85 82 84 85 83 80 80 83 85 84 82 79 76 77 70 71 72 72 75 79 78 74 75 78 80
114 115 114 114 110 108 107 108 107 106 104 104 102 96 91 90 93 91 88 82 85 88 85 86 88 88 89 91 92 89 85 82 81 78 76 77 79 77 80 87 83 77 84 86
120 119 116 114 114 114 115 114 113 110 110 106 106 99 95 95 94 102 91 92 85 89 93 94 95 96 98 96 95 90 91 90 84 85 82 83 86 86 85 90 92 93 88 93
119 120 121 120 119 119 116 115 115 117 117 112 111 98 101 98 101 101 106 101 95 89 96 98 95 98 100 98 99 96 92 97 93 89 94 89 88 89 91 93 96 97 95 92
123 124 120 120 115 117 120 123 122 126 126 114 114 103 108 109 107 108 110 106 103 97 93 99 101 101 100 96 96 100 99 102 99 97 98 93 94 92 93 100 98 103 103 100
123 122 123 124 120 122 122 122 122 124 118 119 105 108 106 107 111 111 109 109 107 100 97 97 100 103 104 103 100 99 101 100 97 91 94 99 103 103 101 102 106 107 107 106
115 111 114 118 122 123 125 126 124 121 115 117 108 112 108 109 109 113 122 118 114 109 107 104 101 102 106 108 109 102 103 99 100 101 100 103 108 113 113 108 111 112 112 113
108 108 110 109 111 116 123 113 114 118 117 118 117 104 112 112 112 116 122 119 117 116 114 111 109 106 106 105 107 110 109 108 106 109 110 112 117 121 114 111 112 114 117 118
100 103 106 105 109 116 101 108 107 110 113 116 113 104 106 107 110 114 119 119 115 114 120 118 111 108 108 108 107 103 106 109 113 111 112 113 113 112 115 115 118 120 121 120
96 97 97 98 97 92 92 94 98 105 105 109 104 98 105 106 111 111 110 115 115 113 113 113 110 111 111 109 107 105 103 105 106 108 111 112 108 108 109 109 112 111 113 116
86 83 84 84 83 81 87 87 81 87 85 78 96 95 98 104 108 100 110 116 117 115 112 111 111 109 107 109 111 105 102 103 107 107 106 106 105 106 108 108 107 107 108 110
73 75 77 76 79 79 74 70 73 75 53 72 87 83 87 91 95 94 104 107 107 108 105 103 102 108 108 104 101 104 105 105 104 104 103 103 99 97 99 100 98 100 102 106
79 82 80 74 71 67 66 68 69 69 65 61 69 78 79 82 83 84 91 95 98 97 92 91 94 98 99 97 99 101 104 105 110 109 108 108 109 106 103 105 107 108 108 109
84 83 79 77 72 67 61 67 64 70 78 75 79 73 67 70 74 78 81 86 90 86 87 88 92 96 92 90 88 89 95 100 105 107 108 110 110 106 106 104 105 105 108 111
75 66 70 63 64 62 62 60 63 64 71 72 49 44 52 62 68 73 75 78 82 82 78 77 77 80 79 77 77 78 82 86 91 96 99 100 100 99 100 100 103 104 105 107
76 73 68 66 62 60 62 64 68 65 63 61 54 50 45 51 60 62 63 68 75 77 74 71 72 72 73 78 79 76 76 78 81 84 88 92 95 99 100 102 104 106 107 109
79 70 68 63 72 70 67 62 66 64 59 61 57 56 49 47 50 58 62 66 68 70 72 71 74 76 76 75 75 77 78 80 81 83 85 87 91 94 97 98 98 100 102 104

GFSCGP_250_spd_117.txt.gz
Wind_Speed
93 88 81 77 72 68 66 65 61 59 65 72 73 77 71 64 63 65 63 61 63 61 51 45 42 36 39 39 41 41 45 46 42 39 41 40 38 36 38 43 44 47 49 47
95 87 84 82 81 76 70 71 66 60 59 64 76 81 74 68 69 67 65 62 63 61 58 55 53 49 45 42 42 42 39 40 45 54 52 45 43 43 42 44 45 49 48 52
92 88 89 88 84 81 73 73 72 70 65 58 64 76 75 73 72 71 67 66 67 67 63 60 59 59 55 50 48 45 50 46 51 57 49 48 49 48 45 44 42 44 51 50
99 97 93 90 86 82 79 80 78 73 74 66 53 59 73 75 75 74 76 73 72 70 66 62 61 63 56 55 52 50 46 49 49 48 49 49 46 47 48 48 47 49 50 50
100 97 94 95 92 89 85 84 83 78 78 71 61 52 59 69 78 81 80 77 74 70 67 65 67 66 62 61 58 56 59 55 57 52 52 52 51 49 49 50 49 51 53 55
106 101 99 99 97 93 91 89 88 85 84 76 70 57 53 56 73 80 82 80 78 74 71 72 68 71 69 65 66 61 63 65 61 59 62 62 61 57 54 50 57 53 57 58
110 106 104 101 102 96 93 88 93 90 86 78 73 68 56 63 64 68 76 84 84 76 75 78 74 76 79 71 68 68 70 70 68 67 65 67 67 62 63 60 57 62 65 65
108 104 101 99 102 101 97 95 93 93 90 86 82 73 64 71 71 69 66 71 86 84 81 83 81 80 83 75 76 74 73 77 80 72 72 72 72 72 66 70 70 65 69 75
108 106 102 101 102 101 101 101 101 100 97 95 89 83 80 73 79 74 72 72 70 71 82 91 90 87 87 84 82 80 81 81 85 85 81 78 77 77 75 71 71 75 74 78
112 110 108 107 105 104 102 101 102 104 103 99 92 91 86 84 82 85 81 79 79 76 76 74 91 92 93 87 86 84 85 85 87 90 87 84 80 84 80 79 77 82 80 80
119 115 110 110 107 104 104 104 105 104 105 104 100 96 94 90 89 90 89 88 88 86 84 79 77 89 95 92 91 92 93 92 92 90 90 86 86 85 90 89 86 83 87 87
118 116 113 110 109 109 107 105 108 110 108 107 103 95 95 95 95 96 95 95 95 95 93 90 86 85 84 84 86 93 95 97 96 94 92 87 88 92 96 97 91 91 88 95
120 122 120 119 115 112 109 108 106 108 109 105 108 94 97 103 103 103 104 105 101 100 101 98 98 96 92 87 84 83 84 89 88 94 93 93 94 96 98 99 97 96 100 94
126 127 124 119 116 116 114 114 114 117 119 110 112 98 102 102 106 106 107 110 109 106 107 106 103 102 99 98 99 96 90 86 91 92 97 99 102 103 104 100 103 103 103 107
124 120 119 120 123 119 119 119 122 121 114 119 104 107 108 108 111 111 110 113 116 116 115 115 112 109 106 103 103 104 104 99 93 93 99 100 104 108 110 108 108 112 107 110
126 128 126 124 122 121 124 125 125 118 114 118 110 110 105 106 112 115 118 119 119 118 119 113 109 111 113 111 110 106 107 106 103 100 98 100 104 106 109 110 110 112 112 117
128 129 130 129 127 130 129 116 117 115 118 116 116 107 113 115 114 117 123 122 121 122 121 120 122 118 116 115 116 116 113 111 111 108 104 104 105 107 109 110 112 114 114 115
129 134 135 132 133 137 124 128 125 122 119 121 118 110 111 120 123 124 125 124 125 127 125 126 126 126 123 118 117 118 119 120 117 114 113 111 109 109 111 111 113 112 111 112
130 135 133 133 131 128 121 121 120 122 122 125 124 118 121 122 126 127 125 129 129 130 130 128 127 126 123 120 122 120 120 121 120 119 112 110 109 109 108 107 110 106 104 102
120 121 123 125 125 122 115 113 113 118 113 114 116 116 119 123 125 115 126 125 124 124 123 125 125 123 119 116 114 115 114 115 114 115 114 110 104 108 110 108 105 97 95 100
117 118 115 111 111 108 105 104 103 102 95 105 112 114 115 115 116 114 114 117 118 118 116 116 115 111 105 103 103 105 106 105 105 108 107 108 106 100 102 106 109 109 108 106
104 106 104 104 101 98 95 91 89 83 94 100 100 103 101 99 101 99 99 101 101 99 101 98 97 96 95 89 91 92 92 94 95 97 99 100 103 101 93 97 100 104 104 105
91 91 93 93 88 84 80 83 87 89 90 89 85 83 82 84 89 88 84 90 89 86 86 83 80 82 85 83 86 89 88 90 91 88 86 87 90 93 94 88 91 95 100 101
79 82 86 86 82 78 74 73 73 75 74 74 71 71 74 79 78 76 80 79 76 78 80 80 80 82 84 85 85 84 80 79 74 76 79 81 77 77 79 79 81 84 86 89
77 71 73 76 79 78 71 70 72 70 68 70 72 74 69 70 71 71 69 68 72 73 74 75 79 82 80 81 77 76 75 73 73 76 77 74 73 76 77 79 82 85 88 90
73 63 65 57 67 70 69 73 73 73 71 75 75 69 71 60 66 68 66 65 69 61 64 66 63 61 65 67 70 73 77 80 82 81 77 77 80 81 84 84 84 86 87 89

GFSCGP_250_spd_120.txt.gz
Wind_Speed
97 89 83 78 74 71 69 69 60 66 72 75 75 70 69 67 60 54 50 53 54 52 50 54 55 54 50 48 39 38 38 41 39 37 40 44 41 40 45 48 45 42 39 42
99 90 85 85 80 77 75 72 68 63 60 63 70 73 74 73 66 64 63 61 62 58 60 60 58 59 55 50 49 41 42 44 41 43 47 52 45 46 54 55 48 46 47 46
98 93 91 88 84 80 80 76 74 70 65 62 60 61 68 73 75 70 68 67 67 64 62 64 59 60 59 57 54 51 49 48 46 44 46 45 44 47 50 57 52 46 46 49
105 100 97 93 88 88 83 81 77 72 72 67 63 55 55 58 67 71 71 72 71 66 65 64 65 64 63 63 58 59 54 53 59 57 55 52 54 59 60 60 54 52 49 50
109 100 100 94 90 89 86 84 81 76 72 67 61 60 60 53 50 67 72 73 72 74 68 70 69 68 67 65 62 62 58 59 58 59 59 57 55 58 57 56 55 56 58 58
113 105 106 102 98 95 88 88 87 85 80 71 65 64 65 59 62 58 66 71 75 78 75 73 72 74 73 72 68 67 67 63 64 66 65 63 63 62 61 64 65 66 66 67
116 109 108 105 103 98 96 95 92 89 85 73 71 69 63 67 67 64 62 64 68 73 78 75 75 75 76 75 73 72 73 71 71 70 69 72 67 68 68 69 73 73 72 71
113 113 109 105 104 98 97 96 91 89 87 82 77 72 66 72 72 70 65 64 62 69 76 80 79 77 77 79 79 77 79 78 79 73 76 74 77 72 74 74 78 77 78 80
114 112 108 104 109 105 104 105 101 99 94 91 83 79 76 76 78 78 78 72 67 66 67 70 74 74 79 80 81 78 78 83 82 81 81 81 78 84 79 82 81 83 83 82
116 113 111 108 107 108 104 102 103 104 99 95 92 86 82 79 81 82 83 81 78 74 71 71 70 72 76 80 82 84 85 84 84 89 88 88 88 87 88 88 88 88 90 92
117 116 114 114 109 102 102 103 102 100 99 94 92 92 86 85 84 85 88 87 85 83 82 79 77 76 73 73 76 82 87 89 90 93 93 95 96 93 96 96 97 95 94 96
116 116 115 114 111 110 108 107 108 110 105 99 97 93 89 88 90 91 94 94 94 92 90 89 86 84 84 83 80 80 80 79 79 81 86 92 94 97 97 97 100 97 103 100
117 115 116 118 116 116 113 108 108 108 108 104 100 87 89 93 93 97 98 99 99 98 96 96 96 95 91 89 91 92 88 89 89 89 86 86 89 89 93 92 93 95 97 99
121 119 118 115 111 110 109 109 108 109 105 100 97 91 98 99 100 101 99 98 98 101 105 105 104 102 102 101 100 98 99 98 98 97 98 100 97 97 96 101 103 102 103 102
124 122 123 120 118 119 118 118 116 116 107 111 95 101 100 100 100 102 103 104 107 105 104 105 108 109 111 111 111 111 110 110 108 108 109 110 111 112 112 110 106 108 107 107
120 123 124 124 123 122 120 122 118 110 109 107 101 99 102 104 106 109 107 105 109 109 110 109 108 110 112 114 116 116 115 115 113 113 115 115 113 112 111 111 111 113 113 110
116 123 125 125 125 127 127 117 116 117 118 111 111 102 109 112 111 109 110 112 111 111 114 116 117 117 117 116 117 118 117 117 117 116 116 118 117 117 117 119 120 119 117 117
119 121 123 126 129 131 122 124 122 121 121 117 112 110 110 115 115 115 114 116 117 119 120 119 119 120 121 121 120 119 118 118 119 121 122 122 123 123 122 121 121 122 122 121
124 124 121 124 126 126 126 123 121 122 119 116 113 113 113 117 120 116 121 123 125 126 126 127 127 126 123 122 122 123 122 123 123 123 123 124 125 124 123 120 118 118 113 111
120 123 124 126 129 123 116 117 119 123 118 117 119 118 117 120 125 115 122 125 122 122 122 124 125 125 128 128 126 127 127 125 123 120 119 118 117 117 116 114 111 104 102 103
114 121 122 122 123 120 116 116 117 117 114 119 121 121 123 123 122 122 122 123 123 124 124 125 126 124 124 122 118 117 118 118 114 112 106 101 100 98 100 102 95 92 90 92
108 116 114 117 117 117 117 118 119 120 124 125 125 125 124 122 122 120 118 119 119 119 119 119 118 118 117 118 114 116 112 107 102 96 93 90 91 91 92 88 87 87 89 88
97 99 105 110 107 110 111 112 117 119 121 123 123 121 119 119 119 116 110 108 106 106 108 108 108 105 103 101 100 97 97 96 93 90 82 80 83 86 87 83 89 92 91 89
95 98 102 106 108 110 113 116 117 117 117 117 113 111 108 106 104 100 99 95 91 93 94 94 91 86 89 88 91 94 91 90 87 84 81 77 78 82 85 85 89 87 83 82
98 99 99 100 100 101 102 104 107 110 111 108 104 100 95 95 93 91 85 78 82 85 85 84 80 79 79 82 87 85 81 83 82 82 80 78 76 79 83 82 83 81 80 79
102 100 101 99 91 90 90 94 94 95 95 94 87 82 82 85 82 74 72 75 77 77 74 77 77 77 78 74 77 78 73 68 74 72 72 75 70 74 77 78 79 80 80 81